GFSNE_500_temp_000.txt.gz
Temp
-20 -20 -21 -21 -23 -24 -23 -22 -22 -22 -22 -22 -20 -19 -19 -18 -17 -16 -17 -18 -18 -18 -18 -18 -18 -17 -17 -17 -16 -16 -16 -16 -16 -16 -16 -16 -16 -17
-22 -22 -23 -24 -24 -25 -25 -25 -24 -23 -23 -22 -21 -20 -20 -19 -17 -17 -17 -17 -17 -18 -18 -18 -18 -18 -17 -17 -17 -17 -16 -17 -17 -17 -16 -17 -17 -17
-24 -24 -24 -25 -25 -26 -26 -26 -26 -25 -24 -23 -22 -21 -20 -19 -18 -18 -18 -17 -17 -18 -17 -18 -18 -17 -18 -17 -17 -16 -17 -18 -17 -17 -17 -17 -18 -18
-26 -26 -27 -28 -28 -27 -27 -27 -26 -26 -25 -24 -24 -23 -21 -19 -19 -19 -19 -18 -18 -18 -18 -18 -18 -18 -17 -17 -17 -17 -17 -18 -18 -18 -18 -18 -18 -18
-29 -30 -30 -30 -31 -31 -30 -28 -27 -27 -26 -25 -24 -24 -23 -22 -20 -19 -20 -18 -18 -18 -18 -18 -18 -18 -18 -18 -17 -18 -18 -18 -19 -19 -19 -19 -18 -18
-30 -31 -31 -31 -31 -31 -31 -31 -29 -27 -27 -26 -25 -24 -24 -23 -22 -21 -20 -20 -19 -19 -19 -19 -18 -18 -19 -18 -18 -18 -18 -18 -19 -19 -18 -19 -19 -19
-30 -30 -30 -30 -31 -31 -31 -31 -31 -29 -27 -26 -26 -25 -25 -23 -23 -23 -21 -21 -21 -20 -19 -19 -19 -18 -19 -19 -19 -18 -18 -18 -19 -19 -19 -20 -19 -19
-29 -30 -30 -30 -30 -30 -30 -31 -31 -31 -29 -27 -26 -26 -25 -25 -24 -24 -23 -21 -21 -21 -20 -19 -20 -19 -19 -19 -19 -19 -19 -19 -19 -19 -19 -19 -19 -19
-28 -29 -29 -29 -29 -30 -30 -30 -31 -31 -31 -29 -27 -26 -26 -25 -24 -24 -24 -22 -21 -22 -22 -21 -21 -19 -19 -20 -20 -19 -19 -19 -19 -20 -20 -20 -20 -20
-28 -29 -29 -29 -29 -29 -29 -29 -30 -31 -31 -31 -29 -27 -26 -26 -25 -25 -24 -25 -23 -22 -23 -21 -21 -21 -21 -21 -20 -20 -20 -20 -20 -21 -20 -20 -20 -20
-28 -28 -28 -28 -29 -29 -29 -29 -29 -30 -31 -31 -31 -28 -27 -26 -26 -25 -25 -25 -24 -23 -23 -22 -22 -22 -21 -22 -21 -21 -21 -21 -21 -21 -21 -21 -20 -21
-28 -28 -28 -28 -28 -28 -28 -29 -29 -30 -32 -32 -32 -32 -29 -27 -26 -26 -25 -25 -25 -24 -23 -22 -22 -22 -22 -22 -22 -22 -22 -22 -22 -22 -22 -22 -22 -22
-29 -29 -28 -29 -29 -29 -28 -29 -29 -30 -31 -32 -32 -32 -31 -29 -27 -26 -25 -25 -25 -25 -24 -25 -23 -22 -22 -23 -22 -22 -23 -22 -22 -22 -22 -23 -23 -23
-29 -29 -29 -29 -29 -29 -29 -29 -29 -30 -30 -32 -33 -32 -32 -31 -29 -27 -26 -26 -25 -25 -25 -25 -25 -25 -24 -23 -23 -22 -22 -22 -22 -23 -23 -23 -23 -23
-28 -29 -29 -29 -29 -29 -29 -29 -29 -30 -31 -31 -32 -32 -32 -32 -31 -29 -27 -26 -25 -25 -25 -25 -25 -25 -25 -25 -24 -23 -23 -23 -23 -23 -24 -24 -24 -24
-29 -29 -29 -29 -28 -28 -29 -29 -30 -31 -31 -32 -33 -33 -33 -32 -32 -30 -28 -27 -26 -25 -25 -25 -25 -25 -25 -25 -24 -24 -23 -23 -23 -24 -24 -23 -23 -23
-29 -29 -29 -29 -29 -29 -29 -30 -30 -31 -32 -33 -33 -33 -33 -33 -32 -32 -30 -28 -27 -26 -25 -25 -25 -26 -25 -25 -25 -25 -24 -24 -24 -24 -24 -23 -23 -23
-29 -29 -29 -29 -29 -29 -29 -29 -30 -31 -32 -33 -33 -33 -33 -33 -33 -32 -31 -30 -28 -26 -26 -25 -25 -25 -26 -25 -25 -25 -25 -25 -25 -24 -24 -24 -23 -23
-28 -28 -28 -29 -29 -29 -29 -29 -30 -30 -31 -31 -32 -33 -33 -33 -33 -33 -32 -31 -28 -27 -26 -26 -26 -25 -25 -25 -25 -25 -25 -25 -24 -24 -23 -24 -24 -24
-28 -28 -29 -29 -29 -29 -29 -29 -29 -30 -30 -31 -31 -31 -31 -32 -32 -32 -32 -31 -30 -29 -27 -26 -26 -25 -25 -25 -25 -25 -25 -25 -25 -25 -25 -24 -24 -24
-28 -28 -28 -29 -29 -29 -29 -29 -29 -29 -30 -30 -31 -31 -31 -31 -31 -31 -31 -31 -30 -30 -29 -27 -26 -26 -26 -26 -26 -25 -25 -25 -25 -25 -25 -25 -25 -25
-28 -28 -28 -28 -28 -28 -29 -29 -29 -30 -30 -30 -30 -30 -31 -31 -31 -30 -30 -30 -29 -30 -28 -28 -27 -27 -26 -26 -25 -25 -26 -26 -26 -25 -25 -26 -26 -26
-29 -29 -29 -29 -29 -29 -28 -28 -28 -29 -29 -29 -30 -30 -30 -30 -29 -29 -29 -29 -28 -29 -28 -28 -27 -26 -26 -26 -26 -27 -26 -25 -25 -26 -26 -26 -27 -27

GFSNE_500_temp_003.txt.gz
Temp
-22 -22 -22 -22 -22 -22 -23 -22 -21 -20 -19 -20 -19 -19 -19 -19 -19 -18 -19 -17 -17 -17 -17 -18 -18 -18 -17 -17 -17 -17 -17 -17 -17 -16 -16 -16 -16 -16
-22 -22 -22 -22 -22 -23 -23 -24 -24 -23 -21 -20 -20 -20 -20 -20 -19 -19 -19 -19 -18 -18 -17 -17 -18 -18 -18 -17 -17 -17 -17 -17 -17 -17 -17 -16 -16 -16
-23 -23 -23 -23 -23 -23 -23 -23 -23 -23 -23 -22 -22 -21 -22 -20 -21 -21 -22 -20 -19 -19 -18 -18 -18 -19 -18 -18 -18 -17 -17 -18 -18 -17 -17 -17 -17 -17
-25 -25 -25 -25 -25 -25 -26 -26 -27 -25 -24 -23 -23 -23 -23 -23 -22 -23 -22 -22 -21 -20 -18 -18 -18 -18 -19 -19 -18 -18 -18 -18 -18 -18 -18 -17 -17 -17
-26 -26 -26 -27 -27 -29 -30 -30 -30 -30 -30 -27 -23 -23 -25 -25 -24 -24 -22 -22 -20 -20 -19 -18 -19 -19 -19 -20 -19 -19 -18 -18 -18 -18 -18 -18 -18 -18
-27 -28 -29 -29 -29 -30 -30 -30 -31 -31 -31 -31 -29 -27 -26 -26 -26 -24 -24 -23 -22 -21 -20 -19 -19 -19 -19 -19 -19 -20 -19 -19 -18 -19 -19 -19 -19 -19
-29 -30 -30 -30 -30 -30 -30 -30 -30 -31 -31 -31 -31 -30 -28 -28 -27 -26 -25 -24 -23 -22 -20 -20 -19 -20 -19 -19 -19 -19 -19 -19 -18 -19 -19 -19 -18 -19
-30 -30 -29 -29 -29 -29 -29 -29 -29 -30 -30 -30 -31 -31 -30 -29 -28 -27 -26 -25 -24 -22 -21 -21 -21 -20 -20 -20 -19 -19 -19 -19 -19 -18 -18 -19 -20 -20
-29 -29 -29 -29 -28 -28 -29 -29 -29 -29 -29 -30 -30 -31 -31 -30 -28 -27 -26 -26 -25 -23 -22 -21 -22 -21 -20 -20 -20 -19 -19 -19 -19 -18 -18 -19 -19 -20
-29 -29 -29 -28 -28 -28 -29 -28 -29 -29 -29 -29 -29 -30 -31 -31 -30 -28 -27 -26 -26 -25 -25 -22 -22 -22 -21 -21 -21 -21 -20 -20 -20 -19 -19 -19 -19 -20
-28 -29 -28 -28 -29 -29 -29 -28 -28 -28 -29 -29 -29 -29 -31 -32 -32 -29 -27 -26 -26 -25 -25 -24 -22 -23 -22 -22 -22 -22 -21 -21 -20 -20 -20 -20 -20 -20
-28 -28 -28 -28 -28 -28 -28 -28 -28 -28 -28 -29 -29 -29 -30 -32 -32 -31 -28 -27 -26 -26 -26 -25 -24 -23 -22 -21 -22 -21 -21 -21 -20 -20 -20 -20 -21 -21
-28 -28 -28 -29 -28 -29 -29 -29 -29 -28 -28 -28 -29 -29 -30 -31 -33 -32 -29 -28 -27 -26 -26 -26 -25 -23 -23 -22 -22 -22 -21 -21 -21 -21 -21 -21 -21 -21
-28 -28 -29 -29 -29 -29 -29 -29 -28 -28 -28 -29 -29 -29 -29 -31 -33 -33 -31 -29 -27 -26 -27 -26 -25 -24 -23 -23 -22 -22 -22 -22 -22 -21 -21 -21 -22 -22
-28 -28 -29 -29 -29 -29 -29 -29 -29 -29 -29 -29 -29 -30 -30 -31 -33 -33 -33 -31 -28 -27 -27 -26 -26 -25 -24 -23 -23 -22 -22 -22 -22 -22 -22 -22 -22 -22
-29 -29 -29 -29 -29 -29 -28 -29 -29 -29 -30 -30 -30 -30 -31 -32 -33 -33 -33 -31 -29 -27 -27 -27 -26 -25 -25 -23 -23 -23 -22 -22 -22 -23 -23 -22 -23 -22
-29 -29 -29 -29 -29 -29 -29 -29 -30 -30 -31 -32 -32 -32 -32 -33 -34 -33 -33 -33 -31 -28 -27 -27 -26 -26 -25 -25 -24 -23 -23 -22 -23 -23 -22 -23 -23 -23
-28 -29 -29 -29 -29 -29 -29 -29 -30 -31 -32 -34 -34 -33 -34 -34 -34 -34 -34 -33 -33 -30 -28 -27 -27 -26 -25 -25 -25 -24 -23 -23 -23 -23 -22 -24 -24 -23
-28 -28 -28 -28 -29 -29 -29 -29 -30 -31 -32 -33 -34 -34 -34 -34 -34 -34 -34 -34 -33 -32 -30 -28 -27 -27 -26 -25 -25 -25 -25 -24 -24 -24 -24 -24 -25 -24
-29 -29 -28 -28 -28 -28 -29 -29 -30 -30 -31 -31 -32 -34 -34 -34 -34 -34 -34 -34 -33 -32 -31 -29 -27 -27 -26 -26 -25 -25 -25 -25 -25 -25 -25 -25 -25 -25
-29 -29 -29 -29 -29 -28 -28 -29 -30 -30 -31 -31 -32 -32 -33 -33 -34 -34 -34 -33 -33 -32 -31 -29 -28 -27 -26 -26 -26 -25 -25 -25 -25 -25 -25 -25 -25 -25
-29 -29 -29 -29 -29 -29 -28 -29 -30 -30 -30 -31 -31 -31 -32 -32 -32 -32 -33 -33 -33 -32 -31 -30 -28 -27 -27 -26 -26 -26 -26 -26 -26 -25 -25 -25 -25 -25
-30 -30 -30 -29 -30 -29 -29 -29 -30 -30 -30 -30 -30 -30 -31 -30 -30 -30 -31 -32 -32 -32 -31 -30 -29 -28 -27 -26 -26 -26 -26 -26 -26 -26 -26 -26 -26 -26

GFSNE_500_temp_006.txt.gz
Temp
-23 -23 -23 -23 -23 -23 -23 -23 -22 -21 -21 -21 -21 -21 -21 -20 -20 -19 -19 -19 -19 -18 -18 -18 -18 -17 -17 -16 -17 -17 -17 -17 -17 -16 -16 -16 -16 -16
-24 -23 -23 -23 -23 -23 -23 -23 -23 -22 -21 -21 -21 -21 -21 -21 -20 -20 -19 -19 -19 -18 -18 -18 -18 -18 -17 -17 -17 -17 -17 -17 -17 -17 -17 -17 -17 -16
-24 -23 -23 -23 -23 -23 -23 -23 -23 -24 -22 -21 -21 -20 -21 -21 -20 -20 -20 -19 -19 -19 -18 -18 -18 -18 -18 -18 -17 -18 -18 -17 -17 -17 -17 -17 -17 -17
-24 -24 -24 -25 -25 -25 -24 -24 -24 -24 -24 -22 -22 -21 -20 -20 -21 -20 -20 -19 -19 -18 -19 -19 -18 -18 -18 -19 -18 -17 -18 -18 -18 -17 -17 -17 -17 -18
-25 -25 -25 -26 -25 -26 -26 -25 -25 -25 -25 -24 -22 -23 -22 -21 -21 -21 -19 -19 -19 -20 -20 -19 -18 -18 -18 -19 -17 -18 -18 -18 -19 -18 -18 -18 -18 -18
-26 -27 -27 -27 -28 -28 -28 -28 -28 -27 -27 -27 -26 -24 -24 -23 -23 -22 -22 -20 -20 -21 -21 -20 -19 -19 -18 -18 -18 -18 -18 -18 -18 -19 -18 -18 -18 -18
-29 -30 -30 -30 -30 -30 -30 -30 -30 -30 -30 -30 -30 -29 -28 -28 -27 -26 -25 -23 -21 -22 -23 -22 -21 -21 -19 -19 -19 -19 -18 -18 -18 -19 -19 -18 -18 -18
-31 -31 -30 -30 -30 -30 -30 -29 -29 -29 -29 -30 -29 -29 -29 -30 -31 -31 -30 -27 -24 -23 -25 -24 -23 -21 -21 -20 -20 -19 -19 -19 -19 -19 -19 -19 -19 -19
-30 -30 -30 -30 -29 -29 -29 -29 -29 -28 -28 -28 -28 -29 -29 -30 -30 -31 -31 -30 -28 -26 -26 -25 -24 -22 -22 -22 -21 -20 -19 -19 -19 -19 -19 -20 -19 -19
-29 -29 -29 -29 -29 -29 -29 -28 -28 -28 -28 -28 -28 -28 -29 -29 -30 -30 -31 -31 -31 -29 -28 -27 -26 -24 -23 -22 -22 -20 -20 -20 -20 -20 -20 -20 -20 -20
-29 -29 -28 -28 -28 -28 -28 -28 -28 -28 -28 -28 -28 -28 -28 -29 -30 -30 -30 -31 -31 -30 -29 -27 -27 -25 -24 -23 -22 -20 -20 -20 -20 -20 -20 -20 -20 -20
-28 -28 -28 -28 -28 -28 -28 -28 -28 -29 -29 -29 -28 -28 -29 -29 -29 -30 -30 -31 -31 -31 -30 -28 -27 -26 -25 -24 -22 -21 -21 -21 -20 -21 -21 -20 -20 -20
-28 -28 -28 -28 -29 -29 -29 -29 -29 -29 -29 -29 -29 -29 -29 -29 -29 -29 -29 -30 -31 -31 -31 -28 -27 -27 -25 -24 -23 -22 -22 -21 -21 -21 -21 -21 -21 -21
-29 -28 -28 -29 -29 -29 -29 -29 -29 -29 -29 -29 -29 -29 -29 -29 -29 -29 -30 -30 -32 -32 -31 -30 -28 -27 -26 -24 -23 -22 -23 -22 -22 -21 -21 -21 -21 -21
-28 -29 -29 -29 -29 -29 -29 -29 -29 -29 -29 -29 -29 -29 -30 -29 -30 -30 -30 -30 -32 -32 -32 -32 -29 -28 -27 -26 -25 -23 -24 -22 -22 -22 -22 -23 -21 -22
-28 -29 -29 -29 -30 -29 -29 -29 -29 -29 -30 -30 -30 -30 -30 -30 -30 -30 -30 -30 -32 -33 -33 -32 -30 -28 -27 -26 -26 -25 -24 -22 -23 -22 -22 -22 -22 -22
-28 -28 -29 -29 -29 -29 -29 -29 -30 -30 -30 -31 -32 -32 -32 -32 -31 -31 -31 -32 -33 -33 -33 -33 -31 -28 -27 -27 -27 -25 -23 -23 -23 -23 -22 -22 -23 -23
-28 -28 -28 -28 -29 -29 -29 -29 -29 -30 -30 -31 -33 -34 -34 -33 -33 -33 -33 -33 -34 -34 -33 -33 -32 -30 -28 -27 -27 -26 -24 -23 -23 -24 -23 -22 -22 -24
-29 -28 -28 -28 -28 -29 -29 -29 -29 -30 -31 -32 -33 -34 -34 -34 -34 -34 -34 -34 -34 -33 -33 -33 -32 -31 -29 -28 -27 -27 -25 -24 -24 -23 -24 -23 -24 -24
-30 -29 -29 -28 -28 -28 -29 -29 -30 -30 -31 -32 -33 -34 -34 -34 -34 -34 -34 -34 -34 -34 -33 -33 -33 -32 -30 -29 -27 -27 -27 -26 -24 -24 -24 -24 -23 -24
-29 -29 -29 -29 -28 -28 -29 -30 -30 -31 -31 -31 -32 -33 -34 -34 -34 -34 -34 -34 -34 -34 -34 -34 -33 -32 -31 -29 -28 -27 -27 -26 -26 -25 -24 -24 -24 -25
-30 -30 -29 -29 -29 -29 -29 -30 -30 -30 -31 -31 -31 -31 -32 -32 -33 -34 -34 -34 -34 -34 -34 -34 -33 -33 -32 -29 -28 -27 -27 -26 -26 -26 -25 -25 -24 -24
-30 -30 -30 -30 -29 -29 -29 -29 -29 -30 -30 -30 -30 -31 -31 -31 -31 -32 -33 -34 -34 -34 -34 -34 -33 -33 -32 -29 -28 -27 -27 -26 -26 -26 -25 -25 -25 -25

GFSNE_500_temp_009.txt.gz
Temp
-25 -24 -24 -24 -24 -24 -24 -23 -22 -22 -22 -22 -21 -21 -21 -21 -20 -20 -19 -19 -19 -19 -18 -17 -17 -17 -17 -17 -16 -16 -16 -16 -16 -16 -16 -16 -16 -16
-25 -24 -24 -24 -24 -24 -24 -24 -24 -23 -22 -23 -22 -22 -22 -21 -21 -21 -20 -20 -20 -19 -19 -18 -18 -17 -17 -17 -16 -16 -16 -16 -16 -16 -16 -16 -16 -16
-25 -25 -24 -25 -24 -24 -24 -24 -24 -24 -23 -22 -23 -23 -23 -22 -22 -22 -21 -21 -21 -20 -20 -19 -19 -18 -17 -17 -17 -16 -16 -16 -16 -16 -16 -17 -17 -17
-25 -25 -25 -25 -25 -25 -25 -24 -24 -24 -23 -22 -22 -22 -22 -22 -22 -22 -22 -22 -21 -21 -20 -20 -20 -19 -18 -18 -17 -17 -16 -16 -16 -17 -17 -17 -17 -18
-25 -25 -25 -25 -25 -25 -25 -25 -25 -25 -24 -22 -22 -22 -22 -22 -22 -22 -22 -22 -22 -21 -21 -20 -20 -20 -19 -18 -18 -17 -16 -18 -18 -18 -17 -18 -17 -18
-26 -27 -27 -27 -27 -27 -26 -26 -26 -25 -25 -24 -23 -23 -22 -22 -22 -22 -21 -21 -21 -21 -21 -21 -20 -20 -20 -19 -18 -18 -18 -18 -18 -18 -18 -18 -18 -18
-28 -28 -29 -30 -30 -30 -30 -30 -29 -29 -28 -27 -25 -25 -24 -24 -24 -23 -22 -22 -21 -22 -21 -20 -20 -20 -20 -20 -19 -18 -18 -18 -18 -18 -18 -18 -18 -18
-30 -30 -31 -31 -31 -30 -30 -30 -30 -30 -30 -30 -29 -28 -28 -27 -26 -25 -24 -23 -23 -22 -22 -21 -20 -21 -20 -20 -19 -19 -18 -18 -18 -18 -17 -18 -18 -18
-31 -30 -30 -30 -30 -29 -29 -29 -29 -29 -29 -29 -29 -29 -29 -29 -29 -29 -28 -27 -26 -25 -24 -22 -21 -21 -21 -20 -20 -20 -19 -19 -19 -18 -18 -18 -18 -18
-29 -29 -29 -29 -29 -29 -29 -29 -29 -29 -29 -28 -29 -29 -28 -28 -28 -29 -29 -29 -29 -28 -28 -25 -24 -22 -21 -21 -20 -20 -21 -19 -19 -19 -19 -18 -18 -18
-29 -29 -28 -28 -28 -28 -28 -28 -28 -28 -28 -28 -28 -28 -28 -28 -28 -28 -28 -28 -28 -29 -29 -30 -28 -26 -24 -23 -22 -21 -21 -20 -19 -20 -18 -19 -19 -19
-29 -28 -28 -28 -28 -28 -28 -28 -28 -29 -29 -29 -28 -28 -28 -28 -28 -28 -29 -28 -28 -28 -29 -30 -30 -30 -28 -25 -24 -24 -23 -22 -22 -20 -20 -20 -19 -19
-28 -29 -28 -28 -28 -28 -28 -29 -29 -29 -29 -29 -29 -29 -29 -28 -29 -29 -29 -29 -29 -28 -29 -30 -31 -31 -31 -29 -27 -26 -25 -24 -23 -21 -22 -20 -20 -20
-29 -28 -29 -29 -29 -29 -29 -29 -29 -29 -29 -29 -29 -30 -30 -30 -30 -30 -29 -29 -29 -29 -30 -30 -31 -32 -32 -31 -29 -28 -27 -25 -24 -22 -22 -22 -21 -21
-29 -28 -29 -29 -29 -30 -30 -30 -29 -29 -29 -29 -29 -30 -30 -30 -30 -30 -30 -29 -29 -29 -30 -30 -31 -32 -32 -31 -29 -28 -27 -26 -24 -23 -23 -21 -21 -21
-29 -29 -29 -29 -29 -30 -30 -30 -30 -29 -29 -30 -30 -31 -31 -31 -31 -31 -30 -30 -30 -30 -30 -30 -31 -32 -33 -32 -29 -28 -28 -27 -25 -24 -23 -23 -22 -21
-29 -28 -28 -29 -29 -29 -30 -30 -30 -30 -30 -30 -30 -31 -31 -31 -32 -31 -31 -31 -31 -31 -30 -31 -32 -33 -33 -32 -30 -28 -28 -27 -26 -24 -23 -23 -23 -22
-29 -28 -27 -28 -28 -29 -29 -30 -30 -30 -31 -31 -31 -32 -33 -34 -34 -34 -33 -32 -32 -31 -30 -31 -32 -33 -33 -32 -31 -29 -28 -27 -27 -26 -24 -24 -23 -23
-29 -28 -27 -28 -28 -29 -29 -30 -30 -30 -31 -31 -33 -34 -34 -34 -34 -34 -33 -32 -31 -31 -30 -32 -33 -33 -33 -33 -31 -29 -28 -28 -27 -26 -25 -24 -24 -23
-30 -29 -28 -28 -28 -29 -29 -29 -30 -31 -31 -31 -33 -34 -34 -34 -34 -34 -33 -33 -32 -32 -32 -33 -34 -33 -33 -33 -32 -31 -29 -28 -28 -27 -25 -25 -24 -24
-30 -29 -29 -29 -29 -29 -29 -29 -30 -30 -31 -31 -31 -32 -33 -34 -34 -34 -34 -33 -33 -34 -34 -34 -34 -34 -33 -33 -32 -32 -31 -29 -29 -27 -25 -26 -25 -25
-30 -29 -29 -29 -29 -29 -29 -29 -30 -30 -30 -30 -30 -31 -32 -32 -33 -34 -35 -34 -35 -34 -34 -34 -34 -34 -34 -33 -33 -32 -31 -29 -28 -27 -26 -26 -25 -25
-31 -30 -30 -30 -29 -29 -29 -30 -30 -30 -30 -30 -30 -30 -30 -31 -32 -33 -34 -34 -34 -34 -34 -34 -34 -34 -34 -34 -33 -32 -31 -29 -28 -27 -27 -27 -26 -26

GFSNE_500_temp_012.txt.gz
Temp
-26 -26 -25 -25 -25 -25 -25 -25 -24 -23 -23 -23 -23 -22 -22 -21 -20 -20 -20 -19 -19 -19 -19 -18 -18 -18 -18 -17 -17 -17 -15 -15 -15 -16 -15 -15 -15 -16
-26 -26 -26 -26 -26 -25 -25 -25 -25 -24 -23 -23 -24 -23 -22 -22 -22 -21 -20 -20 -20 -19 -19 -19 -19 -18 -18 -18 -17 -18 -16 -16 -15 -16 -16 -16 -16 -16
-26 -26 -26 -26 -26 -25 -25 -25 -25 -24 -23 -23 -23 -24 -23 -23 -22 -22 -21 -21 -21 -20 -20 -19 -19 -19 -18 -18 -18 -17 -18 -16 -16 -16 -16 -16 -16 -16
-26 -26 -26 -26 -25 -25 -25 -25 -24 -24 -24 -23 -23 -23 -23 -24 -23 -22 -22 -21 -21 -21 -20 -20 -19 -19 -19 -19 -18 -18 -17 -17 -16 -17 -16 -16 -16 -16
-26 -26 -26 -26 -26 -26 -25 -25 -25 -24 -24 -23 -23 -23 -23 -23 -24 -23 -23 -22 -22 -21 -21 -20 -20 -19 -19 -19 -19 -18 -18 -17 -17 -17 -16 -17 -16 -16
-27 -27 -27 -27 -27 -27 -26 -26 -26 -25 -25 -24 -23 -23 -23 -23 -23 -23 -23 -23 -22 -22 -22 -21 -20 -20 -19 -19 -19 -19 -18 -18 -17 -17 -17 -17 -17 -17
-27 -28 -28 -28 -29 -29 -29 -29 -29 -28 -27 -26 -25 -25 -24 -23 -23 -23 -23 -23 -23 -23 -22 -22 -22 -21 -20 -20 -19 -19 -19 -19 -18 -18 -17 -17 -17 -17
-28 -30 -31 -30 -31 -31 -31 -31 -31 -30 -30 -29 -28 -27 -26 -26 -25 -23 -23 -23 -23 -23 -23 -22 -22 -22 -21 -21 -20 -20 -19 -19 -19 -19 -18 -17 -17 -18
-30 -30 -30 -30 -30 -30 -30 -30 -30 -30 -30 -30 -29 -29 -30 -30 -28 -26 -25 -24 -23 -23 -23 -22 -22 -22 -22 -21 -21 -21 -20 -20 -19 -19 -19 -18 -17 -17
-29 -29 -29 -29 -29 -29 -29 -29 -29 -29 -29 -29 -29 -29 -29 -30 -30 -30 -28 -26 -25 -24 -24 -23 -22 -22 -22 -22 -22 -21 -21 -20 -20 -19 -19 -19 -19 -18
-29 -29 -29 -29 -29 -29 -28 -28 -28 -28 -29 -28 -28 -28 -29 -29 -29 -29 -29 -29 -29 -27 -26 -25 -24 -23 -23 -22 -22 -21 -21 -21 -21 -20 -19 -19 -19 -19
-29 -29 -29 -29 -29 -29 -29 -29 -28 -29 -29 -29 -28 -28 -28 -29 -29 -29 -29 -28 -29 -29 -29 -28 -27 -27 -26 -25 -24 -22 -21 -21 -21 -21 -20 -20 -19 -20
-29 -29 -29 -29 -29 -29 -29 -29 -29 -29 -29 -29 -29 -29 -29 -29 -29 -29 -28 -28 -28 -28 -28 -28 -28 -29 -29 -29 -28 -25 -23 -22 -21 -21 -20 -20 -20 -19
-29 -29 -28 -28 -28 -29 -29 -29 -30 -30 -30 -30 -30 -30 -29 -29 -29 -29 -29 -29 -29 -28 -28 -28 -28 -28 -29 -29 -29 -29 -27 -24 -22 -21 -21 -20 -20 -20
-29 -29 -29 -29 -29 -29 -30 -30 -30 -30 -30 -30 -30 -30 -30 -30 -30 -30 -30 -29 -29 -29 -28 -28 -28 -28 -28 -28 -29 -29 -29 -28 -25 -23 -22 -21 -20 -20
-30 -29 -29 -28 -29 -29 -29 -30 -30 -30 -30 -30 -30 -30 -30 -30 -30 -31 -30 -30 -30 -30 -29 -29 -28 -29 -29 -29 -29 -29 -29 -30 -30 -27 -25 -23 -22 -22
-30 -28 -28 -28 -28 -29 -29 -30 -30 -30 -30 -30 -30 -31 -31 -31 -31 -31 -31 -31 -31 -30 -30 -30 -29 -29 -29 -30 -30 -29 -30 -31 -31 -30 -29 -27 -25 -23
-29 -29 -28 -28 -28 -29 -29 -29 -30 -30 -31 -31 -32 -32 -33 -33 -33 -32 -32 -32 -31 -31 -31 -30 -30 -30 -30 -30 -30 -29 -30 -31 -31 -30 -29 -28 -28 -25
-30 -30 -29 -28 -28 -29 -29 -30 -30 -31 -31 -31 -32 -33 -34 -34 -34 -35 -35 -35 -34 -32 -31 -31 -31 -31 -31 -31 -31 -30 -31 -31 -31 -29 -28 -27 -27 -27
-31 -30 -29 -28 -28 -29 -29 -30 -30 -30 -30 -30 -31 -32 -34 -34 -34 -34 -35 -34 -34 -33 -32 -32 -32 -31 -31 -32 -31 -31 -32 -31 -31 -30 -29 -28 -28 -27
-30 -30 -30 -29 -29 -29 -29 -29 -30 -30 -30 -30 -30 -31 -32 -33 -34 -34 -34 -34 -34 -33 -33 -32 -32 -32 -32 -32 -33 -33 -33 -32 -32 -31 -29 -28 -27 -26
-31 -30 -30 -30 -30 -30 -30 -30 -30 -30 -30 -30 -30 -31 -31 -32 -33 -34 -34 -34 -34 -34 -33 -33 -33 -33 -33 -34 -34 -34 -33 -33 -32 -31 -30 -28 -27 -26
-31 -30 -30 -30 -30 -30 -30 -30 -30 -30 -30 -30 -30 -30 -31 -32 -32 -33 -34 -34 -34 -34 -34 -34 -34 -34 -34 -34 -34 -34 -33 -33 -32 -31 -30 -29 -28 -27

GFSNE_500_temp_015.txt.gz
Temp
-26 -25 -26 -26 -26 -26 -26 -26 -26 -24 -24 -25 -24 -24 -24 -24 -24 -23 -22 -21 -20 -20 -19 -19 -20 -19 -19 -18 -17 -17 -16 -16 -16 -15 -15 -15 -15 -15
-26 -26 -26 -26 -26 -26 -26 -26 -26 -26 -25 -25 -25 -25 -25 -24 -24 -24 -22 -22 -21 -20 -20 -19 -20 -19 -19 -19 -19 -19 -19 -18 -16 -16 -15 -15 -15 -15
-27 -27 -27 -27 -27 -27 -27 -27 -26 -26 -25 -25 -25 -25 -25 -25 -24 -24 -24 -23 -22 -21 -21 -20 -20 -19 -19 -19 -19 -19 -19 -19 -17 -16 -16 -16 -16 -16
-27 -27 -27 -27 -27 -27 -27 -26 -26 -26 -25 -25 -25 -24 -24 -25 -25 -25 -24 -23 -23 -22 -22 -21 -20 -20 -19 -19 -19 -19 -19 -19 -19 -19 -16 -16 -16 -16
-27 -27 -27 -27 -27 -27 -26 -26 -26 -25 -25 -25 -24 -24 -24 -24 -24 -24 -24 -24 -23 -23 -23 -22 -21 -20 -20 -19 -19 -19 -19 -19 -19 -19 -18 -17 -16 -16
-27 -27 -27 -27 -27 -27 -27 -27 -27 -26 -26 -26 -25 -25 -24 -24 -24 -24 -24 -24 -24 -24 -23 -23 -22 -21 -20 -20 -19 -19 -19 -19 -19 -19 -19 -18 -17 -17
-28 -28 -28 -27 -27 -27 -28 -28 -29 -29 -28 -28 -27 -26 -26 -25 -24 -24 -23 -24 -24 -24 -24 -23 -23 -22 -21 -21 -20 -20 -20 -19 -19 -19 -19 -18 -18 -17
-28 -28 -28 -29 -30 -30 -30 -30 -30 -30 -30 -30 -30 -29 -28 -27 -26 -25 -24 -24 -24 -24 -24 -24 -23 -23 -22 -22 -21 -21 -20 -20 -19 -19 -19 -19 -18 -19
-28 -28 -29 -30 -30 -30 -30 -30 -29 -29 -29 -30 -30 -30 -30 -30 -29 -28 -26 -25 -24 -24 -24 -23 -24 -23 -23 -23 -22 -21 -21 -20 -20 -19 -19 -19 -19 -19
-29 -30 -30 -29 -29 -29 -29 -29 -29 -29 -29 -29 -29 -29 -29 -29 -29 -30 -29 -27 -26 -25 -24 -23 -23 -23 -23 -23 -23 -22 -21 -21 -21 -20 -20 -19 -19 -19
-30 -30 -29 -29 -29 -29 -29 -29 -29 -29 -29 -28 -28 -28 -28 -29 -29 -29 -29 -29 -29 -28 -27 -25 -24 -23 -23 -23 -23 -23 -23 -22 -21 -21 -20 -20 -19 -19
-30 -29 -29 -29 -29 -29 -29 -29 -29 -29 -29 -29 -29 -29 -28 -28 -29 -29 -29 -29 -29 -29 -30 -28 -26 -25 -24 -23 -23 -23 -23 -23 -23 -22 -21 -20 -20 -19
-30 -30 -30 -29 -29 -28 -29 -29 -30 -30 -30 -30 -30 -29 -29 -29 -29 -29 -29 -28 -28 -28 -29 -30 -29 -27 -25 -25 -24 -24 -23 -23 -23 -23 -22 -21 -21 -20
-30 -30 -29 -28 -28 -29 -29 -30 -30 -30 -30 -30 -30 -30 -30 -30 -30 -29 -29 -29 -29 -29 -29 -29 -29 -29 -29 -28 -27 -26 -24 -24 -23 -23 -22 -22 -21 -20
-30 -29 -28 -29 -29 -29 -29 -29 -30 -30 -30 -30 -30 -31 -30 -30 -30 -30 -30 -29 -29 -29 -29 -29 -28 -29 -28 -29 -29 -29 -28 -26 -25 -24 -23 -22 -22 -21
-30 -30 -29 -29 -28 -28 -29 -30 -30 -30 -30 -30 -30 -31 -31 -30 -30 -30 -30 -30 -30 -30 -29 -29 -29 -29 -28 -28 -28 -29 -29 -29 -28 -27 -26 -24 -23 -22
-31 -30 -29 -29 -28 -28 -29 -29 -30 -30 -30 -31 -31 -31 -31 -31 -32 -31 -31 -31 -31 -30 -30 -30 -30 -29 -29 -29 -28 -29 -29 -28 -28 -28 -28 -28 -26 -24
-31 -30 -29 -29 -28 -29 -29 -29 -29 -30 -30 -30 -31 -31 -32 -33 -33 -33 -33 -32 -32 -31 -31 -31 -31 -30 -30 -29 -29 -29 -29 -29 -29 -28 -28 -28 -28 -28
-31 -31 -30 -29 -29 -29 -29 -29 -29 -29 -29 -30 -30 -31 -32 -33 -34 -33 -34 -34 -34 -33 -32 -31 -31 -31 -30 -30 -30 -30 -30 -29 -29 -29 -28 -28 -28 -28
-31 -31 -30 -30 -29 -29 -29 -29 -29 -29 -29 -29 -30 -31 -32 -33 -34 -34 -34 -35 -35 -35 -34 -33 -32 -31 -31 -31 -31 -31 -30 -30 -29 -29 -29 -28 -28 -30
-32 -31 -31 -31 -30 -29 -29 -29 -30 -30 -30 -30 -30 -31 -32 -33 -34 -34 -35 -35 -35 -35 -34 -34 -33 -32 -32 -32 -31 -31 -31 -30 -30 -30 -30 -29 -30 -30
-32 -31 -31 -31 -30 -30 -30 -30 -30 -30 -30 -30 -30 -30 -31 -31 -32 -34 -34 -34 -34 -34 -34 -34 -33 -33 -32 -32 -32 -32 -31 -31 -30 -31 -31 -31 -30 -30
-32 -32 -31 -31 -30 -30 -30 -30 -30 -30 -30 -30 -30 -30 -31 -31 -31 -32 -32 -33 -34 -34 -34 -34 -33 -33 -32 -32 -32 -32 -32 -32 -32 -32 -31 -31 -30 -30

GFSNE_500_temp_021.txt.gz
Temp
-24 -24 -25 -26 -25 -26 -26 -26 -25 -25 -25 -25 -25 -25 -25 -25 -25 -25 -24 -24 -24 -23 -22 -20 -19 -19 -18 -18 -18 -18 -18 -17 -17 -18 -17 -17 -16 -15
-26 -27 -28 -27 -27 -27 -26 -26 -26 -26 -26 -26 -26 -26 -26 -26 -26 -26 -26 -25 -24 -24 -23 -23 -21 -20 -19 -19 -19 -18 -18 -18 -18 -18 -17 -17 -17 -16
-28 -28 -28 -28 -28 -28 -27 -27 -27 -27 -26 -26 -26 -26 -26 -26 -26 -26 -26 -26 -25 -25 -24 -24 -24 -23 -21 -20 -19 -19 -19 -19 -18 -18 -18 -18 -17 -17
-29 -29 -29 -29 -29 -28 -28 -28 -28 -27 -27 -27 -27 -27 -26 -26 -26 -26 -26 -26 -26 -26 -25 -25 -25 -24 -24 -23 -21 -20 -21 -20 -19 -18 -18 -18 -18 -17
-29 -29 -29 -29 -29 -29 -28 -28 -28 -28 -28 -27 -27 -27 -26 -26 -26 -26 -26 -26 -26 -26 -26 -26 -26 -25 -24 -24 -23 -22 -21 -22 -21 -19 -19 -18 -18 -18
-29 -29 -29 -29 -29 -29 -29 -28 -28 -28 -27 -27 -27 -27 -27 -27 -26 -26 -26 -26 -26 -26 -26 -26 -26 -26 -25 -24 -24 -23 -22 -22 -22 -21 -20 -19 -18 -18
-30 -29 -29 -29 -29 -28 -28 -28 -27 -27 -27 -27 -27 -27 -27 -27 -27 -27 -27 -26 -26 -26 -25 -25 -26 -26 -25 -25 -24 -24 -23 -23 -22 -22 -21 -20 -19 -19
-30 -30 -29 -29 -29 -29 -28 -28 -28 -28 -28 -28 -28 -28 -29 -29 -29 -29 -29 -28 -27 -26 -26 -26 -26 -25 -25 -25 -25 -24 -24 -23 -23 -22 -21 -20 -20 -19
-30 -29 -29 -29 -29 -29 -29 -28 -28 -29 -29 -29 -29 -29 -29 -29 -29 -29 -29 -30 -30 -30 -28 -27 -27 -26 -25 -25 -25 -24 -24 -24 -23 -23 -22 -21 -20 -20
-30 -30 -29 -29 -29 -29 -29 -29 -29 -29 -29 -29 -29 -29 -29 -29 -29 -29 -29 -29 -29 -30 -30 -30 -28 -27 -26 -25 -25 -25 -24 -24 -24 -23 -23 -22 -20 -19
-30 -30 -29 -29 -29 -29 -29 -30 -29 -29 -29 -29 -29 -29 -29 -29 -29 -29 -29 -29 -29 -29 -30 -30 -31 -29 -27 -26 -25 -25 -24 -24 -24 -24 -23 -22 -22 -20
-31 -30 -30 -30 -30 -30 -29 -29 -29 -29 -30 -30 -30 -30 -29 -30 -30 -29 -29 -29 -29 -29 -29 -29 -30 -31 -29 -27 -26 -25 -24 -24 -24 -24 -24 -23 -22 -21
-31 -31 -30 -31 -30 -29 -29 -29 -29 -29 -30 -30 -30 -30 -30 -30 -30 -30 -30 -30 -29 -29 -29 -29 -29 -30 -30 -29 -28 -26 -25 -25 -24 -24 -24 -24 -23 -22
-32 -32 -32 -31 -30 -29 -29 -29 -29 -29 -29 -30 -30 -31 -31 -31 -31 -30 -30 -30 -30 -30 -30 -29 -29 -29 -30 -30 -30 -28 -26 -25 -25 -24 -24 -24 -24 -23
-33 -33 -32 -31 -30 -29 -29 -30 -29 -29 -29 -30 -30 -30 -31 -31 -31 -31 -31 -31 -31 -31 -31 -30 -29 -29 -29 -30 -30 -30 -28 -27 -26 -25 -24 -24 -24 -24
-33 -32 -32 -31 -30 -30 -30 -30 -29 -29 -29 -29 -30 -30 -31 -31 -31 -32 -32 -32 -32 -31 -31 -31 -30 -30 -30 -30 -30 -30 -29 -29 -27 -26 -25 -24 -24 -23
-33 -32 -32 -31 -30 -30 -30 -30 -30 -29 -29 -29 -29 -29 -30 -31 -32 -32 -33 -33 -33 -32 -32 -31 -31 -31 -30 -30 -30 -30 -29 -29 -29 -28 -26 -25 -24 -24
-33 -33 -32 -31 -31 -30 -30 -30 -30 -29 -29 -29 -29 -29 -30 -30 -31 -32 -33 -33 -33 -33 -32 -32 -32 -31 -31 -30 -30 -30 -30 -29 -29 -30 -29 -28 -26 -25
-33 -33 -32 -31 -31 -31 -31 -30 -30 -29 -29 -29 -29 -29 -30 -30 -31 -32 -33 -33 -33 -33 -34 -33 -33 -32 -32 -31 -31 -30 -30 -30 -30 -29 -30 -30 -29 -28
-33 -32 -32 -32 -31 -31 -31 -30 -30 -30 -29 -29 -29 -29 -30 -30 -30 -31 -32 -33 -33 -34 -34 -35 -34 -33 -32 -32 -31 -31 -31 -30 -30 -30 -30 -29 -29 -29
-33 -33 -32 -32 -32 -32 -31 -31 -30 -30 -30 -30 -30 -30 -30 -30 -30 -31 -31 -32 -33 -33 -34 -34 -35 -35 -33 -32 -32 -32 -32 -31 -31 -30 -30 -30 -29 -29
-33 -33 -32 -32 -32 -32 -31 -31 -31 -30 -30 -30 -30 -30 -30 -30 -30 -31 -31 -32 -32 -33 -33 -34 -34 -35 -34 -33 -33 -32 -32 -32 -31 -31 -30 -30 -30 -30
-33 -33 -33 -32 -32 -32 -32 -31 -31 -31 -30 -30 -30 -30 -30 -30 -31 -31 -31 -31 -32 -32 -33 -33 -34 -34 -34 -34 -33 -32 -32 -32 -32 -31 -31 -31 -30 -30

GFSNE_500_temp_024.txt.gz
Temp
-25 -25 -25 -26 -26 -27 -27 -27 -26 -26 -26 -25 -25 -24 -24 -25 -24 -24 -24 -24 -23 -23 -22 -21 -20 -19 -19 -19 -18 -18 -17 -17 -17 -16 -16 -16 -16 -16
-28 -28 -28 -29 -29 -28 -28 -28 -27 -27 -26 -26 -26 -26 -25 -25 -25 -25 -24 -25 -25 -24 -24 -23 -23 -21 -20 -19 -19 -18 -18 -18 -17 -17 -16 -16 -16 -16
-30 -29 -29 -29 -29 -29 -28 -28 -27 -27 -27 -27 -27 -27 -27 -26 -26 -25 -25 -25 -25 -24 -24 -24 -24 -23 -22 -20 -19 -19 -19 -18 -18 -17 -17 -16 -16 -16
-30 -30 -30 -30 -29 -29 -29 -29 -29 -28 -27 -27 -27 -27 -27 -27 -27 -26 -26 -26 -26 -26 -25 -25 -25 -24 -23 -22 -21 -20 -19 -19 -19 -19 -18 -16 -16 -16
-30 -30 -30 -30 -30 -30 -30 -29 -29 -29 -28 -28 -28 -28 -28 -27 -27 -27 -27 -26 -26 -26 -26 -25 -25 -25 -24 -24 -23 -22 -20 -20 -19 -19 -19 -18 -17 -16
-30 -30 -30 -30 -30 -30 -29 -29 -29 -29 -29 -28 -28 -28 -28 -27 -27 -27 -27 -27 -26 -26 -26 -26 -26 -26 -25 -25 -25 -24 -23 -21 -20 -20 -20 -20 -19 -17
-31 -30 -30 -30 -30 -30 -29 -29 -29 -29 -28 -28 -28 -28 -28 -27 -27 -27 -27 -27 -26 -26 -26 -26 -26 -26 -26 -25 -25 -25 -24 -24 -22 -22 -21 -21 -20 -19
-31 -30 -30 -30 -30 -30 -29 -29 -29 -29 -29 -28 -28 -28 -28 -28 -28 -28 -27 -27 -27 -27 -27 -26 -26 -25 -25 -25 -25 -25 -25 -24 -24 -23 -23 -23 -22 -21
-31 -30 -30 -30 -30 -29 -29 -29 -29 -29 -28 -29 -28 -28 -29 -29 -29 -29 -29 -29 -29 -29 -28 -27 -27 -26 -26 -26 -25 -25 -25 -25 -24 -24 -24 -23 -23 -23
-31 -30 -30 -30 -30 -29 -29 -29 -29 -29 -29 -29 -29 -29 -29 -29 -29 -29 -29 -29 -29 -29 -29 -29 -29 -29 -29 -27 -26 -25 -25 -25 -25 -24 -24 -24 -24 -23
-32 -31 -30 -30 -30 -30 -29 -30 -30 -30 -29 -29 -29 -29 -29 -29 -30 -30 -29 -29 -29 -29 -29 -29 -29 -29 -29 -29 -28 -27 -26 -25 -25 -25 -25 -24 -24 -24
-33 -32 -31 -30 -30 -30 -30 -30 -30 -29 -29 -29 -30 -30 -30 -30 -30 -30 -30 -30 -30 -30 -30 -29 -29 -29 -29 -29 -29 -29 -27 -26 -25 -25 -25 -25 -25 -24
-34 -33 -32 -31 -31 -30 -30 -30 -29 -29 -29 -29 -29 -30 -30 -30 -30 -30 -30 -30 -30 -30 -30 -30 -29 -29 -29 -29 -29 -30 -29 -27 -26 -25 -25 -25 -25 -25
-34 -34 -33 -32 -31 -31 -30 -30 -29 -30 -29 -29 -30 -30 -30 -30 -30 -30 -31 -31 -31 -31 -31 -30 -30 -30 -29 -29 -29 -29 -30 -29 -27 -25 -25 -25 -25 -25
-35 -34 -34 -33 -32 -31 -31 -29 -30 -30 -29 -29 -29 -29 -30 -30 -30 -31 -31 -31 -31 -31 -31 -31 -31 -30 -29 -30 -30 -30 -30 -30 -29 -27 -25 -25 -25 -25
-34 -34 -33 -32 -32 -31 -30 -30 -30 -29 -29 -29 -29 -29 -29 -29 -29 -30 -31 -32 -32 -32 -32 -32 -31 -31 -30 -30 -30 -30 -30 -30 -30 -29 -27 -25 -25 -25
-34 -33 -33 -32 -31 -31 -30 -30 -30 -30 -29 -29 -29 -29 -29 -29 -29 -29 -31 -32 -33 -33 -33 -32 -32 -31 -31 -31 -31 -30 -30 -30 -30 -30 -29 -27 -26 -25
-33 -33 -33 -32 -32 -31 -31 -30 -30 -30 -29 -29 -29 -29 -29 -29 -29 -29 -30 -32 -33 -33 -33 -33 -32 -32 -32 -31 -31 -31 -30 -29 -29 -30 -30 -29 -28 -26
-33 -33 -33 -32 -32 -31 -31 -31 -30 -30 -30 -30 -29 -29 -29 -29 -30 -30 -30 -31 -32 -33 -33 -33 -34 -33 -32 -32 -32 -31 -31 -30 -29 -29 -29 -30 -29 -28
-33 -33 -33 -32 -32 -32 -31 -31 -31 -30 -30 -30 -30 -30 -30 -30 -30 -30 -30 -30 -31 -32 -33 -33 -34 -34 -34 -33 -32 -32 -31 -31 -30 -30 -30 -30 -29 -30
-33 -33 -33 -32 -32 -32 -31 -31 -31 -31 -30 -30 -30 -30 -30 -30 -30 -30 -30 -30 -31 -31 -33 -33 -34 -35 -35 -34 -33 -32 -31 -31 -31 -30 -30 -30 -30 -30
-33 -33 -33 -32 -32 -32 -32 -31 -31 -31 -31 -31 -30 -30 -30 -30 -30 -30 -30 -31 -31 -31 -32 -33 -34 -34 -35 -34 -33 -32 -32 -31 -31 -31 -30 -30 -30 -30
-33 -33 -33 -33 -32 -32 -32 -31 -31 -31 -31 -31 -31 -30 -30 -30 -30 -31 -31 -31 -31 -31 -31 -32 -32 -33 -34 -34 -33 -33 -32 -32 -32 -31 -31 -31 -31 -30

GFSNE_500_temp_027.txt.gz
Temp
-27 -27 -27 -28 -28 -28 -28 -28 -28 -28 -28 -27 -27 -27 -26 -26 -24 -24 -24 -24 -23 -23 -23 -22 -22 -21 -20 -20 -20 -19 -19 -19 -18 -18 -17 -17 -16 -16
-29 -29 -29 -30 -30 -30 -30 -29 -29 -29 -28 -28 -28 -27 -27 -26 -26 -26 -25 -25 -24 -24 -24 -24 -23 -22 -22 -21 -20 -20 -20 -19 -19 -18 -18 -17 -17 -16
-31 -31 -31 -31 -30 -30 -30 -30 -29 -29 -28 -28 -28 -28 -27 -27 -27 -27 -26 -26 -25 -25 -25 -25 -24 -24 -23 -22 -21 -20 -20 -20 -19 -19 -18 -18 -17 -17
-31 -31 -31 -31 -31 -30 -30 -30 -30 -29 -29 -28 -28 -28 -28 -28 -27 -27 -27 -26 -26 -26 -25 -25 -25 -25 -25 -24 -22 -22 -21 -20 -20 -19 -19 -19 -18 -17
-31 -31 -31 -31 -31 -31 -30 -30 -30 -30 -30 -29 -29 -29 -28 -28 -28 -27 -27 -27 -27 -26 -26 -25 -25 -25 -25 -25 -24 -23 -22 -22 -21 -20 -20 -19 -19 -18
-31 -31 -31 -31 -31 -31 -30 -30 -30 -30 -30 -29 -29 -29 -28 -28 -28 -28 -28 -28 -27 -27 -27 -26 -26 -25 -25 -25 -25 -24 -24 -23 -22 -21 -20 -20 -20 -19
-31 -31 -31 -31 -31 -31 -31 -30 -30 -30 -30 -30 -29 -29 -29 -29 -29 -28 -28 -28 -28 -27 -27 -27 -26 -26 -25 -25 -25 -25 -25 -24 -24 -23 -22 -21 -20 -20
-31 -31 -31 -31 -31 -31 -31 -30 -30 -30 -30 -30 -29 -29 -29 -29 -28 -28 -28 -28 -27 -27 -27 -27 -27 -27 -27 -26 -26 -26 -26 -25 -25 -24 -23 -22 -21 -21
-32 -32 -32 -31 -31 -31 -30 -30 -30 -30 -30 -29 -29 -29 -29 -29 -28 -28 -28 -28 -28 -28 -27 -27 -27 -26 -26 -26 -26 -26 -26 -26 -25 -25 -25 -25 -24 -22
-34 -33 -33 -32 -32 -31 -30 -30 -30 -30 -30 -29 -29 -29 -29 -29 -29 -29 -29 -29 -29 -29 -29 -28 -28 -27 -27 -27 -26 -26 -26 -26 -25 -25 -25 -25 -25 -24
-35 -35 -35 -34 -33 -31 -30 -30 -30 -30 -30 -29 -29 -29 -29 -29 -29 -29 -29 -29 -29 -29 -29 -29 -29 -29 -29 -28 -28 -28 -27 -26 -26 -25 -25 -25 -25 -25
-35 -35 -35 -34 -33 -32 -31 -30 -30 -30 -30 -30 -30 -30 -30 -30 -30 -30 -30 -30 -30 -30 -30 -29 -29 -28 -28 -28 -29 -28 -29 -29 -28 -26 -26 -25 -25 -25
-36 -36 -35 -34 -34 -33 -32 -31 -31 -30 -30 -30 -30 -30 -30 -30 -30 -30 -30 -30 -30 -30 -31 -30 -30 -30 -29 -29 -29 -29 -29 -29 -29 -29 -27 -26 -25 -25
-36 -36 -35 -35 -34 -33 -32 -32 -31 -30 -30 -29 -30 -30 -30 -29 -29 -30 -30 -30 -31 -31 -31 -31 -31 -31 -30 -30 -29 -29 -29 -29 -29 -29 -29 -28 -26 -25
-36 -35 -35 -35 -34 -33 -32 -31 -30 -30 -30 -30 -29 -29 -29 -28 -28 -28 -29 -29 -30 -31 -32 -32 -32 -31 -31 -30 -30 -30 -29 -29 -28 -29 -30 -29 -28 -26
-35 -35 -34 -34 -33 -32 -32 -31 -30 -30 -30 -30 -29 -29 -29 -28 -28 -28 -28 -28 -29 -31 -32 -33 -33 -32 -32 -31 -31 -30 -30 -29 -29 -29 -30 -30 -29 -28
-34 -34 -33 -33 -32 -32 -31 -31 -30 -30 -30 -30 -29 -29 -29 -29 -29 -29 -28 -28 -29 -31 -32 -33 -33 -33 -32 -32 -31 -31 -30 -30 -29 -29 -30 -31 -30 -29
-34 -33 -33 -33 -32 -32 -31 -31 -31 -30 -30 -30 -30 -30 -29 -29 -29 -29 -29 -29 -29 -30 -32 -32 -32 -33 -33 -32 -32 -31 -31 -31 -30 -30 -30 -31 -31 -30
-34 -33 -33 -33 -32 -32 -32 -31 -31 -31 -30 -30 -30 -30 -30 -29 -29 -29 -29 -30 -30 -30 -31 -32 -32 -33 -34 -33 -32 -32 -32 -31 -31 -30 -30 -30 -31 -31
-33 -33 -33 -33 -32 -32 -32 -31 -31 -31 -31 -31 -30 -30 -30 -30 -30 -30 -30 -30 -30 -30 -30 -31 -33 -33 -35 -35 -33 -33 -32 -32 -31 -31 -30 -30 -30 -30
-33 -33 -33 -33 -32 -32 -32 -32 -31 -31 -31 -31 -31 -30 -30 -30 -30 -30 -30 -30 -30 -30 -30 -31 -32 -33 -35 -35 -34 -33 -32 -32 -31 -31 -31 -30 -30 -30
-33 -33 -33 -33 -32 -32 -32 -32 -31 -31 -31 -31 -31 -31 -31 -30 -30 -30 -30 -30 -31 -31 -31 -31 -31 -32 -33 -35 -35 -33 -33 -32 -31 -31 -31 -31 -30 -30
-33 -33 -33 -33 -33 -32 -32 -32 -32 -31 -31 -31 -31 -31 -31 -31 -31 -31 -31 -31 -31 -31 -31 -31 -31 -31 -32 -33 -34 -33 -33 -32 -32 -31 -31 -31 -31 -31

GFSNE_500_temp_030.txt.gz
Temp
-28 -28 -28 -29 -29 -30 -30 -30 -30 -30 -29 -28 -28 -28 -27 -27 -26 -25 -26 -25 -24 -22 -23 -23 -23 -23 -22 -21 -20 -20 -20 -20 -19 -19 -18 -18 -17 -17
-30 -30 -31 -30 -30 -31 -31 -31 -31 -30 -30 -30 -29 -29 -29 -28 -28 -27 -26 -26 -26 -25 -24 -24 -24 -23 -23 -22 -22 -21 -21 -20 -20 -20 -19 -19 -18 -18
-30 -30 -31 -31 -31 -31 -31 -31 -31 -31 -30 -30 -30 -29 -29 -29 -29 -28 -28 -27 -27 -26 -26 -26 -25 -24 -24 -24 -23 -22 -22 -22 -21 -20 -20 -19 -19 -18
-30 -31 -31 -31 -31 -31 -31 -31 -31 -31 -31 -30 -30 -30 -29 -29 -29 -29 -29 -28 -28 -28 -27 -27 -26 -26 -25 -25 -24 -24 -23 -23 -22 -21 -21 -20 -20 -19
-31 -31 -31 -31 -31 -31 -31 -31 -31 -31 -31 -31 -30 -30 -30 -29 -29 -29 -29 -28 -28 -28 -28 -27 -27 -26 -26 -26 -25 -25 -24 -24 -23 -23 -22 -22 -21 -20
-31 -31 -31 -31 -31 -31 -31 -31 -31 -31 -31 -31 -30 -30 -30 -30 -29 -29 -29 -29 -28 -28 -28 -27 -27 -27 -27 -26 -26 -26 -25 -25 -24 -24 -23 -22 -22 -22
-31 -32 -32 -32 -32 -31 -31 -31 -31 -31 -31 -31 -31 -30 -30 -30 -30 -29 -29 -29 -29 -28 -28 -28 -28 -27 -27 -27 -26 -26 -26 -25 -25 -25 -24 -23 -23 -23
-32 -33 -33 -33 -33 -33 -32 -32 -31 -31 -31 -31 -31 -30 -30 -30 -30 -29 -29 -29 -29 -28 -28 -28 -28 -28 -27 -27 -27 -27 -26 -26 -25 -25 -25 -25 -24 -23
-34 -34 -34 -35 -35 -34 -33 -32 -32 -31 -31 -31 -30 -30 -30 -30 -30 -29 -29 -29 -28 -28 -28 -28 -28 -28 -28 -28 -28 -27 -27 -26 -26 -25 -25 -25 -24 -24
-35 -35 -35 -35 -35 -35 -34 -33 -32 -31 -31 -30 -30 -30 -30 -30 -29 -29 -29 -29 -29 -29 -29 -28 -28 -28 -28 -27 -27 -27 -27 -27 -27 -26 -26 -25 -25 -24
-35 -36 -36 -35 -35 -35 -34 -34 -33 -32 -31 -30 -30 -30 -30 -30 -30 -30 -30 -29 -29 -29 -29 -29 -29 -28 -28 -28 -28 -27 -27 -27 -26 -26 -26 -26 -26 -26
-35 -36 -36 -35 -35 -35 -35 -34 -33 -31 -31 -30 -30 -30 -30 -30 -30 -30 -30 -30 -30 -30 -30 -29 -29 -29 -29 -29 -29 -29 -29 -29 -28 -27 -26 -26 -26 -26
-35 -36 -36 -36 -36 -35 -35 -34 -33 -32 -31 -30 -30 -30 -30 -30 -30 -30 -30 -30 -30 -30 -30 -30 -30 -30 -30 -30 -29 -29 -29 -29 -29 -29 -29 -27 -27 -26
-35 -36 -36 -36 -35 -35 -35 -34 -33 -32 -31 -31 -30 -30 -30 -30 -30 -29 -29 -29 -29 -30 -30 -31 -31 -31 -31 -31 -30 -30 -30 -29 -29 -29 -29 -29 -29 -28
-35 -35 -35 -35 -35 -34 -34 -33 -33 -32 -31 -30 -30 -30 -29 -29 -29 -28 -28 -28 -28 -28 -29 -30 -31 -32 -32 -32 -31 -31 -31 -31 -30 -29 -29 -29 -29 -29
-35 -35 -34 -34 -34 -33 -33 -32 -32 -31 -31 -30 -30 -30 -29 -29 -29 -28 -28 -28 -28 -28 -28 -30 -31 -31 -32 -33 -32 -32 -31 -31 -30 -30 -29 -29 -29 -29
-34 -34 -34 -34 -33 -33 -33 -32 -32 -31 -30 -30 -30 -30 -29 -29 -29 -29 -29 -29 -28 -28 -29 -29 -30 -31 -32 -33 -33 -32 -32 -31 -31 -30 -30 -29 -29 -29
-34 -34 -34 -34 -33 -33 -32 -32 -32 -31 -30 -30 -30 -30 -30 -29 -29 -29 -29 -29 -29 -29 -29 -29 -30 -31 -32 -33 -33 -33 -33 -32 -31 -31 -30 -30 -29 -29
-34 -34 -33 -33 -33 -33 -32 -32 -32 -31 -31 -31 -31 -30 -30 -30 -30 -30 -29 -29 -29 -29 -29 -29 -30 -31 -32 -34 -35 -34 -33 -33 -32 -31 -30 -30 -30 -30
-34 -34 -33 -33 -33 -33 -32 -32 -32 -31 -31 -31 -31 -31 -30 -30 -30 -30 -30 -30 -30 -30 -30 -30 -30 -31 -32 -34 -35 -35 -34 -33 -32 -32 -32 -31 -31 -30
-34 -34 -33 -33 -33 -33 -32 -32 -32 -32 -31 -31 -31 -31 -31 -31 -30 -30 -30 -30 -30 -30 -30 -30 -30 -30 -31 -33 -35 -35 -34 -33 -32 -32 -32 -32 -31 -31
-33 -33 -33 -33 -33 -33 -33 -32 -32 -32 -32 -32 -31 -31 -31 -31 -31 -31 -31 -31 -31 -31 -31 -31 -31 -31 -31 -32 -34 -34 -33 -33 -32 -32 -32 -32 -31 -31
-33 -33 -33 -33 -33 -33 -33 -33 -32 -32 -32 -32 -32 -31 -31 -31 -31 -31 -31 -31 -31 -31 -31 -31 -31 -31 -31 -31 -32 -33 -33 -33 -32 -32 -32 -32 -32 -31

GFSNE_500_temp_033.txt.gz
Temp
-27 -28 -28 -29 -30 -30 -30 -30 -30 -30 -30 -30 -30 -29 -29 -28 -27 -27 -26 -25 -26 -25 -25 -25 -24 -24 -23 -22 -21 -20 -20 -21 -20 -19 -19 -18 -18 -18
-30 -31 -31 -31 -31 -31 -31 -30 -31 -30 -30 -31 -31 -30 -30 -30 -29 -29 -28 -26 -26 -27 -26 -26 -25 -25 -25 -24 -23 -21 -20 -20 -21 -21 -20 -19 -19 -18
-31 -31 -31 -31 -31 -31 -31 -31 -31 -31 -30 -31 -31 -31 -31 -30 -30 -30 -30 -28 -28 -28 -27 -27 -26 -26 -25 -25 -24 -24 -23 -21 -21 -21 -21 -20 -20 -19
-31 -31 -31 -31 -31 -31 -31 -31 -31 -31 -31 -30 -31 -31 -31 -31 -30 -30 -30 -30 -28 -28 -27 -27 -28 -28 -27 -26 -26 -25 -25 -23 -22 -21 -21 -21 -20 -20
-31 -31 -31 -32 -31 -31 -31 -31 -31 -31 -31 -31 -31 -31 -31 -31 -31 -30 -30 -30 -30 -29 -28 -28 -28 -27 -28 -27 -26 -26 -25 -25 -23 -22 -21 -21 -21 -21
-32 -32 -32 -32 -32 -32 -32 -31 -32 -31 -32 -31 -31 -31 -31 -31 -31 -30 -30 -30 -30 -29 -29 -29 -29 -28 -28 -27 -28 -27 -26 -26 -26 -24 -23 -22 -22 -22
-32 -32 -32 -33 -33 -33 -33 -33 -33 -32 -32 -32 -31 -31 -31 -31 -31 -31 -30 -30 -30 -30 -29 -29 -29 -29 -28 -28 -28 -28 -27 -27 -26 -26 -25 -24 -23 -23
-32 -33 -34 -34 -34 -35 -34 -34 -34 -33 -33 -32 -31 -31 -31 -31 -31 -31 -30 -30 -30 -30 -29 -29 -29 -29 -28 -28 -28 -28 -28 -28 -28 -27 -26 -25 -25 -24
-33 -34 -34 -34 -34 -35 -35 -35 -35 -34 -34 -33 -31 -31 -31 -31 -31 -31 -30 -30 -30 -30 -30 -29 -29 -29 -29 -29 -28 -28 -28 -28 -27 -27 -27 -27 -26 -26
-34 -34 -34 -34 -35 -35 -36 -35 -35 -35 -34 -33 -32 -31 -30 -31 -31 -30 -30 -30 -30 -30 -30 -29 -29 -29 -29 -29 -29 -29 -28 -28 -28 -27 -27 -27 -27 -26
-34 -34 -34 -35 -35 -36 -36 -36 -35 -35 -34 -33 -32 -31 -31 -30 -30 -30 -30 -30 -30 -30 -29 -29 -29 -29 -29 -28 -28 -28 -28 -28 -28 -28 -28 -27 -27 -27
-35 -35 -35 -36 -36 -36 -36 -36 -35 -35 -34 -33 -32 -31 -30 -30 -30 -30 -30 -30 -30 -30 -30 -30 -29 -29 -29 -29 -29 -29 -28 -28 -28 -28 -28 -28 -27 -27
-35 -35 -36 -36 -36 -36 -36 -36 -35 -34 -33 -32 -31 -31 -31 -30 -30 -30 -31 -31 -30 -30 -30 -30 -30 -30 -30 -30 -30 -30 -30 -29 -29 -28 -28 -28 -27 -27
-35 -35 -35 -35 -35 -35 -35 -35 -35 -34 -33 -32 -31 -31 -31 -31 -31 -30 -30 -30 -30 -30 -29 -29 -30 -30 -30 -31 -31 -31 -30 -30 -30 -29 -29 -29 -28 -27
-35 -35 -35 -35 -34 -34 -34 -34 -34 -34 -33 -32 -31 -31 -31 -31 -30 -30 -29 -29 -29 -28 -28 -29 -29 -30 -30 -30 -31 -31 -31 -31 -31 -30 -30 -29 -29 -29
-34 -34 -34 -34 -34 -34 -34 -33 -33 -33 -32 -32 -31 -31 -30 -30 -29 -29 -29 -29 -28 -29 -29 -29 -29 -29 -29 -30 -31 -31 -32 -32 -32 -31 -31 -30 -30 -29
-34 -34 -34 -34 -34 -33 -33 -33 -32 -32 -32 -31 -31 -30 -30 -30 -29 -29 -29 -29 -29 -29 -29 -29 -29 -29 -29 -30 -31 -32 -32 -33 -33 -32 -31 -31 -31 -30
-34 -34 -34 -34 -34 -33 -33 -33 -32 -32 -31 -31 -31 -30 -30 -30 -30 -29 -29 -29 -29 -29 -29 -29 -29 -29 -30 -30 -32 -33 -34 -34 -34 -33 -32 -31 -31 -31
-34 -34 -34 -34 -33 -33 -33 -33 -32 -32 -31 -31 -31 -31 -31 -30 -30 -30 -30 -30 -30 -30 -30 -30 -30 -30 -30 -30 -32 -34 -35 -35 -34 -33 -33 -32 -31 -31
-34 -34 -34 -34 -33 -33 -33 -33 -32 -32 -32 -31 -31 -31 -31 -31 -30 -30 -30 -30 -30 -30 -30 -30 -30 -30 -30 -30 -31 -34 -36 -35 -34 -33 -33 -32 -32 -31
-34 -34 -34 -34 -33 -33 -33 -32 -32 -32 -32 -32 -31 -31 -31 -31 -31 -31 -31 -31 -31 -31 -31 -31 -31 -31 -30 -30 -31 -33 -34 -34 -33 -33 -33 -32 -32 -32
-34 -34 -34 -34 -34 -33 -33 -33 -32 -32 -32 -32 -32 -32 -31 -31 -31 -31 -31 -31 -31 -31 -31 -31 -31 -31 -31 -31 -31 -32 -33 -33 -33 -33 -32 -32 -32 -32
-34 -34 -34 -33 -33 -34 -33 -33 -33 -33 -32 -32 -32 -32 -32 -31 -31 -31 -31 -31 -31 -31 -31 -31 -32 -31 -31 -31 -31 -31 -32 -33 -32 -32 -32 -32 -32 -32

GFSNE_500_temp_036.txt.gz
Temp
-28 -28 -29 -30 -30 -30 -30 -30 -31 -30 -30 -30 -31 -30 -30 -30 -29 -28 -27 -27 -26 -25 -24 -23 -24 -23 -23 -23 -23 -23 -22 -21 -20 -20 -19 -19 -19 -18
-30 -30 -31 -31 -31 -31 -31 -31 -31 -31 -30 -30 -30 -31 -31 -31 -31 -30 -29 -28 -28 -27 -26 -25 -25 -24 -25 -24 -24 -24 -23 -22 -21 -21 -20 -20 -20 -19
-31 -31 -31 -31 -31 -31 -31 -31 -31 -31 -31 -31 -31 -31 -31 -31 -31 -31 -31 -30 -29 -28 -27 -26 -27 -26 -25 -25 -24 -25 -24 -24 -22 -21 -21 -21 -20 -20
-32 -32 -32 -32 -32 -32 -32 -31 -31 -31 -31 -31 -31 -31 -31 -31 -31 -31 -31 -31 -31 -30 -30 -28 -27 -27 -26 -26 -26 -25 -24 -24 -24 -23 -22 -22 -21 -21
-32 -32 -32 -32 -32 -32 -32 -32 -32 -32 -32 -31 -31 -31 -31 -31 -31 -31 -31 -31 -31 -30 -31 -29 -30 -28 -28 -27 -26 -26 -26 -25 -25 -24 -23 -22 -22 -22
-33 -32 -32 -32 -32 -32 -32 -32 -33 -33 -33 -32 -32 -31 -31 -31 -31 -31 -31 -31 -31 -30 -30 -30 -30 -29 -29 -28 -27 -27 -27 -26 -26 -25 -24 -23 -23 -22
-33 -33 -33 -33 -33 -33 -33 -33 -34 -34 -34 -34 -33 -32 -32 -32 -31 -31 -31 -31 -31 -31 -30 -30 -30 -30 -29 -29 -28 -28 -27 -28 -26 -26 -25 -24 -24 -23
-33 -33 -33 -33 -34 -34 -34 -34 -34 -34 -35 -35 -35 -34 -33 -32 -32 -31 -31 -31 -31 -31 -31 -31 -30 -30 -30 -29 -29 -29 -28 -28 -27 -27 -26 -25 -25 -24
-33 -33 -33 -34 -34 -34 -34 -35 -35 -35 -35 -35 -35 -35 -34 -33 -32 -31 -31 -31 -31 -31 -31 -31 -30 -30 -30 -30 -30 -29 -29 -29 -28 -28 -27 -27 -26 -25
-33 -34 -34 -34 -35 -35 -35 -36 -36 -36 -36 -36 -35 -35 -34 -33 -32 -31 -31 -31 -31 -31 -31 -31 -31 -30 -30 -30 -29 -29 -29 -29 -29 -29 -28 -28 -27 -27
-34 -35 -35 -35 -36 -36 -36 -36 -36 -36 -36 -35 -35 -35 -34 -33 -31 -31 -31 -31 -31 -31 -31 -30 -30 -30 -30 -30 -30 -29 -29 -29 -29 -29 -28 -28 -28 -28
-35 -35 -35 -35 -35 -36 -36 -36 -36 -36 -36 -35 -35 -34 -33 -32 -31 -31 -30 -31 -31 -31 -30 -30 -30 -30 -30 -30 -30 -30 -29 -29 -29 -29 -29 -29 -28 -28
-35 -35 -35 -35 -35 -35 -35 -36 -36 -36 -36 -35 -34 -33 -33 -32 -31 -31 -30 -31 -30 -30 -30 -30 -30 -30 -30 -30 -29 -29 -29 -29 -29 -29 -29 -29 -29 -29
-34 -34 -35 -35 -35 -35 -35 -35 -36 -36 -35 -35 -34 -33 -32 -32 -31 -31 -31 -31 -31 -30 -30 -30 -30 -30 -30 -30 -30 -30 -29 -29 -29 -29 -29 -28 -28 -28
-34 -34 -34 -34 -34 -34 -34 -34 -34 -35 -35 -34 -34 -33 -32 -32 -31 -31 -31 -31 -31 -30 -30 -29 -29 -29 -29 -30 -30 -30 -30 -30 -30 -30 -30 -29 -29 -28
-34 -34 -34 -34 -34 -34 -34 -34 -34 -33 -33 -33 -33 -32 -32 -32 -31 -31 -30 -30 -29 -29 -29 -29 -29 -29 -29 -29 -29 -29 -30 -30 -30 -31 -31 -31 -30 -30
-34 -34 -34 -34 -34 -34 -34 -34 -33 -33 -33 -33 -32 -32 -32 -31 -31 -30 -30 -29 -29 -29 -29 -29 -29 -29 -29 -29 -29 -29 -30 -31 -31 -32 -32 -32 -32 -31
-34 -34 -34 -34 -34 -34 -34 -33 -33 -33 -32 -32 -32 -32 -31 -31 -30 -30 -30 -30 -29 -29 -29 -29 -29 -29 -29 -29 -29 -29 -29 -31 -34 -34 -33 -34 -33 -32
-34 -34 -34 -34 -34 -34 -33 -33 -33 -33 -32 -32 -32 -31 -31 -31 -30 -30 -30 -30 -30 -30 -30 -30 -30 -30 -30 -30 -30 -29 -30 -32 -35 -35 -35 -34 -34 -33
-34 -34 -34 -34 -34 -33 -33 -33 -33 -33 -32 -32 -32 -31 -31 -31 -31 -31 -30 -30 -30 -30 -30 -30 -30 -30 -30 -30 -30 -30 -31 -33 -34 -34 -34 -33 -33 -33
-34 -34 -34 -34 -34 -34 -33 -33 -33 -32 -32 -32 -32 -32 -31 -31 -31 -31 -31 -31 -31 -31 -31 -31 -31 -31 -31 -31 -31 -31 -31 -33 -33 -33 -33 -33 -32 -32
-35 -35 -34 -34 -34 -34 -34 -33 -33 -33 -32 -32 -32 -32 -32 -31 -31 -31 -31 -31 -31 -31 -31 -31 -31 -31 -31 -31 -31 -31 -31 -32 -33 -32 -32 -32 -32 -32
-35 -35 -35 -34 -34 -34 -34 -34 -33 -33 -33 -33 -32 -32 -32 -32 -32 -31 -31 -31 -31 -31 -32 -32 -32 -32 -32 -31 -32 -31 -32 -32 -32 -32 -32 -32 -32 -32

GFSNE_500_temp_039.txt.gz
Temp
-29 -30 -30 -30 -31 -31 -31 -31 -31 -30 -30 -31 -31 -31 -31 -31 -31 -30 -29 -28 -27 -26 -25 -24 -24 -24 -23 -23 -23 -23 -22 -22 -21 -21 -20 -19 -19 -18
-30 -30 -31 -31 -31 -31 -32 -32 -32 -32 -31 -31 -31 -31 -31 -31 -31 -31 -31 -30 -30 -28 -27 -26 -25 -25 -24 -23 -23 -23 -23 -23 -22 -22 -21 -20 -20 -19
-31 -32 -32 -32 -32 -32 -32 -32 -32 -32 -32 -31 -31 -31 -31 -31 -31 -31 -31 -31 -30 -30 -29 -28 -27 -26 -25 -24 -23 -24 -24 -23 -23 -23 -22 -22 -21 -20
-33 -33 -33 -33 -33 -33 -33 -32 -32 -32 -32 -31 -31 -31 -31 -31 -31 -31 -31 -31 -31 -31 -31 -30 -29 -28 -27 -26 -25 -24 -24 -24 -24 -24 -23 -23 -22 -21
-33 -34 -34 -33 -33 -33 -33 -32 -32 -32 -32 -32 -32 -32 -31 -32 -31 -31 -31 -31 -31 -31 -31 -32 -31 -30 -29 -27 -26 -25 -26 -24 -24 -25 -24 -24 -23 -23
-34 -33 -33 -33 -33 -33 -33 -33 -33 -33 -33 -33 -33 -32 -32 -32 -32 -32 -31 -31 -31 -31 -31 -32 -31 -31 -31 -29 -28 -27 -26 -25 -25 -25 -25 -25 -24 -23
-33 -33 -33 -33 -33 -33 -33 -33 -33 -34 -34 -34 -34 -34 -34 -34 -33 -32 -31 -32 -31 -31 -31 -31 -32 -31 -31 -30 -29 -29 -27 -27 -26 -26 -26 -26 -25 -24
-33 -33 -33 -33 -33 -34 -34 -34 -34 -34 -34 -34 -34 -34 -34 -34 -34 -34 -32 -32 -31 -31 -31 -31 -31 -31 -31 -31 -30 -30 -29 -28 -28 -27 -26 -26 -25 -25
-33 -33 -33 -34 -34 -35 -35 -36 -36 -36 -36 -35 -35 -35 -35 -35 -35 -35 -34 -32 -32 -32 -31 -31 -31 -31 -31 -31 -31 -31 -30 -30 -29 -28 -28 -26 -26 -26
-33 -33 -34 -34 -35 -35 -35 -36 -36 -36 -36 -36 -36 -36 -36 -36 -36 -35 -34 -33 -32 -32 -31 -31 -31 -31 -31 -31 -31 -30 -30 -30 -29 -29 -28 -27 -27 -27
-34 -34 -34 -35 -35 -35 -35 -35 -36 -36 -36 -37 -36 -36 -36 -36 -35 -35 -34 -32 -32 -32 -31 -31 -32 -31 -31 -31 -31 -31 -30 -30 -30 -29 -29 -28 -28 -28
-34 -35 -35 -35 -35 -35 -35 -35 -35 -36 -37 -37 -36 -36 -36 -35 -35 -34 -33 -32 -31 -31 -31 -31 -31 -31 -31 -31 -31 -30 -30 -30 -30 -30 -30 -29 -29 -28
-34 -34 -34 -34 -35 -35 -35 -35 -35 -35 -36 -36 -36 -36 -35 -35 -34 -34 -33 -32 -32 -31 -31 -31 -31 -31 -31 -31 -31 -30 -30 -30 -30 -30 -30 -29 -29 -29
-34 -34 -34 -34 -35 -35 -35 -35 -35 -35 -36 -36 -35 -35 -34 -34 -34 -33 -32 -32 -31 -31 -31 -31 -31 -31 -31 -30 -30 -30 -30 -30 -30 -30 -30 -29 -29 -29
-34 -34 -34 -34 -34 -34 -34 -34 -34 -34 -35 -35 -35 -35 -34 -33 -33 -32 -32 -32 -31 -31 -31 -31 -31 -31 -31 -31 -30 -30 -30 -30 -30 -29 -29 -29 -29 -29
-34 -34 -34 -34 -34 -34 -34 -34 -34 -34 -34 -34 -34 -34 -34 -33 -33 -32 -32 -32 -32 -31 -31 -31 -30 -30 -30 -29 -29 -29 -29 -29 -29 -29 -29 -29 -30 -29
-34 -34 -34 -34 -34 -34 -34 -34 -34 -33 -33 -33 -33 -33 -33 -32 -32 -32 -32 -31 -31 -31 -30 -30 -30 -30 -29 -29 -29 -29 -29 -29 -29 -29 -30 -30 -31 -31
-34 -34 -34 -34 -34 -34 -34 -34 -34 -33 -33 -33 -33 -33 -32 -32 -32 -31 -31 -31 -30 -30 -30 -30 -30 -30 -30 -30 -30 -29 -29 -29 -29 -29 -31 -32 -33 -33
-34 -34 -34 -34 -34 -34 -34 -33 -33 -33 -33 -33 -33 -32 -32 -32 -31 -31 -31 -31 -30 -30 -30 -30 -30 -30 -30 -30 -30 -29 -29 -29 -29 -30 -32 -34 -34 -34
-34 -34 -34 -34 -34 -34 -34 -33 -33 -33 -33 -33 -33 -32 -32 -32 -32 -31 -31 -31 -31 -30 -30 -30 -30 -30 -30 -30 -30 -30 -30 -30 -30 -32 -33 -33 -33 -34
-35 -35 -35 -34 -34 -34 -34 -34 -33 -33 -33 -33 -33 -32 -32 -32 -32 -31 -31 -31 -31 -31 -31 -31 -31 -31 -31 -31 -31 -31 -30 -31 -31 -32 -32 -32 -33 -33
-35 -35 -35 -35 -35 -34 -34 -34 -34 -33 -33 -33 -33 -33 -32 -32 -32 -32 -32 -31 -31 -31 -31 -31 -31 -31 -31 -31 -31 -31 -31 -31 -31 -31 -32 -32 -32 -32
-35 -35 -35 -35 -35 -35 -34 -34 -34 -34 -34 -33 -33 -33 -32 -32 -32 -32 -32 -32 -32 -32 -32 -31 -32 -32 -32 -31 -31 -31 -31 -31 -31 -32 -32 -32 -32 -32

GFSNE_500_temp_045.txt.gz
Temp
-26 -28 -29 -30 -32 -33 -33 -33 -33 -33 -32 -33 -33 -33 -33 -32 -32 -32 -31 -31 -31 -30 -30 -29 -28 -27 -26 -25 -24 -24 -24 -23 -23 -22 -21 -21 -20 -18
-28 -29 -31 -33 -33 -33 -33 -33 -33 -33 -32 -33 -33 -33 -33 -33 -33 -32 -32 -32 -32 -32 -31 -31 -30 -30 -28 -27 -26 -24 -24 -24 -24 -23 -22 -22 -20 -20
-30 -32 -33 -34 -33 -33 -33 -33 -33 -33 -32 -32 -33 -33 -33 -33 -33 -33 -33 -33 -32 -32 -32 -32 -32 -31 -30 -29 -27 -26 -25 -24 -24 -24 -23 -22 -21 -21
-31 -33 -33 -33 -33 -33 -33 -33 -33 -33 -32 -32 -32 -32 -32 -32 -32 -32 -32 -32 -32 -32 -32 -32 -32 -32 -31 -30 -29 -27 -26 -25 -25 -24 -24 -24 -23 -23
-32 -32 -33 -33 -33 -33 -33 -33 -33 -33 -33 -33 -32 -33 -33 -33 -33 -32 -32 -32 -32 -32 -32 -32 -32 -32 -31 -31 -30 -29 -28 -27 -27 -25 -25 -25 -24 -23
-33 -33 -33 -33 -33 -33 -33 -33 -33 -34 -34 -34 -34 -35 -35 -35 -35 -34 -33 -33 -32 -32 -32 -32 -31 -31 -31 -31 -31 -30 -29 -28 -28 -28 -26 -25 -25 -24
-33 -33 -33 -33 -33 -33 -33 -33 -34 -34 -35 -35 -35 -35 -35 -35 -35 -36 -35 -34 -34 -33 -32 -32 -31 -31 -31 -31 -31 -31 -31 -30 -29 -28 -27 -25 -25 -25
-33 -33 -33 -33 -33 -33 -33 -34 -34 -34 -34 -35 -35 -35 -35 -36 -36 -36 -36 -35 -35 -34 -34 -33 -32 -32 -31 -31 -31 -31 -31 -31 -30 -27 -27 -26 -26 -25
-33 -33 -33 -33 -33 -33 -33 -34 -34 -34 -35 -35 -35 -35 -36 -36 -36 -37 -36 -36 -36 -35 -34 -34 -33 -33 -32 -31 -31 -31 -31 -31 -30 -29 -27 -27 -26 -26
-34 -33 -33 -33 -33 -33 -34 -34 -34 -35 -35 -35 -35 -36 -36 -37 -37 -37 -37 -37 -36 -36 -35 -34 -34 -33 -32 -32 -31 -31 -31 -31 -31 -30 -29 -28 -27 -27
-34 -33 -33 -33 -34 -33 -34 -34 -34 -35 -35 -35 -35 -36 -37 -37 -37 -37 -37 -37 -37 -36 -35 -34 -34 -33 -32 -32 -31 -31 -31 -31 -31 -32 -31 -30 -29 -28
-34 -33 -33 -34 -33 -34 -34 -34 -34 -34 -35 -35 -35 -36 -36 -36 -36 -37 -37 -37 -37 -36 -36 -35 -35 -34 -33 -32 -31 -31 -31 -31 -31 -32 -31 -31 -31 -29
-33 -33 -33 -34 -34 -34 -34 -34 -34 -34 -34 -34 -35 -36 -36 -36 -36 -36 -36 -37 -37 -36 -35 -35 -35 -34 -33 -32 -31 -31 -31 -31 -31 -32 -31 -31 -31 -31
-33 -33 -34 -34 -34 -34 -34 -34 -34 -34 -34 -34 -34 -35 -35 -36 -36 -36 -36 -36 -36 -35 -35 -35 -34 -33 -32 -32 -31 -31 -31 -32 -32 -32 -32 -31 -31 -31
-34 -33 -34 -34 -34 -34 -34 -34 -34 -34 -34 -34 -34 -34 -35 -35 -35 -35 -35 -35 -35 -35 -34 -34 -33 -33 -32 -32 -31 -32 -32 -32 -31 -32 -32 -32 -31 -31
-34 -34 -34 -34 -34 -34 -34 -34 -34 -34 -34 -34 -34 -34 -34 -35 -35 -35 -35 -35 -34 -34 -34 -33 -33 -32 -32 -32 -31 -31 -31 -31 -31 -31 -31 -31 -31 -31
-35 -34 -34 -34 -34 -34 -34 -34 -34 -34 -34 -34 -34 -34 -34 -34 -34 -34 -34 -34 -34 -34 -33 -33 -32 -32 -32 -32 -31 -31 -31 -31 -31 -31 -31 -31 -31 -31
-35 -35 -35 -35 -35 -35 -34 -34 -34 -34 -34 -34 -34 -34 -34 -34 -34 -34 -34 -34 -34 -33 -33 -33 -32 -32 -32 -32 -32 -31 -31 -31 -31 -31 -31 -31 -30 -30
-35 -35 -35 -35 -35 -35 -35 -34 -34 -34 -34 -34 -34 -34 -34 -34 -33 -34 -34 -34 -33 -33 -33 -32 -32 -32 -31 -31 -31 -31 -30 -30 -31 -31 -30 -30 -30 -30
-36 -36 -36 -35 -35 -35 -35 -35 -34 -34 -34 -34 -33 -33 -33 -33 -33 -33 -33 -33 -33 -32 -32 -31 -31 -31 -31 -31 -31 -30 -30 -30 -30 -30 -30 -30 -30 -30
-36 -36 -36 -36 -36 -36 -35 -35 -35 -34 -34 -34 -34 -33 -33 -33 -33 -33 -33 -32 -32 -32 -32 -32 -31 -31 -31 -31 -31 -31 -31 -30 -30 -30 -30 -30 -30 -30
-36 -36 -36 -36 -36 -36 -36 -36 -35 -35 -35 -34 -34 -34 -33 -33 -33 -33 -33 -33 -32 -32 -32 -32 -32 -32 -31 -31 -31 -31 -31 -31 -31 -31 -31 -30 -30 -30
-36 -36 -36 -36 -36 -37 -36 -36 -36 -36 -35 -35 -34 -34 -34 -33 -33 -33 -33 -33 -32 -32 -32 -32 -32 -32 -32 -32 -32 -32 -32 -31 -31 -31 -31 -31 -31 -31

GFSNE_500_temp_048.txt.gz
Temp
-24 -26 -27 -29 -29 -30 -32 -32 -32 -31 -32 -32 -32 -33 -32 -32 -32 -32 -32 -32 -31 -31 -30 -30 -29 -28 -26 -25 -24 -23 -22 -22 -21 -21 -21 -21 -20 -20
-27 -29 -30 -30 -30 -31 -32 -32 -32 -32 -32 -32 -32 -32 -32 -32 -32 -32 -32 -32 -32 -32 -32 -31 -31 -30 -29 -27 -26 -25 -24 -23 -23 -22 -22 -22 -21 -20
-30 -30 -31 -31 -31 -32 -32 -32 -32 -32 -32 -32 -32 -32 -32 -32 -32 -32 -32 -32 -32 -32 -32 -32 -32 -31 -31 -30 -29 -27 -26 -24 -24 -23 -23 -23 -23 -22
-31 -31 -31 -31 -32 -32 -33 -33 -33 -32 -32 -32 -32 -32 -32 -32 -32 -32 -32 -32 -32 -32 -32 -32 -32 -32 -32 -31 -30 -30 -29 -27 -25 -25 -24 -24 -24 -23
-31 -31 -32 -32 -33 -33 -33 -33 -32 -32 -33 -33 -33 -33 -34 -34 -34 -34 -34 -33 -33 -33 -32 -32 -32 -32 -32 -32 -31 -31 -30 -30 -27 -26 -25 -25 -25 -24
-32 -32 -32 -33 -33 -33 -33 -33 -32 -33 -33 -33 -34 -34 -34 -35 -35 -35 -35 -35 -35 -34 -33 -32 -32 -32 -32 -32 -32 -32 -31 -31 -29 -28 -27 -27 -25 -25
-32 -32 -33 -33 -33 -33 -33 -33 -33 -33 -34 -34 -34 -34 -35 -35 -35 -35 -35 -35 -35 -35 -35 -34 -33 -32 -32 -32 -32 -32 -31 -31 -31 -30 -29 -28 -27 -26
-33 -33 -33 -33 -33 -33 -33 -33 -33 -33 -34 -34 -34 -35 -35 -35 -35 -35 -35 -35 -35 -36 -36 -35 -34 -33 -32 -32 -32 -32 -31 -31 -31 -31 -30 -29 -27 -26
-33 -33 -33 -33 -33 -33 -33 -33 -34 -34 -34 -34 -34 -35 -35 -35 -36 -36 -36 -36 -36 -36 -36 -36 -35 -34 -33 -32 -32 -32 -31 -31 -31 -31 -31 -30 -28 -27
-33 -33 -33 -33 -33 -33 -33 -33 -34 -34 -34 -34 -34 -35 -35 -35 -36 -36 -37 -37 -37 -37 -37 -36 -35 -34 -34 -33 -32 -32 -31 -31 -31 -31 -31 -31 -30 -28
-34 -34 -33 -33 -33 -33 -33 -34 -34 -34 -34 -34 -34 -34 -35 -36 -36 -36 -37 -37 -37 -37 -37 -37 -36 -35 -34 -34 -33 -32 -32 -31 -31 -31 -31 -31 -30 -29
-34 -34 -33 -33 -33 -33 -33 -34 -34 -34 -34 -34 -34 -34 -35 -36 -36 -36 -37 -37 -37 -37 -37 -37 -36 -35 -34 -34 -33 -33 -32 -31 -31 -31 -31 -31 -31 -30
-34 -34 -34 -33 -33 -34 -33 -34 -34 -34 -34 -34 -34 -34 -35 -35 -36 -36 -36 -37 -37 -37 -37 -37 -36 -35 -34 -34 -33 -33 -32 -32 -31 -31 -31 -31 -31 -31
-34 -34 -34 -34 -33 -34 -34 -34 -34 -34 -34 -34 -34 -34 -34 -35 -36 -36 -36 -37 -37 -37 -37 -37 -36 -35 -34 -34 -33 -33 -32 -32 -32 -31 -31 -31 -31 -32
-34 -34 -34 -34 -34 -34 -34 -34 -34 -34 -34 -34 -34 -34 -34 -35 -35 -35 -36 -36 -36 -36 -36 -36 -35 -35 -35 -34 -34 -33 -32 -32 -32 -31 -31 -31 -32 -32
-35 -35 -34 -34 -34 -34 -34 -34 -34 -34 -34 -34 -34 -34 -34 -34 -35 -35 -35 -35 -36 -36 -36 -35 -35 -35 -34 -34 -33 -33 -32 -32 -32 -32 -32 -31 -31 -32
-35 -35 -35 -35 -35 -34 -34 -34 -34 -34 -34 -34 -34 -34 -34 -34 -34 -35 -35 -35 -35 -35 -35 -35 -35 -34 -34 -33 -33 -32 -32 -32 -32 -32 -31 -31 -31 -32
-35 -35 -35 -35 -35 -35 -35 -35 -34 -34 -34 -34 -34 -34 -34 -34 -34 -34 -34 -35 -35 -35 -35 -34 -34 -33 -33 -32 -32 -32 -32 -32 -32 -31 -31 -31 -32 -32
-35 -35 -35 -35 -35 -35 -35 -35 -35 -35 -34 -34 -34 -34 -34 -34 -34 -34 -34 -34 -34 -34 -34 -34 -34 -33 -33 -32 -32 -32 -32 -32 -31 -31 -31 -31 -31 -31
-35 -35 -36 -36 -36 -36 -36 -35 -35 -35 -35 -34 -34 -34 -34 -34 -34 -34 -34 -34 -34 -34 -34 -33 -33 -33 -33 -32 -32 -32 -32 -32 -32 -32 -32 -32 -32 -31
-35 -36 -36 -36 -36 -36 -36 -36 -36 -35 -35 -35 -34 -34 -34 -34 -33 -33 -33 -34 -34 -33 -33 -33 -33 -32 -32 -32 -32 -31 -31 -31 -31 -31 -31 -31 -31 -31
-35 -36 -36 -36 -36 -36 -36 -36 -36 -36 -36 -35 -35 -34 -34 -34 -33 -33 -33 -33 -33 -33 -33 -33 -32 -32 -32 -32 -31 -31 -31 -31 -31 -31 -31 -31 -31 -31
-36 -36 -36 -36 -36 -36 -36 -36 -36 -37 -36 -36 -35 -35 -34 -34 -34 -33 -33 -33 -33 -33 -33 -32 -32 -32 -32 -32 -32 -32 -32 -31 -31 -31 -31 -31 -31 -31

GFSNE_500_temp_051.txt.gz
Temp
-23 -24 -25 -26 -28 -29 -31 -31 -31 -30 -30 -31 -31 -32 -32 -32 -31 -31 -31 -31 -31 -31 -31 -31 -30 -29 -28 -27 -26 -25 -24 -23 -22 -20 -20 -20 -19 -19
-24 -26 -27 -29 -31 -31 -31 -31 -31 -31 -31 -32 -32 -32 -32 -32 -31 -31 -31 -31 -31 -31 -31 -31 -31 -31 -30 -29 -28 -27 -26 -25 -24 -23 -22 -21 -21 -20
-26 -27 -29 -31 -32 -32 -32 -32 -32 -32 -32 -32 -32 -32 -31 -31 -31 -32 -31 -31 -31 -31 -31 -31 -31 -31 -31 -31 -30 -29 -28 -27 -25 -24 -23 -22 -22 -22
-27 -29 -31 -32 -32 -32 -32 -32 -32 -32 -32 -32 -32 -32 -32 -32 -32 -32 -32 -32 -32 -32 -32 -31 -32 -32 -32 -32 -31 -30 -30 -29 -27 -26 -25 -24 -23 -23
-30 -32 -32 -32 -32 -32 -32 -32 -33 -33 -32 -32 -32 -33 -32 -33 -33 -34 -34 -34 -34 -34 -34 -34 -33 -32 -32 -32 -32 -32 -31 -31 -29 -28 -26 -25 -24 -24
-32 -32 -32 -32 -33 -32 -33 -33 -33 -32 -32 -33 -33 -33 -33 -34 -34 -34 -34 -34 -34 -34 -34 -34 -34 -33 -32 -32 -32 -32 -32 -31 -30 -30 -29 -27 -25 -25
-33 -32 -33 -33 -33 -33 -33 -33 -33 -32 -33 -33 -33 -34 -34 -34 -34 -34 -34 -35 -35 -35 -35 -35 -35 -35 -34 -33 -32 -32 -32 -32 -31 -31 -30 -29 -27 -26
-33 -33 -33 -33 -33 -33 -33 -33 -33 -33 -33 -33 -34 -34 -34 -34 -34 -34 -35 -35 -35 -36 -36 -35 -35 -35 -35 -34 -32 -32 -32 -32 -32 -32 -31 -30 -29 -29
-33 -33 -33 -33 -33 -33 -33 -32 -32 -33 -33 -34 -34 -34 -34 -34 -34 -34 -35 -36 -36 -36 -37 -37 -36 -36 -35 -35 -34 -32 -32 -32 -32 -32 -32 -31 -30 -28
-33 -33 -33 -33 -33 -33 -33 -33 -33 -33 -33 -34 -34 -34 -34 -34 -34 -35 -35 -36 -36 -37 -37 -37 -37 -36 -36 -35 -34 -33 -32 -32 -32 -32 -32 -32 -31 -30
-33 -33 -33 -34 -33 -33 -33 -33 -33 -33 -34 -34 -34 -34 -34 -34 -34 -35 -36 -36 -36 -37 -37 -37 -37 -37 -36 -36 -35 -34 -32 -32 -32 -32 -32 -32 -31 -31
-33 -33 -34 -34 -34 -33 -33 -33 -34 -34 -34 -34 -34 -34 -34 -34 -34 -35 -36 -36 -36 -37 -38 -38 -38 -37 -37 -36 -35 -34 -33 -32 -32 -32 -32 -31 -31 -31
-34 -34 -34 -34 -34 -34 -33 -33 -33 -34 -34 -34 -34 -34 -34 -34 -34 -35 -36 -36 -36 -37 -37 -38 -37 -37 -37 -36 -35 -35 -33 -32 -32 -32 -31 -31 -31 -31
-34 -34 -34 -34 -34 -34 -34 -34 -34 -34 -34 -34 -34 -34 -34 -34 -34 -35 -36 -36 -36 -37 -37 -37 -37 -37 -36 -36 -35 -35 -34 -33 -32 -32 -31 -31 -31 -31
-34 -34 -35 -35 -35 -35 -34 -34 -34 -34 -34 -34 -34 -34 -34 -34 -34 -35 -35 -36 -36 -37 -37 -37 -37 -37 -36 -36 -35 -34 -34 -33 -32 -32 -31 -31 -32 -31
-34 -35 -35 -35 -35 -35 -35 -34 -34 -34 -34 -34 -34 -34 -34 -34 -34 -35 -35 -36 -36 -37 -37 -37 -37 -36 -36 -35 -35 -34 -34 -33 -33 -32 -32 -31 -32 -32
-35 -35 -35 -35 -35 -35 -35 -35 -35 -34 -34 -34 -34 -34 -34 -34 -34 -34 -35 -35 -36 -36 -36 -36 -36 -36 -36 -35 -35 -35 -34 -33 -33 -32 -32 -32 -31 -31
-35 -35 -35 -35 -35 -35 -35 -35 -35 -35 -35 -35 -34 -34 -34 -34 -34 -34 -34 -35 -35 -35 -36 -36 -36 -36 -36 -35 -35 -34 -34 -33 -32 -32 -32 -32 -31 -31
-35 -35 -35 -35 -35 -36 -36 -36 -36 -36 -35 -35 -35 -34 -34 -34 -34 -34 -34 -35 -35 -35 -35 -35 -35 -35 -34 -34 -34 -34 -33 -33 -33 -32 -32 -32 -32 -32
-35 -35 -35 -35 -36 -36 -36 -36 -36 -36 -36 -35 -35 -35 -34 -34 -34 -34 -34 -34 -35 -35 -35 -34 -34 -34 -34 -34 -33 -33 -33 -32 -32 -32 -32 -32 -32 -32
-35 -35 -35 -36 -36 -36 -36 -36 -36 -36 -36 -36 -36 -35 -35 -34 -34 -34 -34 -34 -34 -34 -34 -34 -34 -34 -34 -34 -33 -33 -33 -32 -32 -32 -32 -32 -32 -32
-35 -35 -35 -36 -36 -36 -36 -36 -36 -36 -36 -36 -36 -36 -35 -35 -34 -34 -34 -34 -34 -34 -34 -34 -34 -34 -33 -33 -33 -33 -33 -32 -32 -32 -32 -32 -32 -32
-35 -35 -35 -36 -36 -36 -36 -36 -36 -36 -36 -37 -37 -36 -36 -35 -35 -34 -34 -34 -34 -34 -33 -33 -33 -33 -33 -33 -33 -32 -32 -32 -32 -32 -32 -32 -32 -32

GFSNE_500_temp_054.txt.gz
Temp
-22 -23 -24 -24 -25 -26 -28 -29 -31 -31 -31 -31 -31 -32 -31 -32 -31 -31 -31 -31 -31 -30 -30 -30 -30 -30 -29 -29 -27 -26 -25 -23 -21 -19 -19 -19 -19 -19
-24 -24 -25 -26 -27 -28 -30 -31 -32 -32 -32 -32 -32 -32 -32 -32 -32 -32 -31 -31 -31 -31 -31 -30 -30 -30 -30 -29 -29 -29 -27 -26 -25 -23 -21 -21 -20 -19
-24 -25 -26 -27 -28 -30 -32 -32 -32 -32 -32 -32 -32 -32 -32 -32 -32 -32 -31 -31 -31 -31 -31 -31 -31 -30 -30 -30 -30 -30 -29 -28 -27 -26 -24 -23 -22 -22
-25 -26 -28 -29 -30 -32 -32 -32 -33 -32 -32 -32 -32 -32 -32 -32 -32 -32 -32 -32 -32 -32 -32 -33 -32 -32 -31 -31 -31 -30 -30 -30 -29 -28 -27 -25 -24 -24
-27 -28 -29 -30 -32 -33 -33 -33 -33 -33 -33 -32 -32 -32 -32 -32 -32 -33 -33 -33 -33 -33 -33 -33 -34 -33 -33 -33 -32 -31 -31 -31 -31 -30 -29 -28 -26 -25
-28 -29 -30 -32 -33 -33 -33 -33 -33 -33 -32 -32 -32 -32 -32 -33 -33 -33 -34 -34 -34 -34 -34 -34 -34 -34 -33 -34 -34 -33 -31 -31 -31 -31 -30 -29 -28 -27
-29 -30 -32 -33 -33 -33 -33 -33 -33 -33 -32 -32 -32 -33 -33 -33 -34 -34 -34 -34 -34 -34 -34 -34 -34 -34 -34 -34 -34 -34 -33 -32 -32 -32 -31 -31 -30 -29
-30 -32 -33 -33 -33 -33 -33 -33 -33 -32 -32 -32 -33 -33 -34 -34 -34 -34 -34 -34 -34 -35 -34 -34 -35 -35 -35 -35 -35 -34 -34 -32 -32 -32 -32 -32 -31 -30
-32 -32 -33 -33 -33 -33 -33 -33 -33 -32 -32 -32 -33 -33 -34 -34 -34 -34 -34 -34 -34 -35 -34 -35 -36 -35 -36 -36 -36 -35 -35 -34 -32 -32 -32 -32 -32 -31
-32 -33 -33 -33 -34 -33 -34 -33 -33 -33 -33 -33 -33 -34 -34 -34 -34 -34 -34 -34 -35 -35 -35 -35 -36 -36 -37 -37 -36 -36 -35 -35 -33 -32 -32 -32 -32 -31
-33 -34 -33 -34 -34 -34 -34 -34 -34 -33 -33 -33 -34 -34 -34 -34 -34 -34 -34 -35 -35 -36 -36 -36 -37 -37 -37 -37 -37 -36 -36 -35 -34 -33 -33 -32 -32 -32
-34 -34 -34 -34 -34 -34 -34 -34 -34 -33 -33 -34 -34 -34 -34 -34 -34 -34 -34 -35 -35 -36 -36 -37 -38 -38 -38 -38 -37 -37 -36 -35 -34 -33 -33 -32 -32 -32
-34 -34 -34 -34 -34 -34 -34 -34 -34 -34 -34 -34 -34 -34 -34 -34 -34 -34 -35 -35 -36 -36 -36 -37 -38 -38 -38 -38 -38 -37 -36 -35 -34 -33 -33 -32 -32 -32
-34 -34 -34 -34 -35 -35 -35 -35 -34 -34 -34 -34 -34 -34 -34 -34 -34 -34 -35 -35 -36 -36 -37 -37 -37 -37 -37 -37 -37 -37 -36 -36 -35 -33 -32 -32 -32 -32
-35 -35 -34 -35 -35 -35 -35 -35 -35 -35 -35 -34 -34 -34 -34 -34 -34 -34 -35 -35 -36 -36 -37 -37 -37 -37 -37 -37 -37 -37 -36 -35 -34 -33 -33 -32 -32 -32
-35 -35 -35 -35 -35 -35 -35 -35 -35 -35 -35 -35 -35 -35 -34 -34 -34 -34 -35 -35 -36 -36 -37 -37 -37 -37 -37 -36 -36 -36 -35 -35 -34 -34 -33 -32 -32 -32
-35 -35 -35 -35 -35 -35 -35 -35 -36 -36 -36 -35 -35 -35 -34 -34 -34 -34 -34 -35 -35 -36 -36 -37 -37 -37 -36 -36 -36 -36 -35 -34 -34 -33 -33 -32 -32 -32
-34 -35 -35 -35 -35 -35 -35 -36 -36 -36 -36 -36 -36 -35 -35 -35 -34 -34 -34 -35 -35 -35 -36 -36 -36 -37 -36 -36 -36 -36 -36 -34 -34 -33 -33 -32 -32 -32
-35 -35 -35 -35 -35 -35 -35 -36 -36 -36 -36 -36 -36 -36 -35 -35 -35 -34 -34 -35 -35 -35 -35 -35 -36 -36 -36 -36 -36 -36 -35 -35 -34 -34 -33 -33 -32 -32
-35 -35 -35 -35 -35 -35 -36 -36 -36 -36 -36 -36 -36 -36 -36 -35 -35 -35 -34 -34 -35 -35 -35 -35 -35 -35 -35 -35 -35 -35 -35 -34 -34 -34 -33 -33 -32 -32
-35 -35 -35 -35 -35 -35 -36 -36 -36 -36 -36 -36 -36 -36 -36 -36 -35 -35 -35 -34 -35 -35 -35 -35 -35 -35 -35 -34 -34 -34 -34 -34 -33 -33 -33 -33 -33 -32
-35 -35 -35 -35 -35 -36 -36 -36 -36 -36 -36 -36 -37 -37 -37 -36 -36 -35 -35 -35 -34 -35 -35 -35 -35 -35 -35 -34 -34 -34 -34 -34 -33 -33 -33 -32 -32 -32
-35 -35 -35 -35 -36 -36 -36 -36 -36 -36 -36 -37 -37 -37 -37 -37 -36 -36 -35 -35 -35 -34 -34 -34 -34 -34 -34 -34 -34 -34 -34 -34 -33 -33 -33 -33 -33 -32

GFSNE_500_temp_057.txt.gz
Temp
-21 -22 -22 -23 -24 -24 -25 -26 -28 -28 -28 -30 -32 -32 -32 -32 -32 -32 -32 -32 -31 -30 -30 -30 -29 -29 -29 -29 -29 -28 -27 -26 -24 -23 -20 -19 -19 -19
-23 -24 -24 -24 -25 -26 -27 -28 -29 -30 -30 -32 -32 -32 -32 -32 -32 -32 -32 -32 -32 -31 -31 -31 -30 -30 -30 -29 -29 -29 -28 -28 -27 -26 -24 -22 -20 -20
-24 -24 -25 -25 -26 -28 -29 -30 -31 -32 -32 -32 -32 -33 -32 -32 -32 -32 -32 -32 -31 -31 -31 -31 -31 -31 -30 -30 -30 -29 -29 -29 -29 -28 -27 -25 -23 -21
-25 -25 -26 -27 -28 -29 -30 -31 -33 -33 -33 -32 -33 -32 -32 -32 -31 -31 -31 -32 -32 -32 -32 -32 -32 -31 -31 -31 -31 -30 -30 -30 -30 -29 -29 -27 -26 -24
-25 -26 -27 -28 -29 -30 -31 -33 -33 -33 -33 -33 -32 -32 -32 -32 -31 -32 -32 -32 -33 -33 -33 -33 -33 -33 -33 -32 -32 -32 -31 -30 -30 -30 -29 -29 -28 -26
-26 -27 -28 -30 -30 -32 -33 -33 -33 -33 -33 -33 -33 -32 -32 -32 -32 -32 -33 -33 -34 -34 -34 -33 -33 -33 -33 -33 -33 -32 -32 -32 -31 -30 -30 -30 -29 -28
-27 -28 -30 -30 -31 -33 -33 -33 -33 -33 -33 -33 -33 -32 -32 -32 -32 -33 -34 -34 -34 -34 -33 -33 -34 -33 -33 -33 -33 -32 -32 -33 -33 -32 -31 -30 -30 -30
-29 -30 -31 -31 -32 -33 -33 -34 -34 -33 -33 -33 -32 -32 -32 -32 -33 -34 -34 -33 -33 -34 -33 -34 -33 -33 -33 -33 -33 -33 -33 -34 -34 -33 -32 -31 -31 -31
-30 -31 -31 -32 -33 -34 -34 -34 -34 -34 -33 -33 -32 -32 -33 -33 -34 -34 -34 -33 -34 -34 -33 -34 -33 -34 -34 -34 -35 -35 -34 -34 -35 -34 -33 -32 -32 -32
-31 -32 -32 -33 -34 -34 -34 -34 -34 -34 -34 -33 -33 -33 -33 -33 -34 -34 -34 -34 -34 -34 -33 -34 -34 -35 -35 -36 -36 -36 -36 -36 -35 -35 -34 -33 -32 -32
-32 -32 -33 -34 -34 -34 -34 -34 -35 -35 -34 -34 -33 -33 -33 -34 -34 -34 -34 -34 -34 -34 -33 -34 -35 -36 -37 -37 -37 -37 -37 -36 -36 -35 -35 -33 -33 -33
-33 -33 -33 -34 -34 -34 -34 -35 -35 -35 -35 -34 -34 -34 -34 -34 -34 -34 -34 -34 -34 -35 -34 -35 -36 -36 -38 -38 -38 -38 -37 -37 -36 -36 -35 -34 -33 -33
-33 -34 -34 -35 -35 -35 -35 -35 -35 -35 -35 -35 -34 -34 -34 -34 -34 -34 -34 -34 -35 -35 -35 -36 -37 -37 -38 -38 -38 -38 -38 -37 -36 -36 -35 -34 -33 -33
-34 -34 -34 -35 -35 -35 -35 -35 -35 -35 -35 -35 -35 -35 -35 -35 -35 -34 -34 -34 -35 -36 -36 -36 -36 -37 -38 -38 -38 -38 -38 -38 -37 -36 -35 -34 -33 -33
-34 -34 -34 -35 -35 -35 -35 -35 -35 -35 -36 -36 -36 -35 -35 -35 -35 -35 -34 -34 -35 -36 -36 -36 -37 -37 -37 -38 -38 -38 -38 -37 -37 -36 -35 -34 -33 -33
-35 -34 -34 -35 -35 -35 -35 -35 -35 -36 -36 -36 -36 -36 -35 -35 -35 -35 -34 -35 -35 -36 -36 -36 -37 -37 -37 -37 -38 -38 -37 -36 -36 -36 -34 -34 -33 -33
-35 -35 -35 -35 -35 -36 -35 -35 -35 -36 -36 -36 -36 -36 -36 -35 -35 -35 -35 -35 -35 -35 -36 -36 -37 -37 -37 -37 -37 -37 -37 -36 -35 -35 -34 -33 -33 -33
-35 -35 -35 -35 -35 -35 -35 -35 -36 -36 -36 -36 -36 -36 -36 -36 -35 -35 -35 -35 -35 -35 -36 -36 -37 -37 -37 -37 -37 -37 -37 -36 -35 -34 -34 -33 -33 -32
-35 -35 -35 -35 -35 -35 -35 -35 -36 -36 -36 -36 -36 -36 -36 -36 -36 -35 -35 -35 -35 -35 -36 -36 -36 -37 -37 -37 -37 -37 -36 -36 -35 -34 -34 -33 -33 -33
-35 -35 -35 -35 -35 -35 -35 -35 -36 -36 -36 -36 -36 -36 -37 -36 -36 -36 -35 -35 -35 -35 -35 -36 -36 -36 -36 -37 -36 -36 -36 -36 -35 -35 -34 -33 -33 -33
-35 -36 -35 -35 -35 -35 -35 -36 -36 -36 -36 -36 -36 -36 -37 -37 -37 -36 -36 -35 -35 -35 -35 -35 -36 -36 -35 -35 -35 -36 -35 -35 -35 -35 -34 -34 -34 -33
-36 -36 -36 -36 -35 -35 -36 -36 -36 -36 -36 -36 -36 -36 -37 -37 -37 -37 -36 -36 -35 -35 -35 -35 -35 -35 -35 -35 -35 -35 -35 -35 -34 -34 -34 -34 -34 -33
-36 -36 -36 -36 -36 -36 -36 -36 -36 -36 -36 -36 -36 -36 -37 -37 -37 -37 -37 -36 -36 -35 -35 -35 -35 -35 -35 -35 -35 -35 -35 -35 -34 -34 -33 -33 -33 -33

GFSNE_500_temp_063.txt.gz
Temp
-21 -21 -21 -22 -22 -23 -24 -24 -24 -24 -24 -25 -27 -28 -29 -30 -30 -31 -32 -32 -33 -33 -33 -32 -32 -31 -31 -30 -30 -30 -30 -30 -30 -28 -26 -25 -24 -23
-22 -22 -22 -23 -24 -24 -24 -25 -25 -26 -26 -28 -28 -29 -30 -31 -32 -32 -33 -33 -33 -33 -32 -32 -32 -31 -31 -30 -30 -30 -30 -30 -30 -29 -29 -27 -26 -25
-23 -23 -23 -24 -24 -25 -25 -26 -27 -28 -29 -29 -30 -31 -31 -32 -33 -33 -33 -33 -33 -32 -32 -31 -31 -31 -30 -30 -30 -30 -30 -30 -30 -30 -29 -29 -28 -27
-23 -24 -24 -24 -25 -26 -26 -27 -29 -29 -30 -31 -31 -32 -33 -34 -34 -34 -34 -33 -33 -32 -31 -31 -30 -30 -31 -31 -31 -31 -31 -31 -31 -30 -30 -29 -29 -28
-24 -24 -25 -26 -26 -27 -28 -30 -30 -31 -31 -32 -32 -33 -34 -34 -34 -34 -33 -33 -32 -32 -31 -31 -31 -32 -32 -32 -32 -32 -32 -32 -32 -31 -31 -30 -30 -29
-25 -26 -26 -27 -28 -29 -30 -31 -31 -32 -32 -33 -34 -34 -34 -34 -34 -34 -34 -33 -33 -32 -31 -32 -32 -33 -33 -33 -33 -33 -33 -33 -32 -32 -32 -31 -30 -30
-27 -27 -28 -29 -29 -30 -31 -31 -32 -32 -33 -34 -34 -34 -34 -34 -34 -34 -33 -33 -33 -32 -32 -33 -33 -33 -33 -33 -33 -33 -33 -32 -32 -32 -32 -31 -30 -30
-28 -29 -30 -30 -30 -31 -32 -32 -32 -33 -34 -34 -35 -35 -35 -35 -34 -34 -33 -33 -33 -32 -32 -34 -33 -34 -33 -33 -32 -32 -32 -32 -32 -32 -32 -32 -31 -30
-30 -30 -30 -31 -31 -32 -33 -33 -33 -34 -34 -35 -35 -35 -35 -35 -35 -34 -34 -33 -33 -33 -33 -34 -33 -34 -33 -33 -33 -32 -32 -32 -32 -32 -32 -32 -31 -31
-30 -31 -31 -31 -32 -33 -33 -33 -34 -34 -34 -35 -35 -35 -35 -35 -35 -35 -34 -34 -33 -33 -33 -34 -34 -34 -34 -33 -32 -32 -33 -33 -33 -33 -33 -32 -32 -32
-31 -31 -31 -32 -32 -33 -33 -34 -34 -34 -35 -35 -35 -35 -35 -35 -35 -35 -34 -34 -34 -34 -34 -34 -34 -34 -34 -34 -33 -33 -34 -35 -35 -35 -35 -34 -33 -32
-31 -31 -31 -32 -33 -33 -34 -34 -35 -34 -35 -35 -35 -35 -35 -35 -35 -35 -35 -35 -34 -35 -34 -34 -34 -34 -35 -35 -34 -35 -36 -37 -37 -37 -36 -35 -35 -34
-31 -31 -32 -33 -33 -34 -34 -35 -35 -35 -35 -36 -36 -36 -36 -36 -36 -36 -35 -35 -35 -35 -34 -35 -35 -35 -35 -36 -36 -36 -37 -38 -38 -38 -37 -37 -36 -35
-31 -32 -32 -33 -33 -34 -34 -35 -35 -35 -35 -36 -36 -36 -36 -36 -36 -36 -36 -36 -35 -35 -35 -35 -35 -35 -36 -36 -36 -37 -38 -38 -38 -38 -38 -37 -37 -36
-32 -32 -33 -33 -34 -34 -34 -35 -35 -35 -35 -36 -36 -36 -36 -36 -36 -36 -36 -36 -35 -35 -35 -35 -35 -36 -36 -36 -37 -37 -38 -38 -38 -38 -38 -38 -37 -37
-33 -33 -34 -34 -34 -34 -34 -35 -35 -35 -35 -35 -36 -36 -36 -36 -36 -36 -36 -36 -36 -35 -35 -35 -35 -36 -36 -37 -37 -37 -38 -38 -38 -38 -38 -38 -37 -36
-34 -34 -35 -35 -34 -34 -34 -35 -36 -36 -35 -35 -35 -36 -36 -36 -36 -36 -36 -36 -36 -36 -35 -35 -35 -36 -36 -37 -37 -37 -38 -38 -38 -38 -38 -37 -37 -36
-34 -35 -35 -35 -35 -35 -35 -36 -36 -36 -36 -36 -36 -36 -36 -36 -36 -36 -36 -36 -36 -36 -35 -35 -35 -36 -36 -37 -37 -37 -37 -37 -38 -38 -38 -37 -37 -36
-34 -34 -35 -35 -35 -35 -35 -36 -36 -36 -36 -36 -36 -36 -36 -36 -36 -36 -36 -36 -36 -36 -36 -35 -35 -36 -36 -37 -37 -37 -37 -37 -38 -38 -37 -37 -36 -36
-35 -34 -35 -35 -35 -35 -36 -36 -37 -36 -36 -36 -36 -36 -36 -36 -36 -36 -36 -36 -36 -36 -36 -35 -35 -36 -36 -36 -37 -37 -37 -38 -38 -37 -37 -36 -36 -35
-35 -35 -35 -35 -36 -36 -36 -37 -37 -37 -36 -36 -36 -36 -36 -36 -36 -36 -36 -36 -36 -36 -36 -36 -36 -36 -36 -36 -36 -37 -37 -37 -37 -37 -36 -36 -35 -35
-36 -36 -36 -36 -36 -36 -37 -37 -37 -37 -37 -37 -36 -36 -36 -36 -36 -36 -36 -36 -36 -37 -36 -36 -36 -36 -36 -36 -36 -36 -37 -37 -37 -37 -36 -35 -35 -35
-37 -37 -37 -37 -37 -37 -38 -38 -38 -38 -37 -37 -37 -36 -37 -37 -37 -36 -36 -36 -36 -37 -37 -36 -36 -36 -36 -36 -36 -36 -36 -36 -36 -36 -36 -36 -35 -35

GFSNE_500_temp_066.txt.gz
Temp
-20 -21 -21 -22 -22 -23 -23 -24 -24 -24 -24 -25 -26 -27 -28 -29 -30 -31 -31 -31 -32 -32 -33 -33 -33 -33 -32 -31 -31 -30 -30 -30 -30 -30 -29 -27 -26 -25
-21 -22 -22 -23 -23 -24 -24 -25 -25 -26 -26 -27 -28 -29 -30 -31 -31 -31 -32 -32 -33 -33 -34 -34 -33 -33 -32 -31 -31 -30 -30 -30 -30 -30 -30 -29 -27 -27
-22 -23 -23 -24 -24 -25 -25 -26 -27 -27 -28 -29 -30 -31 -31 -31 -31 -32 -33 -34 -34 -34 -34 -33 -33 -32 -32 -31 -31 -30 -30 -30 -30 -30 -30 -29 -29 -28
-23 -24 -25 -25 -26 -27 -27 -28 -29 -29 -30 -30 -31 -31 -32 -32 -32 -33 -34 -34 -34 -34 -34 -33 -33 -32 -32 -31 -30 -30 -30 -30 -30 -30 -30 -29 -29 -29
-24 -25 -25 -26 -28 -28 -29 -30 -30 -30 -30 -31 -32 -32 -32 -33 -34 -34 -34 -34 -34 -34 -33 -33 -32 -32 -31 -31 -31 -31 -31 -31 -31 -31 -31 -31 -30 -30
-25 -26 -27 -29 -29 -30 -30 -30 -30 -31 -31 -32 -32 -33 -33 -34 -34 -35 -35 -35 -35 -34 -33 -33 -32 -32 -32 -31 -32 -32 -32 -32 -32 -32 -32 -32 -32 -31
-26 -28 -29 -29 -30 -30 -30 -31 -31 -31 -32 -33 -33 -33 -34 -34 -35 -35 -35 -35 -35 -34 -33 -33 -32 -32 -32 -32 -33 -33 -33 -33 -32 -32 -32 -33 -32 -32
-28 -29 -29 -30 -30 -31 -31 -31 -31 -32 -33 -33 -34 -34 -34 -35 -35 -35 -35 -35 -35 -34 -33 -34 -32 -33 -33 -33 -33 -33 -33 -33 -32 -32 -32 -32 -32 -32
-29 -30 -30 -30 -31 -31 -31 -31 -32 -33 -33 -33 -34 -34 -35 -35 -35 -35 -35 -35 -35 -34 -33 -34 -33 -34 -34 -34 -33 -33 -33 -33 -32 -32 -32 -32 -32 -31
-30 -30 -31 -31 -31 -31 -31 -32 -32 -33 -33 -34 -34 -34 -35 -35 -35 -35 -35 -35 -35 -35 -33 -34 -34 -34 -34 -34 -34 -33 -33 -33 -33 -32 -32 -32 -32 -31
-31 -31 -31 -31 -31 -31 -31 -32 -33 -33 -33 -34 -35 -35 -35 -36 -35 -35 -36 -36 -36 -36 -34 -34 -35 -35 -34 -34 -34 -34 -34 -34 -34 -33 -33 -33 -32 -32
-31 -31 -31 -31 -31 -32 -32 -33 -33 -34 -34 -34 -35 -35 -35 -36 -36 -36 -36 -36 -36 -36 -35 -35 -35 -35 -35 -35 -34 -34 -35 -35 -35 -36 -36 -36 -36 -34
-31 -31 -31 -32 -32 -32 -33 -34 -34 -34 -34 -35 -35 -35 -35 -36 -36 -36 -36 -36 -36 -36 -35 -35 -36 -35 -34 -35 -35 -35 -36 -36 -37 -37 -38 -38 -38 -37
-31 -31 -32 -32 -33 -33 -33 -34 -34 -34 -35 -35 -35 -35 -35 -36 -36 -36 -36 -36 -36 -36 -36 -35 -35 -35 -35 -35 -36 -36 -36 -37 -38 -38 -38 -38 -38 -38
-32 -32 -33 -33 -34 -34 -34 -35 -35 -35 -35 -36 -36 -36 -35 -36 -36 -36 -36 -36 -36 -36 -36 -36 -35 -35 -35 -35 -36 -36 -37 -37 -38 -38 -38 -38 -38 -38
-33 -33 -33 -34 -35 -34 -35 -35 -35 -35 -35 -36 -36 -36 -36 -36 -36 -36 -36 -36 -36 -36 -36 -36 -36 -35 -35 -35 -36 -37 -37 -37 -38 -38 -38 -38 -38 -37
-33 -33 -34 -35 -35 -35 -35 -35 -35 -35 -35 -36 -36 -36 -36 -36 -36 -36 -36 -36 -36 -36 -37 -36 -35 -35 -35 -36 -36 -37 -37 -37 -37 -38 -38 -38 -38 -37
-34 -36 -36 -35 -36 -36 -35 -35 -35 -35 -36 -36 -37 -36 -36 -36 -36 -36 -36 -36 -36 -36 -37 -36 -36 -36 -36 -36 -36 -37 -37 -37 -37 -38 -39 -38 -38 -37
-36 -37 -36 -36 -37 -37 -36 -36 -36 -36 -36 -37 -37 -37 -36 -36 -36 -36 -36 -36 -36 -36 -36 -36 -36 -36 -36 -36 -36 -37 -37 -38 -38 -38 -38 -38 -37 -37
-36 -36 -36 -37 -37 -37 -36 -36 -36 -36 -37 -37 -37 -37 -37 -36 -36 -36 -36 -36 -36 -36 -36 -36 -36 -36 -36 -36 -36 -36 -37 -38 -38 -38 -38 -37 -37 -37
-36 -36 -36 -37 -37 -37 -37 -37 -37 -37 -37 -38 -37 -37 -37 -37 -36 -36 -36 -36 -36 -36 -36 -36 -36 -36 -36 -36 -36 -36 -36 -37 -37 -37 -37 -37 -36 -36
-35 -36 -36 -36 -37 -37 -37 -37 -37 -38 -38 -38 -37 -37 -37 -37 -37 -37 -37 -37 -37 -36 -36 -36 -36 -36 -36 -36 -36 -36 -36 -36 -37 -37 -37 -36 -36 -36
-36 -36 -36 -37 -37 -37 -38 -38 -38 -38 -39 -38 -38 -38 -38 -37 -37 -37 -37 -37 -37 -37 -37 -37 -37 -36 -36 -36 -36 -36 -36 -37 -37 -36 -37 -36 -36 -35

GFSNE_500_temp_072.txt.gz
Temp
-19 -19 -19 -20 -20 -21 -21 -21 -22 -22 -23 -24 -25 -25 -26 -27 -28 -29 -30 -30 -30 -30 -31 -31 -31 -31 -31 -31 -31 -32 -31 -31 -31 -31 -31 -30 -29 -28
-19 -20 -20 -21 -21 -21 -22 -22 -23 -23 -23 -25 -26 -27 -28 -30 -30 -31 -31 -31 -31 -31 -32 -32 -32 -32 -32 -33 -33 -33 -33 -33 -32 -32 -32 -31 -31 -30
-20 -20 -21 -21 -21 -22 -23 -23 -24 -24 -25 -25 -28 -29 -30 -30 -31 -31 -31 -31 -32 -32 -32 -32 -33 -33 -34 -34 -34 -34 -33 -33 -33 -32 -32 -32 -31 -31
-21 -21 -21 -21 -22 -23 -24 -24 -25 -25 -26 -27 -29 -31 -31 -31 -31 -31 -31 -32 -32 -33 -33 -33 -34 -34 -34 -34 -34 -34 -33 -33 -33 -32 -32 -32 -31 -31
-21 -21 -22 -22 -23 -24 -24 -25 -25 -26 -28 -29 -30 -31 -31 -31 -31 -31 -32 -32 -33 -33 -33 -34 -34 -35 -34 -34 -34 -33 -33 -33 -32 -32 -32 -31 -31 -31
-21 -22 -22 -23 -24 -24 -25 -25 -26 -27 -30 -31 -31 -31 -31 -32 -32 -32 -32 -33 -33 -34 -34 -34 -35 -34 -35 -34 -34 -33 -33 -32 -32 -32 -32 -31 -31 -31
-22 -22 -23 -24 -24 -25 -25 -26 -28 -30 -31 -31 -31 -32 -32 -32 -32 -32 -33 -33 -34 -34 -34 -35 -35 -35 -34 -34 -33 -33 -33 -32 -32 -32 -32 -32 -31 -31
-23 -23 -24 -24 -24 -25 -26 -27 -29 -31 -31 -32 -32 -32 -32 -32 -33 -33 -33 -34 -34 -35 -35 -35 -35 -35 -35 -34 -33 -33 -33 -33 -33 -33 -32 -32 -32 -32
-23 -24 -24 -25 -25 -26 -27 -28 -30 -31 -31 -32 -32 -32 -33 -33 -33 -34 -34 -34 -35 -35 -35 -35 -35 -35 -35 -34 -34 -34 -34 -34 -33 -33 -33 -33 -33 -32
-24 -24 -25 -25 -26 -27 -29 -30 -31 -31 -31 -32 -32 -33 -33 -34 -34 -35 -35 -35 -35 -35 -35 -35 -36 -35 -35 -34 -34 -34 -34 -34 -34 -34 -33 -33 -33 -32
-24 -25 -25 -26 -27 -28 -30 -31 -31 -32 -32 -33 -33 -34 -34 -34 -35 -35 -35 -35 -35 -35 -36 -36 -36 -35 -35 -35 -34 -34 -35 -35 -34 -34 -34 -33 -33 -33
-24 -25 -26 -26 -27 -30 -31 -31 -31 -32 -33 -33 -33 -34 -35 -35 -35 -35 -35 -36 -35 -35 -35 -36 -36 -36 -35 -36 -35 -34 -35 -35 -34 -34 -34 -34 -34 -34
-25 -26 -26 -27 -29 -31 -31 -31 -32 -33 -33 -34 -35 -35 -35 -35 -35 -35 -36 -36 -36 -36 -35 -36 -36 -36 -35 -35 -35 -34 -35 -35 -34 -35 -35 -35 -34 -35
-26 -26 -27 -29 -30 -30 -31 -32 -33 -33 -35 -36 -36 -36 -36 -35 -35 -35 -36 -36 -36 -36 -36 -36 -36 -36 -36 -35 -35 -35 -35 -35 -35 -35 -35 -35 -35 -36
-26 -27 -29 -30 -30 -30 -32 -33 -33 -34 -36 -37 -36 -36 -36 -36 -36 -36 -36 -36 -36 -36 -36 -36 -36 -36 -36 -35 -35 -35 -35 -35 -35 -35 -36 -36 -36 -36
-27 -28 -30 -30 -30 -31 -33 -33 -34 -35 -37 -37 -37 -37 -37 -36 -36 -36 -36 -36 -36 -36 -36 -36 -36 -36 -36 -35 -35 -36 -35 -35 -36 -35 -36 -36 -37 -37
-29 -30 -30 -30 -31 -32 -34 -34 -34 -35 -36 -37 -37 -37 -37 -36 -36 -36 -37 -37 -36 -36 -36 -36 -36 -36 -36 -35 -35 -36 -35 -36 -36 -36 -36 -36 -37 -37
-31 -31 -31 -31 -32 -33 -34 -34 -35 -35 -36 -37 -37 -37 -37 -37 -37 -37 -37 -37 -37 -36 -36 -36 -36 -36 -36 -35 -35 -36 -36 -36 -36 -36 -37 -37 -37 -37
-31 -31 -32 -32 -33 -34 -34 -34 -35 -35 -36 -36 -36 -37 -37 -37 -37 -37 -37 -37 -37 -37 -36 -36 -36 -36 -36 -36 -36 -36 -36 -36 -36 -37 -37 -37 -37 -37
-32 -32 -32 -33 -34 -34 -34 -35 -35 -35 -36 -36 -36 -37 -37 -37 -37 -37 -37 -37 -37 -37 -36 -36 -36 -36 -36 -36 -36 -36 -36 -36 -36 -37 -37 -37 -37 -37
-32 -33 -33 -33 -34 -34 -34 -34 -35 -36 -36 -36 -37 -37 -37 -38 -38 -38 -38 -37 -37 -37 -37 -37 -36 -36 -36 -36 -36 -36 -36 -36 -36 -37 -37 -37 -37 -37
-33 -33 -33 -34 -35 -35 -35 -35 -36 -37 -37 -37 -37 -38 -38 -38 -38 -38 -38 -37 -37 -37 -37 -37 -37 -36 -36 -36 -36 -36 -36 -36 -36 -37 -37 -37 -37 -37
-34 -34 -34 -35 -35 -35 -35 -36 -37 -38 -38 -38 -38 -38 -39 -39 -39 -38 -38 -37 -37 -37 -37 -37 -37 -37 -37 -37 -37 -36 -36 -36 -36 -37 -37 -37 -37 -36

GFSNE_500_temp_075.txt.gz
Temp
-18 -18 -19 -19 -19 -19 -20 -20 -21 -20 -21 -22 -23 -24 -24 -24 -23 -25 -26 -28 -29 -30 -31 -31 -31 -31 -31 -31 -32 -32 -32 -32 -31 -31 -31 -31 -30 -29
-18 -18 -19 -19 -19 -20 -21 -21 -21 -22 -21 -23 -23 -24 -24 -26 -27 -28 -29 -30 -31 -31 -31 -31 -31 -31 -32 -32 -32 -32 -33 -33 -32 -32 -32 -31 -31 -31
-17 -19 -19 -20 -20 -21 -21 -21 -22 -23 -23 -22 -23 -24 -25 -27 -28 -30 -31 -31 -31 -31 -31 -31 -32 -32 -32 -33 -33 -33 -34 -34 -33 -33 -32 -32 -32 -31
-19 -19 -20 -20 -21 -21 -21 -22 -23 -23 -23 -23 -23 -25 -27 -28 -30 -31 -31 -31 -32 -32 -32 -32 -32 -33 -33 -33 -34 -34 -34 -34 -34 -33 -33 -33 -32 -32
-19 -20 -21 -21 -21 -22 -22 -23 -23 -24 -24 -25 -25 -26 -28 -30 -31 -31 -31 -32 -32 -32 -32 -33 -33 -33 -33 -33 -34 -35 -34 -34 -33 -33 -33 -33 -32 -32
-20 -21 -21 -21 -22 -22 -23 -24 -24 -24 -25 -26 -27 -28 -30 -31 -31 -32 -32 -32 -32 -33 -33 -33 -33 -33 -34 -34 -34 -35 -35 -34 -33 -33 -33 -32 -32 -32
-21 -21 -21 -21 -22 -23 -24 -24 -25 -25 -26 -27 -29 -29 -31 -31 -31 -32 -33 -33 -33 -34 -34 -34 -34 -34 -34 -34 -35 -35 -34 -34 -33 -33 -33 -33 -33 -32
-21 -21 -21 -22 -23 -23 -23 -24 -24 -25 -26 -28 -29 -31 -31 -32 -33 -33 -33 -33 -34 -35 -35 -35 -35 -35 -35 -35 -35 -35 -34 -34 -34 -33 -33 -33 -33 -33
-21 -22 -22 -23 -23 -24 -24 -25 -25 -25 -26 -27 -29 -31 -31 -32 -33 -33 -33 -34 -34 -35 -35 -35 -35 -35 -35 -35 -35 -35 -35 -34 -34 -34 -34 -33 -33 -33
-22 -22 -22 -23 -24 -25 -25 -25 -26 -27 -29 -30 -30 -31 -32 -33 -33 -34 -33 -34 -34 -35 -35 -35 -35 -35 -35 -35 -35 -35 -35 -34 -34 -34 -34 -34 -34 -34
-22 -22 -23 -24 -24 -25 -26 -26 -27 -28 -30 -30 -31 -32 -33 -33 -35 -35 -35 -34 -35 -35 -36 -35 -35 -35 -35 -35 -35 -35 -35 -35 -35 -34 -34 -34 -34 -34
-22 -23 -23 -24 -25 -26 -26 -27 -27 -29 -30 -30 -31 -33 -34 -35 -36 -36 -36 -35 -35 -35 -36 -36 -36 -35 -35 -36 -35 -35 -35 -35 -35 -35 -35 -34 -34 -34
-23 -23 -24 -25 -26 -26 -27 -28 -29 -29 -30 -31 -33 -34 -35 -36 -36 -36 -36 -36 -35 -35 -36 -36 -36 -36 -35 -35 -35 -35 -35 -35 -35 -35 -35 -34 -34 -34
-23 -24 -25 -26 -27 -27 -27 -29 -29 -30 -30 -32 -33 -34 -36 -37 -37 -37 -36 -36 -36 -36 -36 -36 -36 -36 -36 -36 -35 -35 -35 -35 -35 -35 -35 -34 -34 -35
-25 -25 -26 -27 -27 -28 -29 -30 -30 -30 -31 -32 -33 -35 -36 -37 -37 -37 -37 -36 -36 -36 -36 -36 -36 -36 -36 -36 -35 -35 -35 -35 -35 -35 -35 -35 -35 -35
-26 -26 -27 -28 -28 -29 -30 -31 -31 -31 -32 -33 -34 -35 -36 -37 -37 -37 -37 -36 -36 -36 -36 -36 -36 -36 -36 -36 -35 -35 -35 -35 -35 -35 -35 -35 -35 -35
-26 -27 -28 -28 -30 -31 -32 -32 -32 -32 -33 -34 -34 -35 -36 -37 -37 -37 -37 -37 -36 -37 -37 -37 -36 -36 -36 -36 -36 -35 -35 -35 -35 -35 -35 -35 -36 -36
-27 -28 -29 -30 -31 -32 -32 -33 -33 -34 -34 -34 -35 -35 -36 -37 -37 -36 -37 -37 -37 -37 -37 -37 -36 -36 -36 -36 -36 -35 -35 -35 -35 -35 -35 -36 -36 -37
-28 -29 -30 -31 -32 -33 -33 -33 -33 -35 -35 -35 -35 -35 -36 -36 -37 -37 -37 -37 -37 -37 -37 -37 -37 -36 -36 -36 -36 -36 -35 -36 -36 -36 -36 -36 -37 -37
-30 -31 -32 -32 -33 -33 -33 -34 -34 -35 -36 -36 -36 -36 -37 -37 -37 -37 -37 -37 -38 -37 -37 -37 -37 -37 -36 -36 -36 -36 -36 -36 -36 -36 -36 -37 -37 -37
-31 -32 -33 -33 -33 -34 -34 -35 -35 -36 -36 -36 -36 -37 -38 -37 -37 -38 -38 -38 -38 -37 -37 -37 -37 -37 -37 -36 -36 -36 -36 -36 -36 -36 -36 -37 -37 -37
-33 -33 -33 -34 -34 -35 -35 -36 -36 -36 -36 -36 -37 -38 -38 -38 -38 -38 -38 -38 -38 -38 -37 -37 -37 -37 -37 -37 -36 -36 -36 -36 -36 -36 -37 -37 -37 -37
-33 -34 -34 -35 -35 -36 -36 -37 -37 -37 -37 -37 -38 -39 -40 -39 -39 -39 -39 -39 -38 -38 -38 -37 -37 -37 -37 -37 -37 -36 -36 -36 -36 -36 -37 -37 -37 -37

GFSNE_500_temp_078.txt.gz
Temp
-18 -18 -18 -19 -19 -19 -20 -19 -19 -19 -20 -20 -21 -21 -22 -23 -23 -23 -23 -22 -23 -23 -25 -28 -30 -31 -31 -31 -31 -31 -31 -32 -32 -32 -32 -32 -32 -31
-18 -18 -18 -18 -18 -19 -19 -19 -20 -20 -20 -21 -21 -21 -22 -23 -23 -24 -24 -23 -24 -26 -28 -29 -30 -31 -32 -32 -32 -32 -32 -32 -32 -32 -32 -32 -32 -32
-18 -18 -18 -18 -18 -19 -19 -20 -20 -21 -21 -21 -21 -22 -22 -23 -23 -24 -24 -26 -27 -29 -30 -30 -31 -32 -32 -32 -32 -32 -33 -33 -33 -33 -33 -33 -33 -33
-17 -17 -18 -18 -19 -19 -20 -20 -21 -21 -22 -21 -22 -22 -22 -23 -23 -24 -25 -26 -29 -30 -31 -31 -32 -32 -33 -33 -33 -33 -34 -34 -33 -34 -34 -34 -33 -33
-18 -19 -19 -19 -20 -21 -21 -21 -22 -22 -22 -22 -22 -23 -24 -24 -25 -26 -27 -28 -30 -31 -31 -32 -32 -33 -33 -33 -34 -34 -34 -34 -35 -34 -34 -34 -33 -33
-19 -19 -20 -21 -21 -21 -22 -22 -22 -22 -23 -23 -24 -24 -24 -25 -26 -28 -29 -30 -31 -31 -32 -32 -33 -33 -33 -34 -35 -35 -35 -35 -35 -35 -34 -34 -33 -33
-19 -20 -21 -21 -22 -22 -22 -22 -22 -23 -23 -24 -24 -24 -25 -26 -27 -28 -29 -30 -31 -33 -33 -33 -33 -34 -34 -35 -35 -35 -35 -35 -35 -35 -35 -34 -33 -33
-20 -21 -21 -22 -22 -22 -22 -22 -23 -23 -23 -24 -24 -25 -25 -26 -27 -29 -30 -32 -32 -34 -34 -34 -34 -34 -35 -35 -35 -35 -35 -35 -35 -35 -35 -34 -33 -33
-21 -21 -22 -22 -22 -22 -22 -23 -23 -24 -25 -25 -26 -26 -26 -28 -29 -30 -31 -32 -33 -34 -35 -34 -35 -34 -35 -35 -35 -35 -35 -35 -35 -35 -35 -34 -34 -34
-21 -22 -22 -22 -23 -23 -23 -23 -23 -24 -25 -25 -26 -27 -28 -29 -30 -31 -32 -33 -34 -36 -36 -35 -35 -35 -35 -36 -36 -35 -35 -35 -35 -35 -35 -34 -34 -34
-22 -22 -22 -23 -23 -23 -23 -23 -24 -25 -26 -27 -27 -29 -29 -30 -30 -32 -33 -34 -36 -37 -36 -35 -35 -35 -35 -36 -36 -35 -35 -35 -35 -35 -35 -35 -34 -35
-22 -22 -23 -23 -23 -23 -24 -24 -25 -26 -26 -27 -28 -29 -30 -30 -31 -32 -34 -35 -37 -37 -37 -35 -35 -35 -35 -36 -36 -36 -36 -35 -35 -35 -35 -35 -35 -35
-22 -23 -23 -23 -24 -24 -24 -25 -26 -26 -27 -28 -29 -30 -31 -31 -32 -33 -35 -36 -37 -37 -37 -36 -36 -36 -36 -36 -36 -36 -36 -35 -35 -35 -35 -35 -35 -35
-23 -23 -23 -24 -24 -24 -25 -26 -27 -28 -28 -29 -30 -31 -32 -32 -33 -33 -33 -36 -37 -37 -37 -36 -36 -36 -36 -36 -36 -36 -36 -35 -35 -35 -35 -35 -35 -35
-23 -23 -24 -24 -24 -25 -26 -27 -28 -29 -30 -31 -32 -32 -32 -33 -34 -34 -35 -36 -37 -37 -37 -37 -36 -36 -36 -36 -36 -36 -35 -36 -35 -35 -35 -35 -35 -35
-24 -24 -24 -25 -26 -27 -28 -28 -29 -30 -31 -32 -32 -33 -33 -34 -34 -35 -36 -37 -36 -36 -37 -37 -37 -37 -37 -36 -36 -36 -36 -35 -35 -35 -35 -35 -35 -35
-24 -25 -25 -26 -27 -28 -28 -30 -31 -32 -33 -33 -34 -34 -34 -35 -35 -36 -36 -36 -36 -36 -36 -37 -37 -37 -37 -36 -36 -36 -36 -36 -35 -35 -35 -35 -35 -35
-25 -25 -26 -27 -28 -29 -30 -31 -32 -33 -33 -34 -34 -36 -35 -36 -36 -37 -37 -37 -36 -36 -37 -37 -37 -37 -37 -37 -36 -36 -36 -36 -35 -36 -36 -36 -36 -36
-26 -27 -28 -29 -30 -31 -32 -32 -33 -34 -34 -34 -35 -37 -38 -37 -37 -37 -37 -37 -37 -37 -37 -37 -37 -37 -37 -37 -37 -36 -36 -36 -36 -36 -36 -36 -36 -36
-28 -29 -30 -31 -31 -32 -33 -33 -34 -34 -35 -35 -36 -37 -37 -38 -38 -38 -39 -38 -37 -37 -37 -38 -38 -37 -37 -37 -37 -36 -36 -36 -36 -36 -36 -36 -36 -36
-29 -30 -31 -32 -33 -33 -34 -34 -35 -35 -36 -36 -37 -37 -37 -37 -38 -39 -39 -38 -38 -38 -38 -38 -38 -37 -37 -37 -37 -37 -36 -36 -36 -36 -36 -36 -37 -36
-31 -32 -33 -33 -34 -34 -35 -35 -36 -36 -37 -37 -37 -37 -38 -38 -39 -39 -40 -39 -39 -39 -39 -38 -38 -38 -37 -37 -37 -37 -37 -37 -36 -36 -36 -37 -37 -37
-32 -33 -33 -34 -35 -35 -36 -37 -37 -37 -38 -38 -38 -38 -38 -38 -40 -40 -40 -40 -40 -39 -39 -39 -38 -38 -38 -37 -37 -37 -37 -37 -37 -37 -36 -37 -37 -37

GFSNE_500_temp_081.txt.gz
Temp
-17 -18 -18 -17 -18 -18 -19 -18 -18 -19 -19 -20 -20 -21 -21 -21 -22 -22 -22 -22 -22 -22 -22 -22 -23 -24 -25 -27 -29 -30 -30 -31 -31 -32 -32 -32 -32 -32
-18 -17 -18 -19 -19 -19 -18 -18 -19 -19 -19 -20 -20 -21 -21 -21 -22 -22 -22 -22 -23 -23 -23 -23 -24 -25 -27 -29 -30 -30 -31 -32 -32 -33 -33 -33 -33 -33
-18 -18 -18 -18 -18 -18 -19 -19 -19 -20 -20 -20 -21 -21 -21 -22 -22 -23 -23 -23 -23 -23 -24 -25 -25 -27 -29 -31 -31 -31 -32 -32 -33 -33 -34 -33 -33 -33
-18 -18 -18 -18 -18 -19 -19 -20 -20 -20 -21 -21 -21 -22 -22 -22 -23 -23 -23 -23 -24 -25 -25 -26 -27 -29 -31 -32 -32 -32 -32 -33 -34 -34 -34 -34 -34 -34
-18 -18 -18 -18 -19 -19 -20 -20 -20 -21 -22 -21 -21 -22 -22 -23 -23 -23 -24 -24 -25 -26 -26 -27 -29 -30 -31 -33 -33 -33 -33 -34 -34 -35 -35 -35 -35 -35
-18 -18 -19 -19 -19 -20 -20 -20 -21 -22 -22 -22 -22 -23 -23 -23 -24 -25 -24 -25 -26 -27 -28 -29 -30 -31 -33 -33 -33 -33 -34 -34 -35 -35 -35 -35 -35 -35
-19 -19 -20 -20 -20 -20 -20 -21 -22 -22 -22 -23 -23 -23 -23 -24 -24 -25 -25 -26 -27 -28 -28 -30 -31 -33 -34 -34 -34 -34 -34 -35 -36 -35 -35 -35 -35 -35
-19 -19 -20 -20 -21 -21 -21 -22 -22 -23 -23 -23 -23 -23 -24 -24 -25 -26 -26 -27 -28 -29 -30 -31 -32 -34 -35 -34 -35 -35 -35 -35 -36 -35 -36 -36 -35 -35
-19 -20 -20 -20 -21 -21 -22 -22 -23 -23 -24 -23 -23 -24 -24 -25 -26 -27 -28 -29 -29 -30 -31 -32 -34 -35 -35 -35 -35 -35 -36 -36 -36 -35 -36 -36 -35 -35
-20 -20 -21 -21 -22 -22 -22 -22 -23 -23 -24 -24 -24 -24 -25 -26 -27 -28 -29 -30 -30 -31 -32 -32 -35 -35 -36 -36 -35 -36 -36 -36 -36 -36 -36 -36 -35 -35
-20 -21 -21 -22 -22 -22 -22 -22 -23 -24 -24 -24 -25 -26 -26 -27 -28 -29 -30 -31 -31 -32 -34 -33 -35 -36 -36 -36 -36 -36 -36 -36 -36 -36 -36 -35 -35 -35
-21 -21 -22 -22 -22 -23 -23 -23 -23 -24 -24 -25 -25 -26 -27 -28 -29 -30 -31 -32 -32 -33 -35 -34 -35 -36 -36 -36 -36 -36 -36 -36 -36 -36 -36 -36 -35 -35
-21 -22 -22 -22 -23 -23 -24 -24 -24 -24 -25 -25 -26 -27 -28 -29 -30 -31 -32 -33 -33 -34 -35 -35 -36 -37 -36 -36 -36 -36 -36 -36 -36 -36 -36 -35 -35 -35
-22 -22 -22 -23 -23 -24 -24 -25 -25 -25 -26 -26 -27 -28 -29 -31 -32 -32 -33 -33 -34 -35 -36 -36 -35 -37 -36 -36 -36 -37 -36 -36 -36 -36 -36 -35 -35 -35
-22 -23 -23 -23 -24 -25 -25 -25 -25 -26 -27 -28 -29 -30 -31 -32 -33 -33 -34 -34 -35 -35 -37 -37 -37 -36 -36 -36 -36 -37 -36 -36 -36 -35 -35 -35 -35 -35
-23 -23 -23 -24 -24 -25 -25 -26 -27 -28 -29 -30 -31 -32 -33 -33 -34 -34 -34 -35 -36 -36 -37 -37 -37 -36 -36 -37 -37 -37 -36 -36 -36 -36 -36 -35 -35 -35
-23 -24 -24 -25 -25 -25 -26 -27 -28 -29 -30 -31 -32 -33 -34 -34 -35 -35 -35 -36 -37 -37 -37 -37 -37 -37 -37 -37 -37 -37 -37 -36 -36 -36 -36 -35 -35 -35
-24 -25 -25 -25 -26 -26 -27 -28 -29 -30 -31 -32 -33 -33 -34 -35 -36 -37 -37 -37 -37 -38 -37 -37 -37 -37 -37 -37 -37 -37 -37 -36 -36 -36 -36 -36 -36 -35
-25 -25 -26 -26 -27 -28 -29 -29 -30 -31 -32 -33 -33 -34 -35 -36 -37 -38 -38 -38 -38 -38 -38 -38 -37 -37 -37 -38 -37 -37 -37 -37 -36 -36 -36 -36 -36 -36
-26 -27 -28 -28 -29 -29 -30 -31 -32 -32 -33 -33 -34 -35 -35 -36 -37 -38 -39 -38 -38 -39 -39 -38 -38 -38 -38 -38 -38 -37 -37 -37 -36 -36 -36 -36 -36 -36
-27 -28 -29 -29 -30 -31 -31 -32 -32 -33 -34 -35 -36 -36 -37 -37 -38 -38 -39 -39 -39 -39 -39 -39 -39 -38 -38 -38 -38 -37 -37 -37 -37 -36 -36 -36 -36 -36
-28 -29 -30 -31 -31 -32 -32 -32 -33 -35 -36 -36 -37 -37 -38 -38 -38 -38 -39 -39 -39 -40 -40 -39 -39 -39 -38 -38 -38 -38 -37 -37 -37 -37 -37 -37 -37 -37
-30 -31 -32 -32 -32 -32 -33 -34 -35 -36 -37 -38 -38 -38 -38 -38 -38 -38 -39 -39 -40 -40 -40 -40 -39 -39 -38 -38 -38 -38 -37 -37 -37 -37 -37 -37 -37 -37

GFSNE_500_temp_084.txt.gz
Temp
-17 -16 -17 -18 -18 -17 -17 -18 -18 -18 -18 -19 -19 -20 -20 -20 -21 -21 -22 -22 -22 -22 -22 -23 -23 -23 -23 -23 -24 -25 -25 -26 -27 -28 -30 -31 -31 -31
-16 -17 -17 -18 -18 -18 -18 -19 -19 -18 -18 -19 -19 -20 -21 -21 -22 -22 -22 -22 -22 -22 -22 -23 -23 -23 -23 -24 -25 -26 -27 -28 -29 -29 -31 -32 -32 -32
-17 -17 -18 -17 -18 -18 -18 -19 -19 -19 -19 -19 -20 -21 -21 -21 -22 -22 -22 -22 -22 -23 -23 -23 -23 -24 -25 -26 -26 -27 -29 -30 -31 -31 -32 -32 -32 -33
-17 -17 -18 -18 -18 -18 -18 -18 -19 -19 -20 -20 -20 -21 -21 -22 -22 -22 -22 -22 -23 -23 -23 -24 -24 -25 -26 -27 -28 -29 -30 -31 -32 -33 -33 -33 -34 -34
-17 -17 -18 -18 -18 -18 -19 -19 -19 -20 -20 -20 -20 -21 -21 -22 -22 -22 -22 -23 -23 -23 -24 -24 -26 -27 -27 -28 -29 -30 -31 -33 -33 -34 -34 -34 -34 -35
-18 -18 -18 -18 -19 -19 -19 -19 -20 -20 -20 -20 -21 -21 -22 -22 -22 -23 -23 -24 -24 -24 -25 -26 -27 -28 -29 -29 -30 -31 -32 -33 -34 -35 -35 -35 -35 -35
-19 -19 -19 -19 -19 -19 -19 -20 -20 -20 -21 -21 -21 -21 -22 -23 -23 -23 -24 -24 -24 -25 -26 -27 -28 -29 -30 -31 -32 -32 -34 -35 -35 -35 -35 -35 -35 -35
-19 -19 -19 -19 -20 -20 -20 -20 -21 -21 -21 -21 -21 -22 -23 -23 -23 -24 -24 -24 -24 -26 -27 -28 -30 -30 -31 -32 -32 -34 -35 -35 -35 -35 -35 -36 -36 -35
-19 -19 -20 -19 -20 -20 -21 -21 -21 -22 -22 -22 -22 -23 -23 -23 -24 -24 -24 -25 -26 -27 -28 -29 -31 -31 -32 -33 -34 -35 -35 -36 -35 -35 -36 -36 -36 -35
-19 -19 -19 -20 -20 -20 -21 -22 -22 -22 -23 -23 -23 -23 -24 -24 -25 -25 -25 -26 -27 -29 -30 -31 -32 -32 -33 -34 -35 -35 -36 -36 -36 -36 -36 -36 -36 -36
-19 -20 -20 -20 -21 -21 -21 -22 -22 -23 -23 -24 -24 -24 -25 -25 -26 -26 -27 -27 -28 -30 -31 -32 -33 -33 -33 -35 -36 -36 -36 -36 -36 -36 -36 -36 -36 -36
-20 -20 -20 -21 -21 -22 -22 -23 -23 -23 -23 -24 -25 -25 -26 -26 -27 -27 -28 -29 -30 -31 -32 -33 -33 -34 -34 -35 -37 -37 -37 -36 -36 -36 -36 -36 -36 -36
-20 -21 -21 -21 -22 -23 -23 -23 -23 -23 -24 -24 -25 -25 -26 -26 -27 -28 -29 -30 -31 -32 -33 -34 -34 -35 -35 -35 -37 -37 -37 -36 -36 -36 -36 -36 -36 -36
-21 -21 -22 -22 -23 -23 -23 -23 -24 -24 -24 -25 -25 -26 -26 -27 -28 -29 -31 -32 -32 -33 -34 -34 -35 -36 -36 -36 -36 -37 -37 -36 -36 -36 -36 -36 -36 -36
-22 -22 -22 -23 -23 -23 -24 -24 -24 -25 -25 -25 -26 -27 -28 -29 -29 -31 -32 -33 -33 -34 -35 -35 -36 -37 -37 -37 -37 -37 -37 -37 -37 -36 -36 -36 -36 -36
-22 -23 -23 -23 -24 -24 -24 -25 -25 -26 -26 -26 -27 -28 -29 -30 -31 -32 -33 -34 -34 -35 -36 -37 -37 -37 -37 -37 -37 -37 -37 -37 -37 -37 -36 -36 -36 -35
-23 -23 -23 -24 -24 -25 -25 -26 -26 -27 -27 -28 -29 -30 -30 -31 -32 -33 -34 -35 -35 -36 -36 -38 -38 -38 -38 -37 -37 -37 -37 -37 -37 -37 -37 -36 -36 -35
-23 -23 -24 -24 -25 -25 -26 -27 -27 -28 -29 -30 -31 -31 -32 -32 -33 -34 -35 -36 -37 -38 -38 -39 -39 -38 -38 -38 -38 -38 -38 -37 -37 -37 -37 -36 -36 -35
-24 -24 -25 -25 -26 -27 -27 -28 -29 -30 -30 -31 -32 -32 -32 -33 -34 -34 -36 -37 -37 -39 -39 -39 -39 -39 -39 -38 -38 -38 -38 -37 -37 -37 -36 -36 -36 -36
-25 -25 -26 -27 -27 -28 -29 -30 -30 -31 -32 -32 -32 -33 -33 -34 -35 -36 -37 -37 -38 -39 -39 -39 -40 -39 -39 -39 -39 -38 -38 -38 -37 -37 -37 -36 -36 -36
-26 -27 -27 -28 -29 -30 -31 -31 -32 -32 -33 -33 -33 -34 -34 -35 -36 -37 -38 -38 -38 -39 -40 -40 -40 -39 -39 -39 -39 -38 -38 -38 -37 -37 -37 -36 -36 -37
-27 -28 -29 -30 -31 -31 -32 -32 -33 -33 -33 -34 -34 -35 -36 -37 -38 -38 -39 -39 -39 -40 -40 -40 -40 -40 -40 -39 -39 -39 -38 -38 -38 -37 -37 -37 -36 -37
-29 -30 -31 -32 -32 -33 -33 -33 -34 -34 -34 -35 -36 -37 -38 -39 -39 -39 -39 -39 -39 -40 -40 -40 -40 -40 -40 -39 -39 -39 -38 -38 -38 -37 -37 -37 -37 -37

GFSNE_500_temp_087.txt.gz
Temp
-16 -16 -16 -16 -16 -16 -17 -17 -17 -17 -17 -18 -18 -19 -19 -19 -19 -20 -20 -20 -20 -21 -21 -22 -22 -22 -22 -23 -23 -23 -24 -24 -24 -25 -26 -27 -27 -28
-17 -17 -17 -17 -17 -17 -17 -17 -18 -17 -17 -18 -18 -19 -20 -20 -20 -20 -20 -21 -21 -22 -22 -23 -23 -23 -23 -23 -24 -24 -24 -25 -26 -26 -28 -28 -29 -30
-17 -17 -17 -17 -17 -17 -17 -17 -17 -18 -18 -18 -19 -19 -20 -20 -21 -21 -21 -21 -21 -22 -22 -23 -23 -23 -23 -24 -24 -24 -25 -26 -27 -28 -29 -30 -31 -31
-17 -17 -17 -17 -18 -17 -17 -18 -18 -19 -19 -19 -20 -20 -20 -21 -21 -21 -22 -22 -22 -22 -22 -23 -23 -23 -23 -24 -24 -25 -25 -27 -29 -30 -31 -31 -32 -32
-17 -18 -18 -18 -17 -17 -17 -19 -19 -19 -20 -20 -20 -20 -20 -21 -21 -22 -22 -22 -22 -23 -23 -23 -24 -24 -24 -25 -25 -26 -27 -29 -30 -31 -32 -32 -33 -33
-18 -17 -18 -18 -18 -18 -19 -19 -20 -20 -20 -20 -20 -20 -21 -22 -22 -22 -22 -22 -23 -23 -24 -24 -24 -25 -25 -26 -26 -27 -29 -30 -31 -32 -32 -33 -34 -34
-18 -18 -18 -18 -19 -19 -20 -20 -20 -20 -20 -20 -20 -20 -21 -22 -22 -22 -22 -22 -23 -24 -24 -25 -25 -25 -26 -27 -27 -29 -30 -31 -32 -33 -33 -34 -34 -35
-18 -18 -19 -19 -20 -20 -20 -20 -20 -20 -20 -20 -20 -21 -22 -23 -23 -23 -23 -23 -23 -24 -25 -25 -26 -26 -27 -28 -29 -30 -31 -32 -33 -33 -34 -35 -35 -35
-19 -19 -19 -20 -20 -20 -20 -20 -20 -21 -21 -21 -21 -22 -22 -23 -23 -23 -23 -24 -24 -25 -25 -25 -26 -27 -28 -29 -30 -31 -33 -33 -34 -34 -35 -35 -35 -36
-19 -20 -20 -20 -20 -20 -20 -20 -20 -21 -21 -21 -21 -22 -23 -23 -23 -23 -24 -24 -24 -25 -26 -26 -27 -28 -29 -30 -31 -33 -33 -34 -34 -35 -36 -36 -36 -36
-20 -19 -19 -20 -20 -20 -20 -20 -21 -21 -22 -22 -23 -23 -23 -24 -24 -24 -25 -25 -25 -26 -27 -28 -29 -30 -31 -31 -33 -33 -34 -34 -35 -35 -36 -36 -36 -36
-19 -20 -20 -20 -20 -20 -21 -21 -22 -22 -23 -23 -23 -24 -24 -25 -25 -26 -26 -27 -27 -27 -29 -29 -30 -31 -32 -32 -33 -34 -35 -35 -35 -36 -36 -36 -36 -36
-20 -20 -20 -20 -21 -21 -21 -22 -22 -23 -23 -23 -24 -24 -25 -25 -26 -27 -27 -28 -28 -28 -30 -31 -31 -32 -33 -33 -34 -35 -36 -36 -36 -36 -37 -36 -36 -36
-20 -20 -21 -21 -21 -22 -22 -22 -23 -23 -23 -24 -24 -25 -25 -26 -27 -27 -28 -28 -29 -30 -31 -32 -32 -33 -34 -34 -35 -36 -37 -37 -37 -37 -36 -36 -37 -36
-20 -21 -21 -21 -22 -22 -23 -23 -23 -24 -24 -25 -25 -26 -26 -27 -28 -28 -29 -29 -30 -31 -32 -33 -33 -34 -35 -35 -36 -37 -38 -38 -37 -36 -37 -37 -37 -36
-22 -22 -22 -22 -23 -23 -23 -24 -24 -24 -25 -25 -26 -27 -28 -28 -29 -29 -30 -30 -31 -32 -33 -34 -34 -35 -37 -38 -38 -38 -39 -38 -38 -37 -37 -37 -37 -37
-22 -22 -22 -23 -23 -23 -24 -24 -24 -25 -26 -27 -28 -28 -29 -29 -30 -31 -31 -32 -32 -33 -33 -34 -36 -36 -37 -38 -39 -39 -39 -38 -37 -37 -37 -37 -37 -37
-22 -23 -23 -23 -23 -24 -24 -25 -26 -26 -27 -28 -29 -30 -30 -31 -31 -32 -32 -33 -33 -34 -34 -35 -37 -38 -38 -39 -39 -39 -38 -38 -38 -38 -38 -38 -37 -37
-23 -23 -24 -24 -25 -25 -26 -26 -27 -28 -29 -30 -30 -31 -31 -32 -32 -33 -33 -34 -34 -34 -36 -37 -38 -40 -40 -39 -40 -39 -39 -38 -38 -38 -38 -37 -37 -37
-24 -24 -25 -25 -26 -27 -28 -29 -29 -30 -31 -31 -32 -32 -32 -33 -33 -34 -34 -34 -35 -36 -37 -38 -39 -39 -40 -40 -40 -39 -39 -38 -38 -38 -38 -38 -37 -37
-25 -25 -26 -27 -28 -29 -29 -30 -31 -31 -32 -32 -33 -33 -33 -34 -34 -35 -35 -36 -36 -38 -38 -39 -40 -40 -40 -40 -40 -40 -39 -39 -39 -38 -38 -38 -37 -37
-26 -27 -28 -29 -30 -30 -31 -31 -32 -32 -33 -33 -34 -34 -35 -35 -35 -36 -37 -38 -39 -39 -39 -39 -40 -40 -40 -40 -40 -40 -39 -39 -39 -38 -38 -38 -37 -37
-28 -29 -30 -31 -31 -32 -32 -33 -33 -34 -34 -35 -35 -36 -36 -37 -37 -38 -39 -40 -40 -40 -39 -40 -41 -41 -41 -41 -40 -40 -40 -39 -39 -38 -38 -38 -37 -37

GFSNE_500_temp_090.txt.gz
Temp
-17 -17 -17 -16 -16 -17 -17 -17 -17 -17 -17 -18 -18 -18 -18 -18 -19 -19 -19 -19 -20 -20 -20 -21 -21 -21 -21 -22 -22 -22 -23 -23 -23 -23 -24 -24 -24 -24
-16 -17 -17 -17 -17 -17 -17 -17 -17 -17 -17 -18 -18 -18 -19 -19 -19 -20 -20 -20 -20 -20 -21 -21 -22 -22 -22 -23 -23 -23 -23 -24 -24 -24 -25 -25 -25 -25
-16 -16 -17 -17 -17 -17 -17 -17 -17 -18 -18 -18 -18 -19 -19 -20 -20 -20 -20 -21 -21 -21 -22 -22 -22 -22 -23 -23 -24 -24 -24 -24 -25 -25 -25 -25 -26 -27
-16 -16 -17 -17 -17 -17 -17 -17 -18 -18 -18 -18 -18 -19 -19 -20 -20 -20 -21 -21 -21 -22 -22 -22 -23 -23 -23 -24 -24 -24 -24 -25 -25 -26 -26 -26 -27 -28
-16 -16 -17 -17 -17 -17 -18 -18 -18 -18 -18 -19 -19 -20 -20 -20 -20 -21 -21 -21 -22 -22 -23 -23 -23 -24 -24 -24 -24 -24 -25 -25 -26 -26 -27 -27 -29 -30
-16 -17 -17 -17 -17 -17 -19 -18 -18 -19 -19 -20 -20 -20 -20 -21 -21 -21 -21 -22 -22 -23 -23 -23 -23 -24 -24 -24 -25 -25 -25 -26 -27 -27 -28 -29 -30 -31
-17 -17 -17 -18 -18 -18 -18 -18 -18 -19 -20 -20 -20 -20 -21 -21 -21 -21 -21 -22 -22 -23 -23 -23 -24 -24 -25 -25 -26 -26 -26 -27 -27 -28 -29 -30 -31 -32
-18 -18 -18 -18 -18 -18 -19 -19 -20 -20 -20 -20 -20 -21 -21 -21 -22 -22 -22 -22 -22 -23 -23 -23 -24 -25 -26 -26 -26 -27 -27 -28 -28 -29 -30 -31 -32 -33
-18 -18 -18 -18 -19 -19 -20 -20 -20 -20 -20 -21 -21 -21 -21 -22 -22 -22 -23 -23 -23 -23 -24 -24 -25 -25 -26 -27 -27 -28 -28 -28 -29 -30 -31 -32 -33 -34
-18 -19 -18 -18 -19 -20 -20 -20 -20 -20 -21 -21 -21 -21 -22 -22 -23 -23 -23 -23 -23 -24 -25 -24 -26 -26 -27 -27 -28 -28 -29 -30 -31 -31 -32 -33 -34 -35
-18 -19 -19 -20 -20 -20 -20 -20 -21 -21 -21 -21 -22 -22 -22 -22 -23 -23 -24 -24 -24 -25 -25 -26 -27 -27 -27 -28 -29 -29 -30 -31 -32 -32 -33 -34 -35 -35
-19 -19 -20 -20 -20 -20 -20 -20 -21 -22 -21 -22 -22 -22 -23 -23 -24 -24 -24 -25 -25 -25 -27 -27 -28 -28 -29 -29 -30 -31 -31 -32 -32 -33 -34 -35 -36 -36
-19 -19 -20 -20 -20 -20 -21 -22 -21 -22 -22 -22 -23 -23 -24 -24 -24 -25 -25 -26 -27 -27 -28 -28 -29 -29 -30 -30 -31 -32 -33 -33 -33 -34 -35 -36 -36 -37
-19 -19 -20 -20 -20 -21 -21 -21 -21 -22 -22 -23 -23 -23 -24 -24 -25 -25 -26 -27 -28 -28 -29 -30 -30 -31 -31 -32 -32 -33 -33 -34 -35 -36 -36 -37 -37 -37
-20 -20 -20 -21 -21 -21 -21 -21 -22 -23 -23 -23 -23 -24 -24 -25 -26 -27 -27 -28 -29 -30 -30 -31 -31 -32 -32 -33 -33 -34 -34 -35 -36 -37 -37 -37 -37 -37
-20 -20 -21 -21 -21 -22 -22 -22 -23 -23 -23 -24 -24 -25 -26 -26 -27 -28 -29 -29 -30 -30 -31 -32 -32 -33 -33 -33 -34 -35 -36 -37 -38 -38 -38 -37 -37 -37
-21 -21 -21 -22 -22 -22 -23 -23 -23 -24 -24 -25 -25 -26 -27 -28 -28 -29 -30 -30 -30 -31 -32 -32 -33 -33 -34 -34 -35 -36 -37 -39 -39 -39 -38 -37 -38 -38
-22 -22 -22 -23 -23 -23 -24 -24 -24 -25 -25 -26 -27 -28 -29 -29 -30 -30 -31 -31 -32 -32 -32 -33 -33 -34 -35 -35 -36 -37 -39 -39 -39 -39 -38 -38 -38 -37
-22 -22 -22 -23 -23 -24 -24 -25 -26 -26 -27 -28 -29 -29 -30 -31 -31 -32 -32 -32 -33 -33 -33 -34 -34 -35 -35 -36 -38 -39 -39 -39 -40 -39 -39 -38 -38 -38
-22 -23 -23 -24 -24 -25 -26 -27 -28 -29 -29 -30 -31 -31 -32 -32 -32 -33 -33 -33 -34 -34 -34 -35 -35 -36 -37 -38 -39 -40 -40 -40 -40 -39 -39 -38 -38 -38
-23 -24 -25 -25 -26 -27 -28 -29 -30 -30 -31 -32 -32 -32 -33 -33 -34 -34 -34 -35 -35 -35 -36 -37 -37 -38 -39 -40 -40 -40 -40 -40 -40 -40 -39 -39 -38 -38
-24 -25 -26 -27 -28 -29 -30 -31 -31 -32 -32 -33 -33 -34 -34 -35 -35 -36 -36 -36 -37 -37 -38 -39 -39 -39 -40 -40 -40 -40 -40 -40 -40 -40 -39 -39 -38 -38
-27 -28 -29 -30 -30 -31 -32 -32 -33 -33 -34 -34 -35 -36 -36 -36 -37 -38 -38 -39 -39 -39 -40 -40 -40 -40 -40 -40 -40 -40 -40 -40 -40 -40 -39 -39 -38 -38

GFSNE_500_temp_093.txt.gz
Temp
-17 -16 -16 -16 -16 -16 -16 -16 -17 -17 -17 -17 -17 -17 -17 -18 -18 -18 -18 -18 -18 -19 -19 -19 -19 -20 -20 -20 -21 -21 -22 -22 -22 -22 -22 -23 -23 -23
-17 -17 -16 -16 -16 -16 -17 -17 -17 -17 -16 -17 -18 -18 -18 -18 -18 -18 -19 -19 -19 -19 -19 -20 -20 -20 -21 -21 -21 -22 -22 -22 -22 -23 -23 -23 -24 -24
-17 -16 -16 -16 -16 -16 -16 -17 -17 -17 -17 -17 -17 -18 -18 -18 -18 -19 -19 -19 -19 -20 -20 -20 -20 -21 -21 -21 -22 -22 -22 -23 -23 -23 -24 -24 -25 -25
-16 -16 -15 -15 -16 -16 -16 -17 -17 -17 -17 -17 -18 -18 -18 -18 -19 -19 -20 -19 -20 -20 -20 -21 -21 -21 -22 -22 -22 -23 -23 -23 -23 -24 -25 -25 -25 -26
-15 -15 -16 -16 -16 -16 -16 -17 -17 -17 -17 -17 -18 -18 -18 -19 -19 -19 -20 -20 -21 -20 -21 -21 -22 -22 -22 -23 -23 -23 -24 -24 -24 -25 -25 -26 -26 -27
-15 -15 -16 -16 -16 -16 -17 -17 -17 -17 -17 -18 -19 -19 -19 -19 -19 -20 -20 -21 -20 -21 -21 -22 -22 -23 -23 -23 -23 -24 -24 -24 -25 -26 -26 -27 -27 -27
-15 -16 -16 -16 -16 -17 -18 -17 -17 -18 -18 -18 -18 -19 -19 -20 -20 -21 -20 -20 -21 -21 -22 -22 -23 -23 -23 -23 -24 -24 -25 -25 -26 -26 -27 -27 -28 -28
-16 -16 -17 -17 -18 -18 -18 -18 -18 -18 -18 -19 -20 -20 -20 -20 -20 -21 -21 -21 -21 -22 -22 -23 -23 -24 -24 -24 -25 -25 -26 -26 -26 -27 -28 -28 -28 -29
-16 -17 -17 -17 -17 -17 -18 -19 -19 -19 -19 -19 -19 -19 -20 -20 -21 -22 -22 -22 -22 -22 -22 -23 -24 -24 -24 -25 -25 -26 -26 -27 -27 -28 -28 -28 -29 -30
-17 -17 -17 -18 -18 -18 -17 -18 -19 -20 -20 -20 -20 -20 -21 -21 -21 -22 -22 -22 -22 -23 -23 -23 -24 -24 -25 -25 -26 -27 -27 -28 -28 -28 -29 -29 -30 -31
-18 -18 -18 -18 -19 -19 -19 -19 -19 -19 -20 -20 -20 -21 -21 -22 -21 -21 -22 -22 -23 -23 -24 -24 -25 -25 -25 -26 -27 -28 -28 -29 -29 -29 -30 -31 -31 -32
-18 -18 -18 -18 -18 -19 -19 -19 -20 -20 -20 -20 -21 -21 -21 -21 -22 -22 -22 -22 -23 -23 -24 -25 -25 -26 -26 -27 -28 -29 -29 -29 -30 -30 -31 -32 -32 -33
-18 -18 -19 -19 -19 -19 -19 -19 -20 -20 -20 -21 -22 -22 -22 -22 -22 -22 -23 -23 -24 -24 -25 -25 -26 -27 -28 -28 -29 -30 -30 -30 -31 -31 -32 -32 -33 -34
-19 -19 -19 -19 -19 -19 -20 -20 -21 -21 -21 -21 -21 -22 -22 -22 -22 -23 -24 -24 -24 -25 -26 -27 -28 -29 -30 -30 -30 -31 -31 -32 -32 -32 -33 -33 -34 -35
-19 -19 -19 -20 -20 -20 -20 -21 -21 -21 -22 -22 -22 -22 -23 -23 -23 -24 -24 -25 -26 -27 -28 -29 -30 -30 -30 -30 -31 -31 -32 -32 -33 -33 -34 -34 -35 -36
-19 -20 -20 -20 -20 -21 -21 -22 -22 -22 -22 -22 -23 -23 -24 -24 -25 -25 -26 -27 -28 -28 -30 -30 -31 -31 -31 -32 -32 -32 -33 -33 -34 -34 -35 -36 -37 -38
-19 -20 -20 -20 -21 -21 -21 -21 -22 -22 -23 -23 -24 -24 -25 -26 -26 -27 -28 -29 -29 -30 -30 -31 -32 -32 -32 -32 -33 -33 -34 -34 -35 -35 -37 -37 -38 -38
-20 -21 -21 -21 -22 -22 -22 -23 -23 -24 -24 -24 -25 -26 -27 -28 -29 -30 -30 -30 -31 -31 -32 -32 -32 -33 -33 -33 -33 -34 -35 -35 -37 -38 -39 -39 -39 -39
-21 -21 -21 -22 -22 -23 -23 -23 -24 -24 -25 -26 -27 -28 -29 -30 -31 -31 -32 -32 -32 -33 -33 -33 -34 -34 -34 -34 -35 -35 -36 -37 -38 -39 -39 -39 -39 -38
-22 -22 -22 -23 -23 -23 -24 -25 -26 -27 -28 -29 -30 -30 -31 -32 -32 -33 -33 -33 -34 -34 -35 -35 -35 -35 -35 -35 -36 -37 -37 -38 -39 -40 -40 -40 -39 -38
-22 -22 -22 -23 -24 -25 -26 -27 -28 -29 -30 -30 -31 -32 -33 -33 -34 -34 -35 -35 -36 -36 -36 -37 -37 -37 -37 -37 -38 -39 -39 -40 -40 -40 -40 -40 -39 -39
-23 -23 -24 -25 -27 -28 -29 -29 -30 -31 -31 -32 -33 -33 -34 -35 -36 -37 -37 -38 -38 -38 -38 -39 -39 -39 -39 -39 -40 -40 -40 -40 -40 -40 -40 -40 -39 -39
-25 -26 -27 -28 -29 -29 -30 -31 -32 -33 -34 -35 -36 -36 -37 -38 -38 -39 -39 -40 -40 -40 -40 -40 -40 -40 -40 -40 -40 -40 -40 -40 -40 -40 -40 -40 -39 -39

GFSNE_500_temp_096.txt.gz
Temp
-15 -16 -15 -15 -15 -16 -16 -16 -16 -16 -15 -16 -16 -17 -17 -17 -17 -17 -17 -17 -17 -18 -18 -18 -19 -19 -19 -19 -19 -19 -20 -20 -20 -20 -20 -21 -21 -21
-15 -15 -15 -15 -16 -16 -16 -16 -16 -16 -16 -15 -16 -17 -17 -17 -17 -17 -17 -18 -18 -18 -18 -18 -19 -19 -19 -19 -19 -19 -20 -20 -20 -21 -21 -21 -22 -22
-16 -16 -16 -15 -15 -16 -16 -16 -16 -16 -16 -16 -16 -17 -17 -18 -17 -18 -17 -18 -18 -18 -18 -19 -19 -19 -19 -19 -19 -20 -20 -21 -21 -21 -22 -22 -23 -23
-16 -16 -15 -15 -15 -15 -15 -16 -15 -16 -16 -16 -17 -17 -17 -17 -17 -17 -18 -18 -18 -19 -19 -19 -19 -19 -20 -20 -20 -21 -21 -21 -21 -22 -23 -23 -23 -23
-16 -15 -15 -15 -15 -15 -15 -15 -15 -16 -16 -16 -16 -17 -17 -17 -17 -18 -18 -19 -19 -19 -19 -19 -20 -20 -21 -20 -21 -21 -21 -22 -22 -23 -23 -23 -24 -24
-15 -15 -15 -15 -15 -16 -15 -15 -16 -16 -16 -16 -17 -17 -17 -17 -17 -18 -18 -19 -19 -19 -19 -20 -20 -20 -21 -21 -21 -22 -22 -22 -23 -23 -24 -24 -24 -25
-15 -15 -16 -16 -16 -16 -16 -15 -16 -16 -16 -17 -18 -18 -18 -18 -18 -18 -19 -19 -19 -19 -20 -20 -21 -21 -21 -22 -22 -22 -22 -23 -23 -24 -24 -25 -25 -26
-16 -16 -16 -16 -16 -16 -17 -17 -17 -17 -17 -17 -16 -18 -18 -18 -18 -19 -19 -19 -20 -19 -20 -20 -21 -21 -21 -21 -22 -22 -23 -23 -24 -24 -25 -25 -26 -27
-16 -16 -16 -17 -17 -17 -17 -18 -18 -18 -18 -17 -18 -18 -18 -18 -19 -19 -20 -19 -20 -20 -21 -21 -21 -21 -21 -22 -22 -23 -23 -24 -24 -25 -26 -26 -27 -28
-17 -17 -17 -17 -18 -18 -18 -18 -18 -18 -18 -19 -19 -19 -19 -19 -19 -19 -20 -20 -20 -21 -21 -21 -22 -22 -22 -22 -23 -23 -24 -25 -25 -26 -27 -28 -28 -29
-18 -18 -18 -18 -18 -18 -18 -18 -18 -18 -19 -19 -19 -19 -19 -20 -20 -20 -20 -20 -21 -22 -22 -21 -22 -22 -22 -23 -23 -24 -25 -26 -27 -27 -28 -29 -30 -29
-17 -18 -18 -18 -18 -18 -19 -19 -19 -19 -19 -19 -20 -20 -20 -20 -20 -20 -21 -21 -22 -22 -22 -22 -22 -23 -23 -23 -24 -25 -26 -27 -28 -29 -30 -29 -30 -31
-18 -18 -18 -19 -19 -19 -19 -19 -19 -20 -20 -20 -20 -20 -20 -21 -21 -21 -22 -22 -22 -22 -22 -23 -23 -24 -24 -25 -26 -27 -28 -29 -29 -30 -30 -31 -31 -32
-18 -19 -19 -19 -19 -19 -19 -19 -19 -19 -20 -20 -20 -21 -21 -21 -22 -22 -22 -22 -22 -23 -23 -24 -24 -25 -26 -27 -28 -29 -29 -29 -30 -31 -31 -32 -32 -32
-19 -19 -19 -19 -19 -19 -20 -20 -20 -20 -20 -21 -21 -21 -21 -22 -22 -23 -23 -23 -24 -24 -25 -26 -27 -28 -28 -29 -29 -30 -30 -31 -32 -32 -32 -33 -33 -33
-19 -19 -20 -20 -19 -20 -20 -20 -20 -21 -21 -21 -21 -22 -22 -22 -23 -23 -24 -24 -25 -26 -27 -28 -29 -29 -30 -30 -31 -31 -32 -32 -33 -33 -33 -34 -34 -34
-20 -20 -20 -20 -20 -20 -20 -20 -20 -21 -21 -22 -22 -23 -23 -24 -24 -25 -26 -26 -27 -28 -29 -30 -30 -31 -31 -32 -32 -32 -33 -33 -34 -34 -35 -35 -35 -36
-20 -20 -20 -20 -20 -20 -21 -21 -21 -22 -22 -22 -23 -24 -25 -26 -27 -28 -29 -29 -30 -30 -31 -32 -32 -33 -33 -34 -34 -34 -34 -35 -35 -35 -36 -36 -37 -38
-20 -20 -20 -20 -21 -21 -21 -21 -22 -23 -24 -25 -26 -27 -28 -29 -29 -30 -31 -31 -32 -33 -33 -34 -34 -35 -35 -35 -36 -36 -35 -36 -36 -36 -37 -38 -39 -39
-20 -20 -21 -21 -21 -21 -22 -22 -23 -25 -27 -28 -29 -29 -30 -30 -31 -32 -33 -34 -35 -35 -36 -37 -37 -37 -37 -37 -37 -38 -37 -37 -37 -38 -39 -39 -40 -39
-21 -21 -21 -21 -22 -22 -24 -27 -28 -29 -29 -30 -31 -32 -32 -33 -34 -35 -36 -36 -37 -38 -38 -38 -39 -39 -38 -38 -38 -39 -38 -38 -38 -39 -40 -40 -40 -40
-21 -21 -22 -23 -25 -28 -29 -29 -30 -31 -32 -34 -34 -34 -35 -36 -36 -37 -38 -38 -39 -39 -40 -40 -40 -40 -40 -40 -40 -40 -39 -39 -40 -40 -40 -39 -39 -40
-22 -23 -25 -28 -29 -30 -31 -32 -33 -34 -35 -36 -36 -36 -38 -38 -39 -40 -40 -41 -41 -41 -41 -41 -41 -41 -41 -41 -41 -40 -40 -40 -40 -40 -40 -40 -40 -40

GFSNE_500_temp_099.txt.gz
Temp
-15 -15 -15 -15 -15 -15 -16 -16 -16 -15 -14 -15 -15 -16 -16 -16 -16 -16 -16 -17 -17 -17 -17 -17 -17 -18 -18 -18 -18 -18 -18 -19 -19 -19 -19 -19 -19 -20
-15 -15 -15 -15 -16 -15 -16 -16 -15 -16 -14 -15 -15 -15 -16 -16 -16 -16 -16 -16 -17 -18 -18 -18 -18 -18 -18 -18 -18 -19 -19 -19 -19 -19 -19 -19 -20 -20
-15 -15 -15 -16 -15 -15 -15 -15 -15 -16 -15 -14 -14 -15 -15 -16 -16 -16 -16 -16 -16 -17 -18 -19 -18 -19 -18 -19 -19 -19 -19 -20 -20 -20 -20 -20 -20 -21
-15 -15 -15 -15 -15 -15 -15 -15 -15 -15 -15 -15 -15 -15 -15 -16 -16 -16 -16 -17 -17 -17 -18 -18 -18 -18 -18 -19 -19 -19 -19 -20 -20 -20 -20 -21 -21 -21
-15 -15 -15 -15 -15 -16 -16 -15 -15 -15 -15 -15 -15 -15 -16 -16 -17 -16 -16 -16 -17 -17 -17 -18 -18 -18 -18 -19 -19 -19 -20 -20 -20 -20 -21 -21 -21 -22
-15 -15 -15 -16 -16 -16 -16 -16 -15 -15 -16 -16 -16 -16 -16 -16 -16 -17 -17 -17 -17 -17 -17 -18 -18 -18 -18 -19 -19 -20 -20 -20 -20 -21 -21 -21 -22 -22
-15 -15 -16 -16 -15 -15 -15 -16 -16 -16 -16 -17 -17 -17 -17 -17 -17 -17 -17 -17 -17 -18 -18 -18 -18 -19 -19 -19 -20 -20 -20 -20 -21 -21 -21 -22 -22 -23
-16 -16 -16 -16 -16 -16 -16 -17 -17 -17 -17 -17 -17 -17 -18 -18 -18 -18 -18 -18 -18 -18 -19 -19 -19 -19 -20 -20 -20 -20 -21 -21 -21 -21 -22 -22 -23 -23
-16 -16 -16 -16 -17 -17 -17 -17 -17 -18 -18 -18 -18 -18 -18 -18 -18 -18 -18 -19 -19 -19 -19 -19 -20 -20 -20 -20 -20 -21 -21 -22 -22 -22 -22 -23 -23 -24
-17 -17 -17 -17 -17 -17 -18 -18 -18 -18 -18 -18 -19 -19 -18 -18 -19 -19 -19 -19 -19 -19 -19 -19 -20 -20 -20 -20 -21 -21 -22 -22 -22 -23 -23 -23 -24 -26
-17 -17 -17 -17 -18 -18 -18 -18 -18 -18 -18 -19 -19 -19 -19 -19 -19 -19 -20 -20 -20 -20 -20 -21 -20 -21 -21 -21 -22 -22 -22 -22 -23 -24 -24 -25 -27 -28
-17 -18 -18 -18 -18 -18 -18 -18 -18 -19 -19 -19 -19 -19 -20 -20 -20 -20 -20 -21 -21 -21 -21 -22 -22 -22 -22 -22 -22 -23 -24 -24 -24 -25 -26 -28 -29 -29
-18 -18 -18 -18 -19 -19 -19 -19 -19 -19 -20 -20 -20 -20 -19 -20 -20 -20 -21 -21 -21 -22 -22 -23 -23 -23 -23 -23 -23 -24 -24 -25 -27 -28 -29 -30 -30 -30
-18 -18 -19 -19 -19 -19 -19 -20 -20 -20 -20 -20 -20 -20 -20 -20 -20 -21 -21 -21 -22 -22 -22 -23 -24 -24 -25 -25 -25 -26 -27 -28 -29 -29 -30 -31 -31 -32
-19 -19 -19 -19 -19 -20 -20 -20 -20 -20 -20 -20 -20 -20 -20 -20 -20 -21 -21 -22 -22 -22 -23 -24 -25 -26 -27 -28 -28 -29 -29 -30 -31 -32 -32 -33 -33 -33
-19 -19 -19 -20 -20 -20 -20 -20 -20 -20 -20 -20 -20 -20 -20 -21 -21 -21 -21 -22 -23 -24 -26 -27 -28 -28 -29 -29 -30 -30 -32 -32 -33 -33 -34 -34 -34 -35
-19 -20 -20 -20 -20 -20 -20 -20 -20 -20 -20 -20 -20 -20 -21 -21 -22 -23 -25 -26 -27 -28 -28 -29 -30 -30 -31 -31 -32 -33 -34 -34 -35 -35 -35 -35 -35 -36
-20 -20 -20 -20 -20 -20 -20 -20 -20 -20 -20 -21 -21 -22 -23 -25 -26 -28 -29 -29 -30 -30 -31 -31 -32 -32 -33 -34 -35 -35 -36 -36 -36 -36 -36 -36 -36 -37
-20 -20 -20 -20 -20 -20 -20 -20 -20 -20 -21 -22 -23 -26 -28 -28 -29 -30 -31 -32 -32 -33 -33 -33 -34 -35 -35 -35 -37 -38 -37 -37 -37 -38 -37 -37 -37 -38
-20 -20 -20 -20 -20 -20 -20 -20 -20 -21 -24 -26 -28 -29 -31 -32 -33 -33 -34 -34 -34 -35 -35 -36 -37 -37 -37 -37 -38 -39 -39 -38 -38 -38 -38 -38 -38 -39
-20 -20 -20 -20 -20 -20 -20 -22 -24 -26 -28 -30 -31 -32 -33 -34 -35 -36 -36 -36 -37 -37 -38 -38 -39 -39 -39 -39 -40 -40 -40 -39 -39 -39 -39 -39 -39 -39
-21 -20 -20 -20 -21 -22 -24 -26 -28 -30 -31 -32 -34 -35 -35 -36 -37 -37 -37 -38 -39 -39 -40 -40 -41 -41 -41 -41 -41 -41 -40 -40 -40 -39 -40 -39 -39 -40
-20 -20 -21 -22 -24 -26 -28 -30 -31 -33 -34 -35 -35 -36 -37 -38 -38 -38 -39 -40 -40 -41 -41 -41 -41 -42 -42 -41 -41 -41 -40 -40 -40 -40 -40 -40 -40 -40

GFSNE_500_temp_102.txt.gz
Temp
-14 -15 -15 -15 -16 -16 -15 -15 -15 -15 -15 -15 -15 -15 -15 -16 -16 -15 -15 -15 -16 -16 -16 -16 -16 -16 -17 -17 -17 -17 -18 -18 -18 -19 -19 -19 -19 -19
-15 -15 -15 -16 -16 -16 -16 -16 -16 -15 -13 -15 -15 -16 -16 -16 -16 -15 -15 -15 -16 -16 -16 -16 -16 -17 -17 -17 -17 -17 -18 -18 -18 -19 -19 -19 -19 -19
-15 -16 -16 -16 -16 -16 -16 -16 -15 -15 -14 -14 -15 -15 -15 -15 -15 -16 -16 -16 -16 -17 -17 -17 -17 -17 -17 -17 -18 -17 -18 -18 -18 -19 -19 -19 -19 -20
-16 -15 -16 -16 -16 -16 -16 -16 -16 -15 -15 -14 -15 -15 -16 -15 -16 -16 -16 -16 -16 -16 -16 -17 -17 -17 -18 -17 -18 -18 -18 -18 -19 -19 -19 -19 -19 -20
-15 -15 -15 -16 -16 -16 -16 -16 -16 -16 -16 -15 -15 -16 -16 -16 -16 -16 -16 -16 -16 -16 -16 -16 -17 -17 -18 -18 -17 -18 -18 -19 -19 -19 -19 -19 -20 -20
-16 -16 -16 -16 -16 -16 -16 -16 -16 -15 -16 -16 -16 -16 -16 -16 -16 -16 -16 -17 -17 -17 -17 -17 -17 -17 -17 -17 -18 -18 -19 -19 -20 -20 -20 -20 -20 -21
-16 -16 -16 -16 -16 -16 -16 -16 -16 -16 -16 -16 -16 -16 -16 -16 -16 -17 -17 -17 -17 -18 -18 -18 -18 -18 -18 -18 -18 -19 -19 -20 -20 -20 -20 -20 -21 -21
-15 -16 -16 -16 -16 -16 -16 -16 -17 -17 -17 -17 -17 -17 -17 -17 -17 -17 -17 -18 -18 -19 -19 -19 -19 -19 -19 -19 -19 -19 -20 -20 -20 -21 -21 -21 -22 -22
-16 -16 -16 -16 -16 -17 -17 -17 -17 -17 -17 -17 -18 -18 -18 -18 -18 -18 -18 -18 -19 -19 -19 -19 -19 -19 -19 -19 -19 -20 -20 -20 -21 -21 -22 -22 -23 -23
-16 -17 -17 -17 -17 -17 -17 -17 -17 -17 -18 -18 -18 -18 -19 -19 -19 -19 -19 -19 -19 -19 -20 -19 -20 -20 -20 -20 -20 -20 -21 -21 -22 -22 -22 -22 -23 -23
-17 -17 -17 -17 -17 -17 -17 -18 -18 -18 -18 -18 -18 -19 -19 -19 -19 -19 -19 -20 -20 -20 -20 -20 -20 -20 -20 -20 -21 -21 -22 -22 -23 -23 -23 -23 -24 -25
-18 -17 -17 -17 -17 -17 -18 -18 -18 -18 -18 -19 -19 -19 -19 -19 -20 -20 -20 -20 -20 -20 -20 -20 -20 -21 -20 -20 -21 -22 -22 -23 -24 -24 -24 -25 -26 -27
-17 -17 -17 -17 -17 -18 -18 -18 -18 -18 -18 -19 -19 -19 -19 -20 -20 -20 -20 -20 -20 -20 -20 -20 -20 -21 -21 -21 -21 -22 -24 -25 -26 -26 -27 -27 -28 -29
-17 -17 -17 -18 -18 -18 -18 -19 -19 -19 -19 -19 -20 -20 -19 -19 -20 -20 -20 -20 -20 -20 -20 -20 -20 -21 -22 -23 -24 -25 -26 -27 -28 -29 -29 -30 -30 -31
-18 -18 -18 -18 -19 -19 -19 -19 -19 -19 -20 -20 -20 -20 -20 -20 -20 -20 -20 -20 -20 -20 -21 -21 -23 -24 -26 -27 -27 -28 -29 -29 -30 -31 -32 -32 -33 -33
-18 -18 -19 -19 -19 -19 -19 -20 -20 -20 -20 -20 -20 -20 -20 -20 -19 -19 -19 -20 -20 -22 -24 -26 -27 -28 -29 -30 -30 -30 -31 -31 -32 -33 -33 -34 -35 -36
-19 -20 -19 -19 -20 -20 -20 -20 -20 -20 -20 -20 -20 -20 -19 -19 -19 -20 -21 -22 -25 -26 -28 -29 -30 -31 -32 -32 -33 -33 -33 -34 -34 -34 -35 -35 -36 -37
-20 -20 -20 -20 -20 -20 -20 -20 -20 -20 -20 -19 -19 -19 -20 -20 -22 -24 -26 -28 -29 -30 -31 -32 -33 -33 -34 -34 -35 -35 -35 -36 -36 -37 -37 -37 -38 -38
-21 -21 -20 -20 -20 -20 -20 -20 -20 -20 -19 -19 -20 -20 -22 -24 -27 -29 -30 -31 -33 -34 -34 -35 -35 -35 -35 -36 -38 -38 -37 -37 -38 -38 -38 -38 -38 -38
-21 -20 -20 -20 -20 -20 -20 -20 -20 -19 -20 -21 -22 -25 -27 -29 -31 -32 -33 -34 -35 -36 -37 -37 -37 -37 -38 -38 -39 -40 -39 -39 -39 -39 -39 -39 -38 -39
-20 -20 -20 -20 -20 -20 -20 -20 -20 -21 -22 -25 -28 -30 -31 -32 -33 -34 -35 -36 -37 -38 -38 -38 -39 -39 -40 -40 -40 -41 -40 -40 -40 -40 -39 -39 -39 -39
-20 -20 -20 -20 -20 -20 -20 -21 -23 -25 -28 -30 -31 -32 -33 -34 -35 -36 -37 -38 -38 -39 -39 -40 -40 -41 -41 -41 -41 -41 -41 -41 -40 -40 -39 -40 -39 -39
-21 -21 -21 -20 -21 -21 -23 -26 -28 -30 -31 -32 -33 -34 -34 -35 -36 -37 -38 -39 -39 -40 -40 -41 -41 -41 -41 -41 -41 -41 -41 -40 -40 -40 -40 -40 -40 -40

GFSNE_500_temp_105.txt.gz
Temp
-15 -14 -14 -14 -14 -14 -15 -15 -15 -15 -15 -16 -15 -16 -16 -16 -16 -16 -16 -16 -16 -16 -16 -16 -16 -16 -16 -16 -16 -17 -17 -17 -17 -17 -18 -18 -18 -18
-14 -14 -14 -15 -15 -15 -15 -15 -15 -15 -14 -16 -16 -16 -16 -16 -16 -16 -15 -16 -16 -16 -16 -16 -16 -16 -17 -17 -17 -17 -17 -18 -18 -18 -18 -18 -18 -18
-15 -15 -15 -15 -15 -15 -15 -16 -16 -16 -15 -15 -16 -16 -16 -16 -16 -16 -16 -16 -16 -16 -16 -16 -16 -16 -17 -17 -17 -17 -18 -18 -19 -18 -19 -19 -19 -19
-15 -15 -15 -15 -16 -16 -16 -16 -16 -16 -16 -15 -16 -16 -16 -16 -16 -16 -16 -16 -16 -16 -16 -16 -17 -17 -17 -17 -17 -18 -18 -18 -18 -18 -19 -19 -19 -19
-15 -15 -16 -16 -16 -16 -16 -16 -16 -16 -16 -16 -16 -16 -16 -16 -16 -16 -16 -16 -16 -16 -16 -17 -17 -17 -17 -17 -17 -18 -18 -19 -19 -19 -19 -19 -20 -20
-16 -16 -16 -16 -16 -16 -16 -16 -16 -16 -16 -16 -16 -16 -16 -16 -16 -16 -16 -17 -17 -17 -16 -17 -16 -16 -16 -16 -17 -18 -19 -19 -19 -19 -19 -19 -19 -19
-16 -16 -16 -16 -16 -16 -16 -16 -16 -16 -16 -16 -16 -16 -17 -17 -17 -17 -16 -16 -17 -17 -17 -17 -17 -17 -17 -17 -17 -18 -18 -19 -19 -19 -20 -20 -20 -20
-16 -16 -16 -16 -16 -16 -16 -15 -16 -17 -17 -17 -17 -17 -17 -17 -17 -17 -17 -17 -17 -17 -17 -18 -18 -18 -18 -18 -19 -19 -19 -19 -19 -20 -20 -20 -20 -20
-16 -16 -16 -16 -16 -16 -16 -15 -17 -17 -18 -17 -17 -17 -17 -17 -17 -18 -18 -18 -18 -18 -17 -18 -19 -19 -19 -19 -19 -19 -20 -20 -20 -20 -20 -20 -20 -21
-17 -16 -16 -16 -16 -16 -16 -17 -17 -17 -17 -17 -17 -17 -17 -18 -18 -18 -18 -18 -18 -19 -18 -18 -18 -19 -19 -19 -19 -19 -19 -19 -20 -20 -20 -20 -20 -21
-17 -16 -16 -16 -16 -18 -17 -17 -17 -17 -17 -17 -17 -17 -18 -18 -18 -18 -18 -18 -19 -19 -19 -19 -19 -19 -19 -19 -19 -19 -19 -19 -19 -20 -20 -20 -21 -22
-16 -16 -15 -16 -16 -16 -16 -17 -17 -17 -17 -17 -17 -18 -18 -18 -18 -19 -19 -19 -19 -19 -19 -19 -19 -19 -19 -19 -19 -19 -19 -19 -20 -20 -21 -22 -24 -25
-16 -17 -16 -16 -16 -17 -17 -17 -17 -17 -17 -18 -18 -19 -19 -19 -19 -19 -19 -19 -19 -20 -19 -19 -19 -19 -19 -19 -19 -19 -19 -20 -21 -23 -24 -25 -26 -28
-17 -17 -17 -17 -17 -17 -17 -18 -18 -17 -18 -19 -19 -19 -19 -20 -20 -20 -20 -20 -20 -19 -19 -19 -19 -19 -19 -19 -20 -20 -22 -23 -24 -26 -27 -28 -29 -30
-17 -17 -17 -17 -18 -17 -17 -18 -18 -18 -19 -19 -20 -20 -20 -20 -20 -20 -20 -19 -19 -19 -19 -19 -20 -20 -22 -24 -25 -26 -27 -28 -29 -29 -30 -31 -31 -32
-18 -18 -18 -18 -17 -18 -18 -18 -19 -19 -20 -20 -20 -20 -20 -20 -20 -20 -19 -19 -19 -19 -21 -22 -25 -27 -28 -29 -30 -30 -31 -31 -31 -32 -32 -33 -34 -34
-18 -18 -18 -18 -18 -19 -19 -19 -20 -20 -20 -20 -20 -20 -20 -20 -20 -19 -19 -19 -20 -22 -25 -28 -29 -30 -32 -32 -33 -33 -33 -33 -33 -33 -34 -34 -35 -35
-18 -19 -19 -19 -19 -19 -20 -21 -20 -20 -20 -20 -20 -20 -20 -20 -19 -20 -21 -23 -26 -28 -29 -31 -32 -33 -34 -36 -36 -34 -34 -34 -36 -36 -36 -36 -37 -36
-19 -20 -19 -20 -20 -20 -21 -21 -20 -20 -20 -20 -20 -20 -20 -20 -21 -23 -26 -28 -30 -31 -32 -33 -34 -35 -35 -36 -38 -38 -35 -37 -38 -38 -38 -37 -38 -38
-19 -20 -20 -21 -21 -21 -21 -21 -20 -20 -20 -20 -20 -20 -21 -23 -26 -28 -30 -31 -32 -33 -35 -36 -37 -37 -37 -37 -38 -39 -39 -39 -39 -39 -39 -39 -40 -39
-20 -20 -21 -21 -21 -21 -21 -21 -21 -21 -21 -21 -22 -23 -25 -28 -30 -31 -32 -33 -34 -35 -37 -38 -38 -38 -39 -39 -39 -40 -40 -40 -40 -39 -40 -40 -40 -39
-21 -21 -21 -21 -21 -21 -21 -21 -21 -21 -22 -24 -26 -28 -30 -31 -32 -32 -33 -35 -36 -38 -38 -39 -39 -40 -40 -40 -40 -40 -40 -40 -40 -40 -40 -39 -39 -39
-21 -21 -21 -21 -21 -21 -21 -22 -22 -24 -26 -28 -30 -31 -32 -33 -33 -34 -35 -37 -38 -39 -39 -40 -40 -40 -41 -41 -40 -40 -40 -40 -40 -40 -40 -40 -40 -39

GFSNE_500_temp_108.txt.gz
Temp
-13 -14 -14 -15 -15 -14 -14 -14 -14 -15 -15 -16 -16 -17 -16 -16 -16 -16 -16 -16 -16 -16 -16 -16 -16 -16 -16 -16 -16 -16 -17 -17 -17 -17 -17 -17 -17 -18
-14 -14 -15 -15 -15 -14 -14 -14 -15 -15 -15 -16 -16 -16 -16 -16 -16 -16 -16 -16 -16 -16 -16 -16 -16 -17 -17 -16 -17 -17 -17 -17 -17 -17 -18 -18 -18 -18
-15 -15 -15 -15 -15 -15 -15 -15 -15 -15 -15 -15 -16 -16 -16 -16 -16 -16 -16 -16 -16 -16 -16 -17 -17 -16 -17 -17 -17 -17 -17 -17 -18 -18 -18 -18 -18 -19
-15 -15 -15 -15 -15 -15 -15 -15 -15 -15 -15 -15 -16 -16 -16 -16 -16 -16 -16 -16 -17 -16 -16 -16 -17 -16 -17 -17 -17 -17 -17 -18 -18 -18 -18 -18 -19 -19
-15 -15 -15 -15 -16 -16 -16 -16 -16 -16 -16 -16 -16 -16 -16 -16 -15 -16 -16 -17 -17 -16 -16 -16 -17 -17 -17 -17 -17 -17 -18 -18 -18 -18 -18 -19 -19 -19
-16 -16 -16 -16 -16 -16 -16 -16 -16 -16 -17 -16 -16 -16 -16 -16 -16 -16 -17 -17 -17 -17 -17 -16 -16 -16 -16 -17 -17 -17 -18 -18 -18 -19 -19 -19 -20 -20
-15 -16 -16 -16 -16 -16 -16 -16 -16 -16 -16 -16 -16 -17 -17 -17 -16 -17 -17 -17 -16 -16 -16 -16 -17 -17 -17 -17 -17 -18 -18 -18 -18 -18 -19 -19 -19 -20
-16 -16 -16 -16 -16 -17 -16 -16 -16 -17 -16 -16 -17 -17 -17 -17 -17 -17 -17 -16 -16 -16 -16 -16 -17 -17 -17 -17 -18 -18 -18 -18 -19 -19 -19 -19 -19 -20
-16 -16 -16 -16 -16 -16 -16 -16 -16 -16 -16 -16 -17 -17 -17 -17 -17 -17 -17 -16 -16 -16 -16 -16 -17 -17 -18 -18 -19 -19 -19 -19 -19 -19 -19 -19 -19 -19
-17 -17 -16 -16 -16 -15 -16 -16 -17 -17 -17 -17 -17 -17 -17 -17 -16 -16 -16 -17 -17 -17 -17 -17 -18 -18 -18 -19 -19 -19 -19 -19 -19 -19 -19 -19 -19 -19
-17 -16 -16 -16 -16 -17 -16 -17 -17 -17 -16 -17 -17 -17 -17 -17 -17 -17 -17 -17 -17 -18 -18 -19 -19 -18 -19 -19 -19 -19 -20 -19 -19 -19 -19 -19 -19 -19
-17 -17 -17 -17 -17 -17 -17 -17 -17 -17 -17 -17 -17 -17 -17 -17 -17 -17 -18 -18 -18 -19 -19 -19 -20 -20 -19 -19 -19 -19 -19 -19 -19 -20 -20 -20 -20 -21
-17 -17 -17 -17 -17 -17 -17 -17 -17 -17 -17 -17 -18 -18 -18 -18 -18 -18 -19 -19 -19 -19 -20 -20 -20 -20 -19 -19 -19 -19 -19 -19 -19 -20 -21 -23 -25 -26
-17 -17 -17 -17 -18 -17 -17 -18 -18 -18 -18 -18 -18 -18 -19 -19 -19 -20 -20 -20 -20 -20 -20 -20 -20 -20 -19 -19 -19 -19 -20 -21 -22 -24 -26 -27 -29 -30
-17 -17 -17 -17 -17 -17 -18 -18 -18 -18 -18 -19 -19 -19 -19 -19 -20 -20 -20 -20 -20 -20 -20 -20 -20 -20 -20 -21 -21 -23 -25 -27 -28 -29 -30 -30 -31 -32
-17 -17 -17 -17 -17 -18 -18 -18 -19 -19 -19 -19 -19 -19 -20 -19 -20 -20 -20 -20 -20 -20 -20 -20 -21 -22 -24 -27 -28 -29 -30 -30 -31 -32 -33 -33 -33 -33
-17 -18 -18 -18 -18 -18 -19 -19 -19 -19 -19 -19 -20 -20 -20 -20 -20 -20 -20 -20 -20 -20 -21 -23 -25 -28 -29 -30 -31 -33 -32 -33 -34 -34 -34 -34 -35 -34
-18 -18 -18 -19 -19 -19 -19 -19 -19 -20 -20 -19 -20 -20 -20 -20 -20 -20 -20 -20 -21 -23 -25 -28 -29 -30 -32 -34 -35 -35 -35 -35 -36 -36 -36 -35 -37 -36
-19 -19 -19 -20 -19 -19 -20 -20 -20 -20 -20 -20 -20 -20 -21 -21 -21 -21 -21 -23 -26 -28 -30 -31 -31 -32 -34 -35 -37 -37 -36 -38 -38 -38 -38 -38 -38 -37
-19 -20 -20 -20 -20 -20 -20 -20 -20 -20 -21 -21 -21 -21 -21 -21 -22 -23 -26 -28 -30 -31 -32 -33 -34 -35 -36 -36 -37 -39 -38 -38 -39 -39 -39 -39 -39 -39
-21 -20 -20 -20 -21 -20 -21 -21 -21 -21 -21 -21 -21 -21 -22 -24 -26 -28 -29 -31 -32 -32 -34 -36 -37 -37 -38 -38 -39 -39 -39 -39 -39 -39 -39 -39 -39 -39
-21 -21 -21 -21 -21 -21 -21 -21 -22 -22 -22 -22 -22 -24 -26 -28 -29 -31 -31 -32 -33 -35 -37 -37 -37 -39 -39 -39 -39 -40 -40 -40 -40 -40 -39 -39 -40 -40
-21 -21 -21 -21 -22 -22 -22 -22 -22 -22 -23 -24 -26 -28 -29 -30 -31 -32 -33 -34 -36 -37 -38 -38 -39 -40 -40 -40 -40 -40 -40 -40 -40 -40 -40 -40 -40 -40

GFSNE_500_temp_111.txt.gz
Temp
-13 -14 -14 -14 -15 -15 -15 -15 -15 -15 -16 -16 -16 -16 -16 -16 -16 -16 -16 -16 -16 -16 -16 -16 -16 -16 -16 -17 -17 -16 -16 -16 -16 -17 -17 -17 -17 -17
-14 -14 -14 -14 -15 -15 -15 -15 -16 -16 -15 -17 -17 -17 -16 -16 -16 -16 -17 -17 -16 -16 -16 -16 -16 -16 -17 -17 -17 -17 -16 -16 -17 -17 -17 -17 -17 -17
-14 -14 -14 -14 -15 -15 -15 -16 -16 -16 -15 -17 -17 -17 -17 -17 -17 -17 -17 -17 -17 -17 -16 -16 -17 -17 -17 -17 -16 -17 -17 -17 -17 -17 -17 -17 -18 -18
-15 -15 -15 -15 -15 -16 -16 -16 -16 -16 -15 -16 -17 -16 -16 -16 -17 -17 -16 -17 -17 -17 -17 -17 -16 -17 -17 -17 -17 -17 -17 -17 -17 -17 -17 -17 -17 -18
-16 -16 -16 -16 -16 -16 -16 -16 -16 -16 -16 -16 -16 -16 -16 -16 -16 -17 -17 -17 -17 -17 -17 -16 -17 -17 -17 -17 -17 -17 -17 -17 -17 -18 -18 -18 -18 -18
-15 -15 -15 -15 -16 -16 -16 -16 -16 -16 -16 -16 -16 -16 -16 -16 -16 -17 -17 -17 -17 -17 -17 -17 -17 -17 -17 -16 -17 -17 -17 -17 -17 -17 -17 -18 -18 -19
-15 -15 -15 -15 -16 -16 -16 -17 -17 -17 -16 -16 -16 -16 -16 -17 -17 -17 -17 -17 -17 -17 -17 -17 -17 -17 -17 -17 -17 -17 -17 -17 -17 -18 -18 -18 -18 -19
-15 -15 -15 -16 -17 -17 -17 -17 -16 -16 -16 -16 -16 -17 -17 -16 -17 -17 -17 -17 -17 -17 -17 -17 -17 -17 -17 -18 -18 -18 -17 -17 -18 -18 -19 -18 -19 -19
-16 -16 -16 -16 -16 -16 -16 -16 -17 -16 -17 -17 -16 -17 -17 -17 -17 -17 -17 -17 -17 -17 -17 -17 -17 -17 -17 -18 -18 -18 -18 -19 -19 -19 -19 -19 -19 -20
-16 -16 -16 -16 -17 -17 -17 -17 -16 -17 -16 -17 -17 -17 -17 -17 -17 -17 -17 -17 -17 -17 -17 -16 -17 -17 -17 -18 -18 -19 -19 -19 -19 -19 -20 -20 -20 -20
-16 -16 -16 -17 -17 -17 -17 -17 -17 -16 -17 -17 -17 -17 -17 -17 -18 -18 -18 -17 -18 -18 -18 -18 -18 -18 -18 -18 -18 -19 -19 -20 -20 -20 -20 -20 -20 -20
-16 -16 -17 -17 -17 -16 -16 -17 -16 -16 -17 -17 -17 -18 -18 -18 -18 -18 -18 -18 -18 -18 -18 -18 -18 -18 -18 -18 -19 -20 -20 -20 -20 -20 -20 -20 -20 -21
-17 -16 -16 -16 -17 -17 -17 -16 -16 -17 -17 -17 -17 -18 -18 -18 -18 -18 -18 -18 -18 -18 -18 -18 -19 -19 -19 -19 -19 -20 -20 -20 -20 -20 -21 -22 -24 -26
-16 -17 -17 -16 -16 -17 -16 -17 -17 -17 -17 -18 -18 -18 -19 -18 -19 -19 -19 -19 -19 -19 -19 -19 -20 -20 -20 -20 -20 -20 -20 -21 -22 -23 -26 -28 -29 -29
-16 -16 -17 -16 -17 -17 -17 -17 -17 -18 -18 -18 -19 -19 -19 -19 -19 -19 -19 -19 -19 -20 -20 -20 -21 -20 -20 -20 -20 -21 -23 -25 -28 -29 -30 -30 -31 -31
-16 -17 -17 -17 -17 -17 -17 -18 -18 -19 -19 -19 -20 -19 -19 -19 -19 -19 -19 -20 -20 -21 -21 -20 -20 -21 -21 -23 -25 -27 -29 -29 -30 -32 -32 -32 -33 -34
-17 -16 -17 -17 -18 -18 -18 -18 -19 -19 -20 -19 -19 -19 -19 -20 -20 -20 -20 -20 -20 -21 -21 -21 -22 -24 -26 -28 -30 -31 -31 -32 -34 -34 -34 -34 -36 -35
-18 -18 -18 -18 -18 -18 -18 -19 -19 -20 -20 -20 -19 -20 -20 -20 -20 -20 -20 -21 -21 -21 -22 -23 -25 -28 -30 -32 -34 -34 -34 -35 -36 -36 -36 -36 -37 -37
-18 -18 -18 -18 -19 -19 -20 -21 -20 -20 -20 -20 -20 -20 -20 -20 -20 -21 -21 -21 -22 -24 -26 -28 -30 -31 -32 -33 -35 -36 -36 -37 -37 -38 -38 -38 -38 -38
-19 -19 -19 -19 -20 -21 -21 -21 -20 -20 -20 -20 -21 -21 -21 -21 -21 -22 -22 -23 -26 -28 -30 -31 -32 -33 -35 -36 -36 -37 -38 -38 -39 -39 -39 -39 -39 -39
-19 -19 -20 -21 -21 -21 -21 -21 -21 -21 -21 -21 -21 -21 -21 -22 -22 -23 -25 -28 -29 -30 -32 -33 -35 -36 -37 -38 -39 -39 -39 -39 -39 -39 -39 -39 -40 -40
-20 -21 -21 -21 -21 -21 -21 -21 -21 -21 -22 -22 -22 -22 -22 -22 -24 -26 -29 -30 -31 -32 -34 -35 -36 -38 -39 -40 -40 -40 -40 -40 -39 -40 -40 -40 -40 -40
-22 -22 -22 -22 -22 -22 -22 -22 -22 -22 -22 -22 -22 -23 -23 -25 -28 -30 -31 -32 -33 -34 -36 -37 -38 -40 -40 -40 -40 -40 -40 -40 -40 -40 -40 -40 -40 -40

GFSNE_500_temp_114.txt.gz
Temp
-13 -13 -13 -13 -13 -14 -14 -15 -15 -15 -15 -16 -16 -16 -16 -16 -16 -16 -16 -17 -17 -17 -17 -17 -16 -17 -17 -17 -17 -17 -17 -16 -16 -17 -17 -17 -17 -17
-13 -13 -13 -14 -14 -14 -15 -15 -15 -15 -15 -16 -16 -16 -16 -16 -16 -17 -17 -16 -16 -17 -17 -17 -17 -17 -17 -17 -17 -17 -17 -17 -17 -17 -17 -17 -17 -17
-14 -14 -14 -14 -14 -14 -15 -14 -15 -16 -15 -16 -16 -17 -17 -16 -17 -16 -17 -17 -17 -17 -17 -17 -17 -17 -17 -17 -17 -17 -17 -17 -17 -17 -17 -17 -17 -16
-14 -14 -14 -14 -15 -15 -15 -15 -16 -16 -16 -16 -17 -16 -16 -17 -17 -17 -17 -17 -17 -17 -17 -18 -17 -17 -17 -17 -17 -17 -17 -17 -18 -17 -17 -17 -16 -17
-14 -14 -15 -15 -15 -15 -15 -15 -16 -16 -16 -16 -16 -16 -16 -17 -17 -17 -17 -17 -17 -17 -17 -17 -17 -17 -17 -17 -18 -17 -17 -18 -18 -17 -17 -17 -17 -17
-15 -15 -15 -15 -15 -15 -16 -16 -16 -16 -16 -16 -16 -16 -16 -16 -17 -17 -17 -17 -17 -17 -17 -17 -18 -17 -17 -17 -18 -17 -17 -17 -17 -17 -16 -16 -17 -17
-15 -15 -16 -16 -16 -16 -16 -16 -16 -16 -16 -16 -17 -16 -16 -17 -17 -17 -17 -18 -18 -17 -17 -17 -18 -18 -18 -18 -18 -18 -17 -17 -17 -17 -17 -17 -17 -18
-15 -15 -15 -15 -16 -16 -16 -16 -16 -17 -17 -17 -17 -17 -17 -17 -17 -17 -17 -17 -17 -17 -17 -17 -17 -17 -18 -18 -18 -18 -18 -18 -18 -18 -18 -18 -18 -18
-15 -15 -15 -15 -16 -16 -16 -17 -17 -17 -17 -17 -17 -17 -17 -17 -17 -17 -17 -17 -17 -17 -17 -18 -18 -18 -18 -18 -18 -19 -18 -18 -18 -18 -18 -18 -18 -18
-15 -15 -16 -16 -16 -16 -17 -17 -17 -17 -17 -18 -17 -17 -17 -17 -17 -17 -17 -18 -17 -17 -17 -17 -17 -18 -18 -18 -19 -19 -19 -19 -18 -18 -18 -18 -18 -19
-16 -16 -16 -16 -16 -16 -16 -17 -17 -17 -17 -17 -17 -17 -17 -17 -17 -17 -17 -17 -18 -18 -18 -17 -18 -18 -18 -18 -18 -19 -19 -19 -19 -19 -19 -20 -20 -20
-16 -16 -16 -16 -16 -16 -17 -17 -17 -17 -17 -17 -17 -17 -17 -17 -17 -18 -18 -18 -18 -18 -18 -19 -19 -19 -18 -18 -19 -19 -19 -19 -19 -20 -20 -20 -20 -20
-16 -16 -16 -16 -17 -17 -16 -17 -17 -17 -17 -17 -17 -17 -17 -18 -18 -18 -18 -18 -19 -19 -19 -19 -19 -19 -19 -19 -19 -19 -19 -19 -20 -20 -20 -21 -22 -24
-17 -17 -17 -16 -16 -17 -17 -17 -17 -17 -17 -17 -17 -17 -18 -19 -18 -18 -19 -20 -20 -19 -19 -19 -19 -19 -19 -19 -19 -20 -20 -20 -20 -21 -22 -25 -27 -28
-17 -17 -17 -17 -17 -17 -17 -17 -17 -17 -17 -18 -18 -18 -18 -18 -19 -20 -20 -20 -20 -20 -20 -20 -19 -20 -20 -20 -20 -20 -20 -21 -23 -26 -28 -29 -30 -31
-17 -17 -17 -17 -17 -17 -17 -17 -18 -18 -18 -18 -18 -19 -19 -20 -21 -20 -20 -20 -20 -20 -20 -20 -20 -20 -20 -21 -21 -21 -25 -27 -28 -29 -30 -32 -33 -33
-17 -17 -17 -17 -17 -18 -18 -18 -19 -19 -18 -19 -19 -20 -20 -21 -20 -20 -20 -21 -20 -20 -21 -21 -21 -21 -21 -22 -24 -28 -30 -31 -32 -33 -34 -35 -36 -35
-17 -18 -17 -18 -18 -18 -18 -19 -19 -19 -19 -20 -21 -21 -20 -21 -21 -21 -21 -21 -21 -21 -21 -21 -21 -22 -24 -28 -29 -30 -32 -34 -36 -36 -37 -36 -37 -36
-18 -18 -19 -19 -18 -19 -20 -20 -20 -20 -21 -21 -21 -21 -21 -21 -21 -21 -22 -22 -22 -22 -22 -22 -22 -25 -28 -30 -32 -33 -35 -37 -37 -38 -39 -38 -38 -38
-19 -19 -19 -20 -20 -20 -20 -21 -21 -21 -21 -21 -21 -21 -21 -21 -22 -23 -22 -22 -22 -23 -23 -25 -27 -29 -31 -33 -35 -37 -38 -38 -39 -40 -39 -40 -39 -39
-20 -20 -20 -20 -20 -21 -21 -21 -21 -21 -21 -21 -22 -22 -23 -23 -23 -23 -23 -23 -24 -25 -27 -30 -31 -32 -34 -37 -39 -39 -40 -40 -40 -40 -40 -39 -40 -40
-21 -20 -20 -21 -21 -21 -22 -21 -21 -22 -22 -22 -23 -23 -23 -23 -23 -23 -24 -25 -27 -30 -31 -31 -33 -34 -36 -39 -40 -40 -40 -40 -40 -40 -40 -40 -40 -39
-21 -21 -21 -22 -22 -22 -22 -22 -22 -23 -23 -23 -24 -24 -24 -24 -24 -24 -26 -28 -31 -31 -32 -33 -34 -36 -39 -40 -40 -40 -40 -40 -40 -40 -40 -40 -40 -40

GFSNE_500_temp_117.txt.gz
Temp
-13 -13 -13 -13 -13 -13 -13 -13 -14 -14 -14 -15 -15 -15 -15 -15 -16 -16 -16 -16 -16 -16 -16 -16 -17 -17 -17 -17 -17 -17 -17 -16 -17 -16 -16 -17 -17 -17
-13 -13 -13 -13 -13 -13 -13 -13 -14 -14 -14 -15 -15 -15 -15 -16 -16 -16 -16 -16 -16 -17 -17 -17 -17 -17 -17 -17 -17 -16 -17 -17 -17 -17 -17 -17 -17 -17
-13 -13 -13 -13 -13 -14 -14 -14 -15 -15 -15 -15 -15 -16 -16 -16 -16 -16 -16 -16 -16 -16 -17 -17 -17 -17 -17 -17 -17 -17 -17 -17 -17 -17 -17 -17 -17 -17
-13 -13 -13 -14 -14 -14 -14 -14 -15 -15 -15 -15 -15 -16 -16 -16 -17 -17 -17 -17 -17 -16 -17 -17 -17 -17 -17 -17 -17 -17 -17 -17 -17 -17 -17 -17 -17 -17
-13 -13 -14 -14 -14 -15 -14 -15 -15 -15 -15 -15 -16 -16 -16 -17 -17 -17 -17 -17 -17 -17 -17 -17 -17 -17 -17 -17 -17 -17 -18 -17 -17 -17 -17 -17 -17 -17
-13 -13 -14 -14 -14 -14 -15 -15 -15 -15 -16 -16 -16 -16 -16 -17 -17 -17 -17 -17 -17 -17 -17 -17 -17 -18 -17 -17 -17 -17 -17 -17 -17 -17 -17 -17 -17 -17
-14 -14 -14 -15 -15 -15 -15 -16 -16 -16 -16 -16 -16 -17 -17 -17 -17 -17 -17 -17 -17 -17 -17 -17 -17 -17 -17 -17 -18 -18 -18 -17 -17 -17 -17 -17 -17 -17
-14 -15 -15 -15 -15 -15 -16 -16 -16 -16 -16 -17 -17 -17 -17 -17 -17 -17 -17 -18 -17 -17 -17 -17 -17 -18 -18 -18 -18 -17 -18 -18 -17 -17 -18 -18 -19 -18
-14 -15 -16 -16 -16 -15 -15 -16 -16 -16 -16 -17 -17 -17 -17 -17 -17 -17 -17 -17 -17 -17 -17 -18 -17 -18 -18 -18 -18 -18 -18 -18 -18 -19 -19 -19 -18 -18
-15 -15 -15 -15 -16 -16 -16 -16 -16 -16 -16 -16 -17 -17 -17 -17 -18 -18 -18 -17 -17 -17 -17 -17 -17 -18 -18 -18 -19 -18 -19 -19 -19 -19 -19 -19 -19 -19
-15 -15 -16 -15 -15 -16 -16 -16 -16 -16 -17 -17 -17 -18 -18 -17 -17 -17 -17 -17 -17 -17 -18 -18 -18 -17 -18 -18 -19 -20 -20 -19 -19 -19 -19 -19 -19 -19
-15 -15 -15 -16 -16 -16 -16 -17 -17 -17 -17 -17 -17 -17 -17 -17 -17 -17 -17 -17 -17 -18 -18 -18 -19 -19 -19 -19 -20 -19 -19 -19 -19 -19 -20 -20 -20 -20
-15 -16 -16 -16 -16 -16 -16 -17 -17 -17 -17 -17 -17 -17 -17 -17 -18 -17 -17 -18 -19 -18 -19 -19 -19 -20 -20 -19 -19 -20 -20 -20 -20 -20 -20 -20 -20 -20
-16 -16 -16 -16 -16 -17 -17 -17 -17 -17 -17 -17 -17 -17 -17 -17 -18 -18 -19 -19 -19 -19 -20 -20 -20 -20 -20 -20 -20 -20 -21 -20 -20 -20 -21 -21 -21 -23
-16 -16 -16 -16 -16 -16 -17 -17 -17 -17 -17 -18 -18 -18 -18 -18 -19 -19 -19 -19 -19 -20 -20 -20 -20 -20 -20 -20 -20 -21 -20 -21 -21 -21 -22 -25 -27 -30
-17 -16 -17 -16 -17 -17 -17 -17 -17 -17 -18 -18 -18 -18 -19 -19 -20 -20 -20 -21 -21 -20 -20 -20 -21 -21 -21 -21 -21 -21 -21 -22 -23 -26 -29 -30 -32 -33
-17 -17 -17 -17 -17 -17 -18 -17 -18 -18 -18 -19 -19 -20 -20 -20 -20 -21 -21 -21 -21 -21 -21 -22 -21 -22 -22 -22 -22 -23 -24 -27 -30 -32 -33 -35 -35 -35
-17 -18 -18 -18 -18 -18 -18 -18 -18 -18 -19 -20 -20 -20 -20 -21 -21 -22 -21 -21 -21 -21 -22 -22 -22 -23 -23 -24 -25 -27 -30 -32 -35 -37 -38 -37 -37 -38
-18 -18 -18 -18 -19 -19 -19 -19 -19 -20 -20 -20 -21 -21 -21 -22 -22 -21 -22 -22 -22 -22 -23 -23 -23 -23 -24 -26 -29 -31 -33 -37 -38 -39 -39 -39 -39 -39
-19 -19 -19 -19 -19 -20 -20 -20 -20 -21 -21 -21 -22 -22 -22 -22 -22 -22 -23 -23 -24 -23 -23 -23 -24 -25 -28 -30 -32 -34 -37 -38 -39 -39 -39 -39 -39 -39
-19 -19 -19 -20 -20 -20 -21 -21 -21 -21 -22 -22 -22 -22 -22 -22 -23 -23 -24 -24 -24 -24 -24 -25 -26 -29 -31 -33 -35 -37 -39 -39 -40 -39 -40 -40 -39 -39
-20 -20 -20 -21 -21 -21 -21 -22 -22 -22 -22 -22 -23 -23 -23 -24 -24 -24 -24 -24 -25 -26 -26 -28 -29 -31 -33 -35 -37 -39 -40 -40 -40 -40 -40 -40 -40 -40
-21 -21 -21 -21 -22 -22 -22 -22 -22 -22 -23 -23 -23 -24 -24 -24 -24 -25 -25 -25 -26 -28 -30 -30 -32 -33 -34 -36 -39 -40 -40 -40 -40 -40 -40 -40 -40 -40

GFSNE_500_temp_123.txt.gz
Temp
-12 -12 -12 -13 -12 -12 -12 -12 -13 -13 -13 -13 -13 -13 -13 -13 -14 -14 -14 -14 -14 -14 -15 -15 -15 -16 -16 -15 -15 -15 -15 -16 -16 -16 -16 -16 -16 -16
-12 -13 -12 -12 -13 -13 -13 -13 -13 -13 -13 -13 -13 -13 -14 -14 -14 -14 -14 -14 -15 -15 -16 -16 -16 -16 -16 -16 -16 -16 -16 -16 -16 -16 -17 -17 -16 -17
-12 -12 -12 -12 -13 -13 -14 -13 -13 -13 -13 -13 -13 -14 -14 -14 -14 -14 -14 -15 -15 -16 -16 -16 -16 -16 -16 -16 -16 -16 -16 -16 -17 -17 -17 -17 -17 -17
-13 -12 -12 -12 -13 -14 -13 -13 -13 -14 -14 -13 -13 -13 -14 -15 -15 -15 -15 -15 -15 -16 -15 -16 -16 -17 -17 -17 -17 -17 -17 -17 -17 -17 -17 -17 -17 -17
-13 -13 -13 -13 -13 -13 -13 -13 -13 -14 -14 -13 -14 -14 -14 -15 -15 -15 -15 -15 -15 -16 -16 -16 -17 -17 -17 -17 -17 -17 -17 -17 -17 -17 -17 -17 -18 -18
-13 -13 -13 -13 -13 -13 -13 -13 -14 -14 -14 -14 -14 -14 -14 -15 -15 -15 -15 -15 -16 -16 -16 -16 -17 -17 -17 -17 -17 -17 -17 -17 -17 -17 -17 -17 -17 -17
-13 -13 -13 -13 -13 -13 -13 -13 -14 -14 -14 -14 -15 -15 -15 -15 -15 -15 -16 -16 -16 -16 -16 -16 -16 -17 -17 -17 -17 -17 -17 -17 -17 -18 -17 -17 -17 -18
-13 -13 -13 -13 -13 -13 -13 -14 -14 -15 -15 -15 -16 -15 -15 -15 -16 -16 -16 -16 -16 -16 -16 -16 -17 -17 -17 -17 -17 -17 -17 -17 -17 -17 -17 -17 -18 -18
-13 -13 -13 -13 -13 -14 -14 -14 -15 -15 -15 -15 -15 -15 -15 -16 -16 -16 -16 -16 -16 -17 -17 -17 -17 -17 -17 -17 -17 -17 -17 -18 -18 -18 -19 -19 -19 -19
-13 -13 -13 -13 -13 -14 -14 -15 -15 -15 -15 -15 -15 -15 -15 -16 -16 -16 -16 -16 -17 -17 -17 -17 -17 -17 -17 -17 -18 -18 -18 -18 -19 -19 -19 -20 -20 -20
-14 -14 -14 -14 -14 -14 -15 -15 -15 -15 -15 -16 -16 -16 -16 -16 -16 -16 -17 -17 -17 -17 -17 -17 -18 -18 -18 -18 -18 -19 -19 -20 -20 -21 -21 -21 -21 -21
-14 -14 -14 -14 -14 -15 -15 -15 -15 -16 -16 -16 -16 -16 -16 -17 -17 -17 -17 -17 -17 -17 -17 -17 -18 -18 -19 -19 -20 -20 -20 -21 -21 -21 -21 -21 -21 -21
-15 -15 -15 -15 -15 -15 -15 -15 -16 -16 -16 -16 -17 -17 -17 -17 -17 -17 -17 -17 -17 -17 -18 -18 -19 -19 -19 -20 -20 -21 -21 -21 -21 -21 -21 -22 -22 -22
-14 -14 -14 -15 -15 -15 -15 -15 -16 -16 -17 -17 -17 -17 -17 -17 -17 -17 -17 -18 -18 -18 -18 -19 -19 -20 -20 -21 -21 -21 -21 -21 -22 -22 -22 -22 -23 -23
-15 -15 -15 -16 -16 -16 -16 -16 -16 -16 -17 -17 -17 -17 -17 -17 -17 -18 -18 -18 -18 -19 -20 -20 -20 -21 -21 -21 -21 -22 -22 -22 -22 -23 -23 -23 -23 -24
-16 -16 -16 -16 -16 -16 -17 -17 -17 -17 -17 -17 -17 -17 -17 -17 -18 -18 -18 -19 -20 -20 -20 -21 -21 -21 -21 -22 -22 -22 -22 -23 -23 -23 -24 -24 -26 -28
-16 -16 -16 -16 -16 -16 -16 -17 -17 -17 -17 -17 -17 -18 -18 -18 -18 -19 -19 -20 -20 -20 -21 -21 -21 -22 -22 -22 -23 -23 -23 -23 -24 -24 -25 -28 -30 -32
-16 -16 -16 -16 -16 -16 -16 -17 -17 -17 -17 -17 -18 -18 -19 -19 -19 -19 -20 -20 -21 -21 -21 -22 -22 -22 -23 -23 -23 -24 -24 -24 -25 -26 -28 -30 -33 -35
-16 -16 -16 -17 -17 -16 -17 -17 -18 -18 -18 -18 -18 -19 -19 -19 -20 -20 -21 -21 -22 -22 -22 -22 -23 -23 -23 -24 -24 -25 -25 -25 -28 -30 -31 -33 -35 -37
-17 -17 -17 -18 -17 -17 -17 -18 -18 -18 -19 -19 -19 -19 -20 -21 -21 -21 -21 -22 -22 -22 -23 -23 -23 -24 -25 -25 -25 -25 -26 -28 -30 -32 -33 -35 -37 -38
-17 -17 -17 -17 -18 -19 -18 -18 -19 -19 -19 -20 -20 -21 -21 -21 -21 -22 -22 -22 -22 -23 -23 -24 -24 -25 -25 -26 -26 -27 -29 -31 -32 -33 -35 -37 -38 -39
-18 -18 -18 -18 -18 -18 -19 -19 -19 -20 -20 -21 -21 -22 -21 -22 -22 -22 -22 -23 -23 -24 -24 -25 -25 -26 -26 -26 -28 -30 -32 -33 -34 -35 -37 -38 -39 -39
-19 -18 -18 -19 -19 -19 -20 -20 -20 -21 -22 -22 -22 -22 -22 -22 -23 -23 -23 -24 -24 -25 -25 -26 -26 -26 -27 -28 -30 -32 -33 -34 -35 -37 -39 -39 -39 -39

GFSNE_500_temp_126.txt.gz
Temp
-12 -12 -12 -12 -13 -13 -12 -12 -12 -12 -12 -12 -13 -13 -13 -13 -13 -13 -13 -13 -14 -14 -14 -14 -14 -15 -15 -15 -16 -16 -15 -15 -16 -16 -16 -16 -17 -17
-12 -12 -12 -13 -12 -13 -12 -12 -12 -12 -12 -13 -13 -13 -13 -13 -13 -14 -13 -14 -14 -14 -14 -15 -14 -15 -15 -15 -16 -16 -16 -16 -16 -16 -16 -16 -16 -17
-12 -12 -12 -13 -13 -13 -12 -12 -12 -12 -13 -13 -13 -13 -13 -13 -13 -13 -14 -14 -14 -14 -15 -15 -15 -15 -15 -16 -16 -16 -16 -17 -17 -17 -16 -17 -17 -16
-12 -13 -12 -13 -13 -13 -12 -12 -12 -12 -13 -13 -13 -13 -14 -13 -13 -14 -14 -14 -15 -15 -15 -15 -15 -16 -16 -16 -16 -16 -17 -17 -16 -17 -17 -17 -17 -17
-13 -13 -13 -13 -13 -13 -13 -13 -13 -13 -13 -13 -13 -13 -14 -13 -14 -14 -14 -15 -15 -15 -15 -15 -16 -16 -16 -16 -17 -16 -17 -17 -17 -17 -17 -17 -17 -17
-13 -13 -13 -13 -13 -13 -13 -13 -13 -13 -13 -14 -14 -14 -14 -14 -14 -14 -15 -15 -15 -15 -15 -16 -16 -16 -16 -16 -17 -17 -17 -17 -17 -17 -17 -17 -17 -17
-14 -13 -13 -13 -13 -13 -13 -13 -13 -13 -13 -14 -14 -14 -14 -14 -15 -15 -15 -15 -15 -15 -16 -16 -16 -16 -16 -16 -17 -17 -17 -17 -17 -17 -17 -17 -17 -18
-14 -13 -13 -13 -13 -13 -13 -13 -13 -13 -14 -14 -15 -15 -15 -15 -15 -15 -15 -15 -16 -15 -16 -16 -16 -16 -16 -16 -17 -17 -17 -17 -17 -17 -17 -18 -18 -18
-13 -14 -13 -13 -13 -13 -13 -13 -14 -14 -14 -15 -14 -15 -15 -15 -15 -16 -16 -16 -16 -16 -16 -17 -17 -17 -17 -17 -17 -17 -17 -18 -18 -18 -19 -19 -19 -20
-14 -13 -13 -13 -14 -13 -13 -13 -14 -14 -14 -15 -15 -15 -15 -16 -16 -16 -16 -16 -16 -16 -16 -17 -17 -17 -17 -17 -17 -18 -18 -18 -19 -19 -19 -20 -21 -21
-13 -13 -13 -13 -13 -13 -13 -14 -14 -14 -15 -15 -15 -15 -15 -15 -16 -16 -16 -16 -16 -17 -17 -17 -17 -18 -18 -18 -18 -18 -19 -19 -20 -20 -21 -21 -21 -21
-14 -14 -14 -14 -14 -14 -14 -14 -14 -15 -15 -16 -15 -15 -16 -16 -16 -16 -16 -17 -17 -17 -17 -18 -18 -18 -18 -18 -19 -19 -20 -20 -21 -21 -21 -22 -22 -22
-14 -14 -14 -14 -14 -15 -14 -15 -15 -15 -15 -15 -15 -16 -16 -16 -16 -16 -16 -17 -17 -17 -17 -17 -18 -18 -19 -19 -20 -20 -21 -21 -21 -22 -22 -22 -23 -23
-14 -15 -15 -15 -15 -15 -15 -15 -15 -15 -15 -15 -16 -16 -16 -16 -16 -17 -17 -17 -17 -18 -18 -18 -18 -19 -19 -20 -21 -21 -21 -21 -22 -22 -23 -23 -23 -23
-15 -15 -15 -15 -15 -15 -15 -15 -15 -15 -16 -16 -16 -16 -17 -17 -17 -17 -17 -18 -18 -18 -19 -19 -19 -20 -21 -21 -21 -21 -22 -22 -22 -23 -23 -23 -24 -24
-16 -16 -16 -16 -16 -16 -16 -16 -16 -16 -16 -17 -17 -17 -17 -17 -17 -18 -18 -18 -19 -19 -19 -20 -20 -21 -21 -21 -21 -22 -22 -22 -23 -23 -24 -24 -24 -25
-16 -16 -16 -16 -16 -16 -16 -16 -16 -17 -17 -17 -17 -17 -17 -17 -18 -18 -18 -19 -19 -19 -20 -20 -21 -21 -21 -21 -22 -22 -23 -23 -24 -24 -24 -25 -25 -27
-16 -16 -16 -16 -16 -16 -17 -17 -17 -17 -17 -17 -17 -18 -18 -18 -18 -18 -19 -19 -20 -20 -21 -21 -21 -21 -22 -22 -23 -23 -23 -24 -24 -24 -25 -25 -27 -29
-16 -16 -16 -17 -17 -17 -17 -17 -17 -18 -18 -18 -18 -18 -18 -18 -19 -20 -20 -20 -21 -21 -21 -21 -22 -22 -23 -23 -23 -24 -24 -25 -25 -25 -26 -27 -30 -32
-17 -16 -17 -17 -17 -18 -17 -18 -18 -18 -18 -18 -19 -19 -18 -19 -20 -20 -21 -21 -21 -21 -21 -22 -22 -23 -23 -23 -24 -25 -25 -25 -26 -27 -28 -31 -33 -34
-17 -17 -17 -17 -18 -18 -18 -18 -18 -18 -19 -19 -19 -19 -20 -20 -20 -21 -21 -21 -22 -22 -22 -23 -23 -23 -24 -25 -25 -25 -26 -26 -27 -29 -31 -33 -33 -34
-17 -17 -17 -17 -18 -18 -18 -18 -19 -20 -20 -20 -20 -20 -20 -21 -21 -22 -22 -22 -22 -23 -23 -23 -24 -24 -25 -25 -26 -26 -26 -28 -29 -31 -33 -34 -34 -35
-18 -18 -18 -18 -18 -18 -19 -20 -20 -20 -20 -20 -21 -21 -22 -22 -22 -22 -22 -22 -23 -23 -23 -24 -24 -25 -26 -26 -26 -27 -28 -30 -32 -34 -34 -35 -36 -37

GFSNE_500_temp_129.txt.gz
Temp
-14 -13 -13 -13 -12 -12 -13 -13 -12 -12 -12 -12 -13 -13 -14 -13 -13 -13 -13 -13 -14 -13 -13 -13 -14 -14 -14 -15 -15 -15 -15 -15 -15 -16 -16 -16 -16 -16
-14 -13 -13 -13 -13 -12 -13 -13 -13 -13 -12 -13 -13 -13 -13 -12 -13 -13 -13 -13 -13 -13 -14 -14 -15 -15 -15 -15 -15 -15 -16 -16 -16 -16 -16 -16 -16 -16
-13 -13 -13 -13 -13 -12 -13 -13 -13 -13 -12 -13 -12 -12 -12 -12 -13 -14 -13 -14 -13 -13 -14 -14 -15 -15 -15 -15 -15 -16 -16 -16 -16 -16 -16 -16 -16 -17
-14 -13 -12 -13 -12 -13 -13 -13 -13 -13 -13 -12 -12 -12 -13 -13 -14 -14 -14 -14 -14 -14 -14 -15 -15 -15 -15 -15 -16 -16 -16 -16 -16 -16 -16 -16 -17 -17
-15 -13 -13 -13 -13 -13 -13 -13 -13 -13 -13 -13 -13 -13 -13 -14 -14 -14 -14 -14 -14 -14 -15 -15 -15 -15 -16 -16 -16 -16 -16 -16 -16 -16 -16 -16 -17 -17
-14 -14 -14 -13 -13 -13 -13 -13 -13 -13 -13 -13 -13 -14 -14 -14 -14 -14 -14 -14 -14 -15 -15 -15 -16 -16 -16 -16 -16 -16 -16 -16 -16 -16 -17 -17 -17 -17
-14 -14 -14 -14 -13 -13 -13 -13 -14 -13 -13 -13 -13 -14 -14 -14 -14 -14 -14 -14 -15 -15 -15 -16 -16 -16 -16 -16 -16 -16 -16 -16 -17 -17 -17 -17 -17 -17
-14 -14 -13 -13 -13 -14 -13 -13 -14 -14 -14 -14 -14 -14 -15 -15 -14 -15 -15 -15 -15 -15 -16 -16 -16 -16 -16 -16 -16 -16 -17 -17 -17 -17 -17 -18 -18 -18
-14 -14 -14 -13 -13 -14 -14 -14 -14 -14 -14 -14 -14 -14 -14 -15 -15 -15 -15 -15 -16 -16 -16 -16 -16 -16 -16 -16 -16 -16 -17 -16 -17 -18 -18 -18 -18 -19
-14 -15 -14 -14 -13 -13 -14 -14 -14 -14 -14 -14 -14 -14 -15 -15 -15 -15 -15 -16 -16 -16 -16 -16 -16 -16 -16 -16 -16 -17 -17 -18 -18 -18 -18 -19 -19 -20
-14 -15 -14 -15 -14 -14 -14 -14 -14 -14 -15 -15 -15 -15 -15 -15 -15 -16 -16 -16 -16 -16 -16 -16 -16 -16 -16 -17 -17 -17 -18 -18 -18 -18 -19 -20 -20 -21
-14 -14 -14 -14 -14 -14 -14 -14 -14 -15 -15 -15 -15 -15 -15 -16 -16 -16 -16 -16 -16 -16 -16 -16 -17 -17 -17 -17 -18 -18 -18 -18 -19 -20 -21 -21 -21 -22
-14 -14 -14 -14 -14 -14 -14 -14 -14 -15 -15 -15 -15 -15 -15 -16 -15 -16 -16 -16 -16 -16 -17 -17 -17 -17 -18 -18 -18 -19 -19 -20 -21 -21 -21 -22 -22 -23
-15 -15 -14 -14 -15 -14 -14 -14 -15 -15 -15 -15 -15 -15 -16 -16 -16 -16 -16 -17 -17 -17 -17 -17 -18 -18 -18 -18 -19 -19 -20 -21 -21 -22 -22 -23 -23 -23
-15 -15 -15 -15 -15 -15 -15 -15 -15 -15 -15 -15 -15 -15 -16 -16 -16 -17 -17 -17 -17 -17 -18 -18 -18 -18 -19 -19 -20 -21 -21 -22 -22 -22 -23 -23 -23 -24
-15 -15 -15 -15 -15 -15 -15 -16 -16 -16 -15 -15 -16 -16 -16 -17 -17 -17 -17 -17 -17 -18 -18 -18 -18 -19 -20 -21 -21 -21 -22 -22 -22 -23 -23 -23 -24 -25
-16 -16 -16 -16 -16 -16 -16 -16 -16 -16 -16 -16 -16 -16 -16 -17 -17 -17 -18 -18 -18 -18 -18 -19 -19 -20 -21 -22 -22 -22 -22 -22 -23 -23 -24 -25 -25 -25
-16 -16 -16 -16 -17 -17 -17 -17 -17 -17 -17 -17 -17 -17 -17 -18 -18 -18 -18 -18 -19 -19 -20 -20 -21 -21 -22 -21 -22 -22 -22 -23 -23 -24 -25 -25 -25 -25
-16 -16 -16 -16 -16 -16 -17 -16 -17 -17 -17 -17 -18 -18 -18 -18 -18 -18 -19 -19 -19 -20 -21 -21 -22 -22 -21 -21 -22 -22 -23 -23 -24 -25 -25 -25 -25 -26
-17 -17 -17 -16 -17 -17 -17 -17 -17 -17 -17 -18 -18 -18 -18 -18 -19 -19 -20 -20 -20 -21 -21 -22 -22 -21 -22 -22 -22 -22 -23 -24 -25 -25 -25 -26 -27 -28
-17 -17 -16 -17 -17 -17 -17 -17 -17 -17 -17 -18 -18 -18 -18 -18 -19 -20 -20 -21 -21 -21 -22 -22 -22 -22 -22 -23 -23 -24 -24 -25 -25 -26 -26 -27 -28 -31
-17 -16 -16 -17 -17 -17 -17 -17 -17 -18 -18 -18 -18 -18 -19 -20 -20 -20 -21 -21 -22 -22 -22 -22 -22 -23 -23 -23 -24 -25 -25 -26 -26 -26 -27 -28 -30 -32
-17 -17 -17 -17 -18 -18 -19 -19 -19 -18 -18 -19 -20 -20 -20 -20 -21 -21 -22 -22 -22 -22 -22 -23 -23 -23 -23 -24 -25 -25 -26 -26 -27 -27 -29 -30 -32 -33

GFSNE_500_temp_132.txt.gz
Temp
-15 -14 -14 -14 -14 -13 -13 -13 -13 -13 -13 -13 -13 -13 -14 -14 -14 -14 -14 -14 -14 -14 -14 -14 -13 -13 -13 -13 -14 -14 -15 -15 -15 -15 -15 -16 -16 -16
-14 -14 -14 -14 -14 -13 -13 -13 -13 -13 -13 -13 -13 -15 -15 -15 -14 -14 -14 -13 -14 -14 -14 -14 -14 -13 -13 -13 -14 -14 -15 -15 -15 -16 -16 -15 -15 -16
-14 -14 -14 -14 -13 -13 -13 -13 -13 -13 -13 -13 -13 -14 -14 -14 -13 -13 -14 -14 -14 -14 -14 -14 -13 -14 -14 -14 -15 -15 -15 -15 -16 -16 -15 -16 -16 -15
-15 -14 -15 -14 -13 -13 -13 -13 -13 -13 -13 -13 -13 -13 -13 -13 -13 -12 -13 -14 -15 -14 -14 -14 -14 -15 -15 -15 -15 -15 -16 -16 -16 -16 -16 -15 -15 -16
-15 -14 -14 -15 -13 -13 -13 -13 -13 -13 -13 -13 -13 -13 -13 -13 -13 -13 -14 -15 -14 -14 -14 -15 -15 -15 -15 -15 -15 -15 -16 -16 -16 -16 -16 -16 -16 -16
-15 -14 -14 -14 -15 -13 -13 -13 -13 -13 -14 -13 -13 -13 -13 -13 -13 -14 -14 -15 -15 -14 -14 -15 -15 -15 -15 -16 -16 -16 -16 -16 -16 -16 -16 -15 -16 -16
-15 -14 -15 -14 -14 -15 -14 -13 -13 -13 -14 -14 -13 -13 -13 -14 -14 -14 -15 -15 -15 -15 -15 -15 -15 -15 -16 -16 -16 -16 -16 -16 -16 -16 -16 -17 -17 -17
-15 -15 -14 -14 -15 -15 -15 -14 -13 -13 -13 -13 -14 -13 -14 -14 -14 -15 -15 -15 -15 -15 -15 -15 -16 -16 -16 -16 -16 -16 -16 -16 -16 -16 -16 -16 -17 -17
-15 -15 -15 -15 -15 -14 -13 -15 -14 -14 -14 -14 -14 -14 -14 -14 -14 -15 -16 -16 -16 -15 -15 -16 -16 -16 -16 -16 -16 -16 -16 -17 -16 -16 -17 -17 -17 -18
-15 -14 -14 -14 -15 -15 -14 -14 -14 -14 -14 -14 -14 -14 -14 -15 -15 -15 -16 -16 -15 -15 -16 -16 -16 -16 -16 -16 -16 -16 -16 -16 -17 -17 -17 -17 -18 -18
-15 -15 -14 -14 -15 -15 -14 -14 -14 -14 -15 -14 -14 -14 -14 -15 -15 -16 -16 -15 -15 -16 -16 -16 -16 -16 -16 -16 -16 -17 -17 -17 -17 -18 -18 -18 -18 -19
-15 -15 -14 -14 -15 -14 -15 -14 -14 -14 -14 -14 -15 -15 -15 -15 -15 -16 -16 -16 -16 -16 -16 -16 -16 -16 -16 -17 -17 -17 -17 -17 -18 -18 -18 -18 -19 -20
-15 -15 -15 -14 -14 -14 -15 -15 -14 -14 -15 -15 -15 -15 -15 -15 -16 -16 -16 -16 -16 -16 -16 -16 -16 -16 -17 -17 -17 -17 -18 -18 -18 -18 -19 -20 -21 -21
-15 -15 -15 -14 -14 -15 -14 -13 -14 -14 -15 -15 -15 -15 -15 -15 -16 -16 -16 -16 -16 -16 -17 -17 -17 -17 -17 -17 -18 -18 -18 -18 -18 -19 -20 -21 -21 -22
-15 -15 -15 -15 -15 -14 -14 -14 -15 -15 -15 -15 -15 -15 -16 -16 -16 -16 -16 -16 -16 -17 -17 -17 -17 -17 -18 -18 -18 -18 -18 -19 -20 -21 -21 -21 -22 -22
-16 -15 -15 -15 -15 -15 -15 -15 -15 -15 -15 -15 -15 -15 -16 -16 -16 -16 -16 -17 -18 -18 -18 -17 -18 -18 -18 -19 -19 -19 -20 -20 -21 -22 -22 -22 -23 -23
-15 -15 -15 -15 -15 -15 -15 -15 -15 -15 -16 -16 -16 -16 -16 -16 -16 -17 -17 -18 -18 -18 -18 -18 -18 -18 -19 -19 -19 -20 -21 -21 -22 -22 -23 -23 -23 -24
-15 -15 -15 -16 -15 -15 -15 -15 -15 -16 -16 -16 -17 -16 -17 -17 -17 -17 -18 -18 -18 -18 -18 -19 -19 -19 -20 -20 -21 -21 -22 -22 -22 -23 -23 -24 -24 -25
-15 -15 -16 -16 -17 -16 -16 -16 -16 -17 -17 -17 -17 -17 -17 -17 -18 -18 -18 -18 -18 -18 -18 -18 -19 -20 -20 -21 -21 -22 -22 -23 -23 -23 -23 -24 -25 -25
-15 -15 -15 -16 -17 -17 -17 -17 -17 -17 -17 -17 -17 -17 -17 -17 -18 -18 -18 -18 -18 -18 -19 -19 -20 -20 -21 -22 -22 -22 -23 -23 -23 -23 -24 -24 -25 -26
-16 -16 -16 -17 -17 -17 -17 -17 -17 -17 -17 -17 -17 -18 -18 -18 -18 -18 -18 -19 -19 -19 -20 -20 -20 -21 -22 -22 -22 -23 -23 -24 -24 -24 -24 -25 -26 -26
-16 -16 -17 -17 -17 -17 -17 -17 -17 -17 -17 -17 -18 -18 -18 -18 -19 -19 -19 -19 -20 -20 -20 -21 -22 -22 -23 -23 -23 -23 -23 -23 -23 -24 -26 -26 -26 -27
-17 -17 -17 -17 -16 -17 -17 -17 -17 -17 -18 -18 -19 -19 -19 -19 -19 -20 -20 -20 -20 -21 -21 -22 -23 -23 -23 -23 -23 -24 -24 -24 -25 -26 -26 -26 -27 -28